<?xml version="1.0" encoding="UTF-8" standalone="no" ?>
<gpx xmlns="http://www.topografix.com/GPX/1/1" xmlns:xsi="http://www.w3.org/2001/XMLSchema-instance" xsi:schemaLocation="http://www.topografix.com/GPX/1/1 http://www.topografix.com/GPX/1/1/gpx.xsd" version="1.1" creator="VisuGPX - https://www.visugpx.com">
  <metadata>
    <name>CDS j2</name>
    <desc><![CDATA[Chemin du soleil]]></desc>
  </metadata>
  <trk>
    <name><![CDATA[ACTIVE LOG130934]]></name>
    <trkseg>
      <trkpt lat="45.40984" lon="5.79728">
        <ele>1161</ele>
        <time>2011-08-10T11:09:33Z</time>
      </trkpt>
      <trkpt lat="45.40981" lon="5.79729">
        <ele>1161</ele>
        <time>2011-08-10T11:09:49Z</time>
      </trkpt>
      <trkpt lat="45.40982" lon="5.79728">
        <ele>1161</ele>
        <time>2011-08-10T11:12:12Z</time>
      </trkpt>
      <trkpt lat="45.40982" lon="5.79728">
        <ele>1161</ele>
        <time>2011-08-10T11:12:51Z</time>
      </trkpt>
      <trkpt lat="45.40982" lon="5.79729">
        <ele>1161</ele>
        <time>2011-08-10T11:13:44Z</time>
      </trkpt>
      <trkpt lat="45.40981" lon="5.79727">
        <ele>1161</ele>
        <time>2011-08-10T11:14:46Z</time>
      </trkpt>
      <trkpt lat="45.40981" lon="5.79726">
        <ele>1162</ele>
        <time>2011-08-10T11:14:47Z</time>
      </trkpt>
      <trkpt lat="45.40981" lon="5.79721">
        <ele>1162</ele>
        <time>2011-08-10T11:14:50Z</time>
      </trkpt>
      <trkpt lat="45.40973" lon="5.79709">
        <ele>1163</ele>
        <time>2011-08-10T11:15:07Z</time>
      </trkpt>
      <trkpt lat="45.40971" lon="5.79708">
        <ele>1163</ele>
        <time>2011-08-10T11:15:10Z</time>
      </trkpt>
      <trkpt lat="45.40965" lon="5.79707">
        <ele>1164</ele>
        <time>2011-08-10T11:15:14Z</time>
      </trkpt>
      <trkpt lat="45.40932" lon="5.79693">
        <ele>1165</ele>
        <time>2011-08-10T11:15:30Z</time>
      </trkpt>
      <trkpt lat="45.40893" lon="5.7968">
        <ele>1167</ele>
        <time>2011-08-10T11:15:47Z</time>
      </trkpt>
      <trkpt lat="45.40842" lon="5.79648">
        <ele>1173</ele>
        <time>2011-08-10T11:16:06Z</time>
      </trkpt>
      <trkpt lat="45.40813" lon="5.79619">
        <ele>1181</ele>
        <time>2011-08-10T11:16:21Z</time>
      </trkpt>
      <trkpt lat="45.40802" lon="5.79607">
        <ele>1182</ele>
        <time>2011-08-10T11:16:28Z</time>
      </trkpt>
      <trkpt lat="45.40785" lon="5.79586">
        <ele>1184</ele>
        <time>2011-08-10T11:16:42Z</time>
      </trkpt>
      <trkpt lat="45.4077" lon="5.79565">
        <ele>1189</ele>
        <time>2011-08-10T11:16:53Z</time>
      </trkpt>
      <trkpt lat="45.40754" lon="5.79548">
        <ele>1189</ele>
        <time>2011-08-10T11:17:04Z</time>
      </trkpt>
      <trkpt lat="45.40734" lon="5.7953">
        <ele>1199</ele>
        <time>2011-08-10T11:17:16Z</time>
      </trkpt>
      <trkpt lat="45.4073" lon="5.79525">
        <ele>1200</ele>
        <time>2011-08-10T11:17:20Z</time>
      </trkpt>
      <trkpt lat="45.40725" lon="5.79514">
        <ele>1200</ele>
        <time>2011-08-10T11:17:26Z</time>
      </trkpt>
      <trkpt lat="45.40721" lon="5.79505">
        <ele>1200</ele>
        <time>2011-08-10T11:17:32Z</time>
      </trkpt>
      <trkpt lat="45.40712" lon="5.79492">
        <ele>1201</ele>
        <time>2011-08-10T11:17:37Z</time>
      </trkpt>
      <trkpt lat="45.40702" lon="5.79468">
        <ele>1202</ele>
        <time>2011-08-10T11:17:47Z</time>
      </trkpt>
      <trkpt lat="45.40681" lon="5.79423">
        <ele>1205</ele>
        <time>2011-08-10T11:18:04Z</time>
      </trkpt>
      <trkpt lat="45.40694" lon="5.79392">
        <ele>1204</ele>
        <time>2011-08-10T11:18:17Z</time>
      </trkpt>
      <trkpt lat="45.40707" lon="5.79368">
        <ele>1203</ele>
        <time>2011-08-10T11:18:28Z</time>
      </trkpt>
      <trkpt lat="45.407" lon="5.79318">
        <ele>1206</ele>
        <time>2011-08-10T11:18:46Z</time>
      </trkpt>
      <trkpt lat="45.40685" lon="5.79289">
        <ele>1207</ele>
        <time>2011-08-10T11:18:59Z</time>
      </trkpt>
      <trkpt lat="45.40683" lon="5.79277">
        <ele>1208</ele>
        <time>2011-08-10T11:19:06Z</time>
      </trkpt>
      <trkpt lat="45.40665" lon="5.79231">
        <ele>1217</ele>
        <time>2011-08-10T11:19:21Z</time>
      </trkpt>
      <trkpt lat="45.40652" lon="5.79187">
        <ele>1218</ele>
        <time>2011-08-10T11:19:36Z</time>
      </trkpt>
      <trkpt lat="45.40631" lon="5.79156">
        <ele>1215</ele>
        <time>2011-08-10T11:19:48Z</time>
      </trkpt>
      <trkpt lat="45.40606" lon="5.79132">
        <ele>1215</ele>
        <time>2011-08-10T11:19:59Z</time>
      </trkpt>
      <trkpt lat="45.40571" lon="5.79102">
        <ele>1218</ele>
        <time>2011-08-10T11:20:11Z</time>
      </trkpt>
      <trkpt lat="45.40564" lon="5.79099">
        <ele>1219</ele>
        <time>2011-08-10T11:20:13Z</time>
      </trkpt>
      <trkpt lat="45.40512" lon="5.79094">
        <ele>1222</ele>
        <time>2011-08-10T11:20:27Z</time>
      </trkpt>
      <trkpt lat="45.40486" lon="5.7909">
        <ele>1225</ele>
        <time>2011-08-10T11:20:34Z</time>
      </trkpt>
      <trkpt lat="45.40447" lon="5.79073">
        <ele>1219</ele>
        <time>2011-08-10T11:20:44Z</time>
      </trkpt>
      <trkpt lat="45.40396" lon="5.7905">
        <ele>1217</ele>
        <time>2011-08-10T11:20:55Z</time>
      </trkpt>
      <trkpt lat="45.40381" lon="5.7905">
        <ele>1217</ele>
        <time>2011-08-10T11:20:58Z</time>
      </trkpt>
      <trkpt lat="45.40354" lon="5.79059">
        <ele>1217</ele>
        <time>2011-08-10T11:21:04Z</time>
      </trkpt>
      <trkpt lat="45.40336" lon="5.79063">
        <ele>1217</ele>
        <time>2011-08-10T11:21:07Z</time>
      </trkpt>
      <trkpt lat="45.40315" lon="5.79061">
        <ele>1218</ele>
        <time>2011-08-10T11:21:11Z</time>
      </trkpt>
      <trkpt lat="45.40267" lon="5.7903">
        <ele>1218</ele>
        <time>2011-08-10T11:21:22Z</time>
      </trkpt>
      <trkpt lat="45.40239" lon="5.79011">
        <ele>1219</ele>
        <time>2011-08-10T11:21:31Z</time>
      </trkpt>
      <trkpt lat="45.40203" lon="5.78964">
        <ele>1220</ele>
        <time>2011-08-10T11:21:41Z</time>
      </trkpt>
      <trkpt lat="45.40165" lon="5.78912">
        <ele>1224</ele>
        <time>2011-08-10T11:21:51Z</time>
      </trkpt>
      <trkpt lat="45.40152" lon="5.78884">
        <ele>1228</ele>
        <time>2011-08-10T11:21:55Z</time>
      </trkpt>
      <trkpt lat="45.40137" lon="5.78821">
        <ele>1229</ele>
        <time>2011-08-10T11:22:08Z</time>
      </trkpt>
      <trkpt lat="45.40118" lon="5.7879">
        <ele>1230</ele>
        <time>2011-08-10T11:22:19Z</time>
      </trkpt>
      <trkpt lat="45.4011" lon="5.78775">
        <ele>1231</ele>
        <time>2011-08-10T11:22:25Z</time>
      </trkpt>
      <trkpt lat="45.40094" lon="5.78755">
        <ele>1233</ele>
        <time>2011-08-10T11:22:33Z</time>
      </trkpt>
      <trkpt lat="45.40067" lon="5.78719">
        <ele>1238</ele>
        <time>2011-08-10T11:22:45Z</time>
      </trkpt>
      <trkpt lat="45.40048" lon="5.78693">
        <ele>1239</ele>
        <time>2011-08-10T11:22:55Z</time>
      </trkpt>
      <trkpt lat="45.40045" lon="5.78684">
        <ele>1239</ele>
        <time>2011-08-10T11:22:59Z</time>
      </trkpt>
      <trkpt lat="45.40021" lon="5.7865">
        <ele>1240</ele>
        <time>2011-08-10T11:23:10Z</time>
      </trkpt>
      <trkpt lat="45.39979" lon="5.78605">
        <ele>1242</ele>
        <time>2011-08-10T11:23:25Z</time>
      </trkpt>
      <trkpt lat="45.39955" lon="5.78588">
        <ele>1243</ele>
        <time>2011-08-10T11:23:34Z</time>
      </trkpt>
      <trkpt lat="45.39948" lon="5.7858">
        <ele>1240</ele>
        <time>2011-08-10T11:23:37Z</time>
      </trkpt>
      <trkpt lat="45.39947" lon="5.78569">
        <ele>1240</ele>
        <time>2011-08-10T11:23:41Z</time>
      </trkpt>
      <trkpt lat="45.39942" lon="5.78554">
        <ele>1240</ele>
        <time>2011-08-10T11:23:46Z</time>
      </trkpt>
      <trkpt lat="45.39926" lon="5.78509">
        <ele>1241</ele>
        <time>2011-08-10T11:23:55Z</time>
      </trkpt>
      <trkpt lat="45.39916" lon="5.78426">
        <ele>1245</ele>
        <time>2011-08-10T11:24:12Z</time>
      </trkpt>
      <trkpt lat="45.3991" lon="5.78373">
        <ele>1250</ele>
        <time>2011-08-10T11:24:25Z</time>
      </trkpt>
      <trkpt lat="45.39903" lon="5.78323">
        <ele>1251</ele>
        <time>2011-08-10T11:24:38Z</time>
      </trkpt>
      <trkpt lat="45.39899" lon="5.78298">
        <ele>1253</ele>
        <time>2011-08-10T11:24:50Z</time>
      </trkpt>
      <trkpt lat="45.39894" lon="5.78282">
        <ele>1254</ele>
        <time>2011-08-10T11:24:55Z</time>
      </trkpt>
      <trkpt lat="45.39886" lon="5.78267">
        <ele>1255</ele>
        <time>2011-08-10T11:25:00Z</time>
      </trkpt>
      <trkpt lat="45.39873" lon="5.78241">
        <ele>1259</ele>
        <time>2011-08-10T11:25:10Z</time>
      </trkpt>
      <trkpt lat="45.39857" lon="5.78212">
        <ele>1260</ele>
        <time>2011-08-10T11:25:21Z</time>
      </trkpt>
      <trkpt lat="45.39854" lon="5.78208">
        <ele>1260</ele>
        <time>2011-08-10T11:25:24Z</time>
      </trkpt>
      <trkpt lat="45.39817" lon="5.7818">
        <ele>1267</ele>
        <time>2011-08-10T11:25:37Z</time>
      </trkpt>
      <trkpt lat="45.39789" lon="5.78165">
        <ele>1269</ele>
        <time>2011-08-10T11:25:49Z</time>
      </trkpt>
      <trkpt lat="45.39733" lon="5.78142">
        <ele>1268</ele>
        <time>2011-08-10T11:26:04Z</time>
      </trkpt>
      <trkpt lat="45.39697" lon="5.78135">
        <ele>1267</ele>
        <time>2011-08-10T11:26:11Z</time>
      </trkpt>
      <trkpt lat="45.39646" lon="5.78145">
        <ele>1263</ele>
        <time>2011-08-10T11:26:18Z</time>
      </trkpt>
      <trkpt lat="45.39598" lon="5.78141">
        <ele>1260</ele>
        <time>2011-08-10T11:26:25Z</time>
      </trkpt>
      <trkpt lat="45.39578" lon="5.78142">
        <ele>1254</ele>
        <time>2011-08-10T11:26:28Z</time>
      </trkpt>
      <trkpt lat="45.39555" lon="5.78159">
        <ele>1253</ele>
        <time>2011-08-10T11:26:32Z</time>
      </trkpt>
      <trkpt lat="45.39497" lon="5.78233">
        <ele>1259</ele>
        <time>2011-08-10T11:26:45Z</time>
      </trkpt>
      <trkpt lat="45.39475" lon="5.78258">
        <ele>1263</ele>
        <time>2011-08-10T11:26:50Z</time>
      </trkpt>
      <trkpt lat="45.39434" lon="5.78283">
        <ele>1263</ele>
        <time>2011-08-10T11:26:58Z</time>
      </trkpt>
      <trkpt lat="45.39374" lon="5.78303">
        <ele>1262</ele>
        <time>2011-08-10T11:27:13Z</time>
      </trkpt>
      <trkpt lat="45.39332" lon="5.78336">
        <ele>1263</ele>
        <time>2011-08-10T11:27:25Z</time>
      </trkpt>
      <trkpt lat="45.39328" lon="5.7834">
        <ele>1264</ele>
        <time>2011-08-10T11:27:26Z</time>
      </trkpt>
      <trkpt lat="45.39304" lon="5.78351">
        <ele>1266</ele>
        <time>2011-08-10T11:27:32Z</time>
      </trkpt>
      <trkpt lat="45.39255" lon="5.7835">
        <ele>1265</ele>
        <time>2011-08-10T11:27:48Z</time>
      </trkpt>
      <trkpt lat="45.39248" lon="5.78351">
        <ele>1267</ele>
        <time>2011-08-10T11:27:53Z</time>
      </trkpt>
      <trkpt lat="45.39243" lon="5.78351">
        <ele>1267</ele>
        <time>2011-08-10T11:28:03Z</time>
      </trkpt>
      <trkpt lat="45.39245" lon="5.78356">
        <ele>1268</ele>
        <time>2011-08-10T11:28:08Z</time>
      </trkpt>
      <trkpt lat="45.39249" lon="5.78359">
        <ele>1269</ele>
        <time>2011-08-10T11:28:12Z</time>
      </trkpt>
      <trkpt lat="45.39249" lon="5.78364">
        <ele>1269</ele>
        <time>2011-08-10T11:28:17Z</time>
      </trkpt>
      <trkpt lat="45.39239" lon="5.78383">
        <ele>1271</ele>
        <time>2011-08-10T11:28:36Z</time>
      </trkpt>
      <trkpt lat="45.3923" lon="5.78392">
        <ele>1272</ele>
        <time>2011-08-10T11:28:49Z</time>
      </trkpt>
      <trkpt lat="45.39223" lon="5.78397">
        <ele>1273</ele>
        <time>2011-08-10T11:28:57Z</time>
      </trkpt>
      <trkpt lat="45.39222" lon="5.784">
        <ele>1273</ele>
        <time>2011-08-10T11:28:59Z</time>
      </trkpt>
      <trkpt lat="45.39216" lon="5.78409">
        <ele>1273</ele>
        <time>2011-08-10T11:29:13Z</time>
      </trkpt>
      <trkpt lat="45.39198" lon="5.78418">
        <ele>1279</ele>
        <time>2011-08-10T11:29:33Z</time>
      </trkpt>
      <trkpt lat="45.39193" lon="5.78415">
        <ele>1276</ele>
        <time>2011-08-10T11:29:48Z</time>
      </trkpt>
      <trkpt lat="45.39177" lon="5.78408">
        <ele>1277</ele>
        <time>2011-08-10T11:30:02Z</time>
      </trkpt>
      <trkpt lat="45.3917" lon="5.78402">
        <ele>1277</ele>
        <time>2011-08-10T11:30:16Z</time>
      </trkpt>
      <trkpt lat="45.39157" lon="5.78394">
        <ele>1282</ele>
        <time>2011-08-10T11:30:34Z</time>
      </trkpt>
      <trkpt lat="45.39146" lon="5.78389">
        <ele>1283</ele>
        <time>2011-08-10T11:30:50Z</time>
      </trkpt>
      <trkpt lat="45.39134" lon="5.78379">
        <ele>1283</ele>
        <time>2011-08-10T11:31:04Z</time>
      </trkpt>
      <trkpt lat="45.39129" lon="5.78367">
        <ele>1283</ele>
        <time>2011-08-10T11:31:19Z</time>
      </trkpt>
      <trkpt lat="45.39128" lon="5.7837">
        <ele>1283</ele>
        <time>2011-08-10T11:31:24Z</time>
      </trkpt>
      <trkpt lat="45.3913" lon="5.78376">
        <ele>1283</ele>
        <time>2011-08-10T11:31:30Z</time>
      </trkpt>
      <trkpt lat="45.39136" lon="5.78381">
        <ele>1283</ele>
        <time>2011-08-10T11:31:34Z</time>
      </trkpt>
      <trkpt lat="45.39146" lon="5.78388">
        <ele>1283</ele>
        <time>2011-08-10T11:31:47Z</time>
      </trkpt>
      <trkpt lat="45.39161" lon="5.78397">
        <ele>1282</ele>
        <time>2011-08-10T11:32:01Z</time>
      </trkpt>
      <trkpt lat="45.39178" lon="5.78407">
        <ele>1277</ele>
        <time>2011-08-10T11:32:14Z</time>
      </trkpt>
      <trkpt lat="45.3919" lon="5.78419">
        <ele>1280</ele>
        <time>2011-08-10T11:32:28Z</time>
      </trkpt>
      <trkpt lat="45.39178" lon="5.78437">
        <ele>1280</ele>
        <time>2011-08-10T11:32:46Z</time>
      </trkpt>
      <trkpt lat="45.39163" lon="5.78456">
        <ele>1286</ele>
        <time>2011-08-10T11:33:04Z</time>
      </trkpt>
      <trkpt lat="45.39151" lon="5.78468">
        <ele>1287</ele>
        <time>2011-08-10T11:33:21Z</time>
      </trkpt>
      <trkpt lat="45.3915" lon="5.78469">
        <ele>1287</ele>
        <time>2011-08-10T11:33:33Z</time>
      </trkpt>
      <trkpt lat="45.39143" lon="5.78473">
        <ele>1287</ele>
        <time>2011-08-10T11:33:48Z</time>
      </trkpt>
      <trkpt lat="45.39132" lon="5.78474">
        <ele>1288</ele>
        <time>2011-08-10T11:34:02Z</time>
      </trkpt>
      <trkpt lat="45.39119" lon="5.78478">
        <ele>1289</ele>
        <time>2011-08-10T11:34:18Z</time>
      </trkpt>
      <trkpt lat="45.39112" lon="5.78479">
        <ele>1290</ele>
        <time>2011-08-10T11:34:29Z</time>
      </trkpt>
      <trkpt lat="45.39101" lon="5.7848">
        <ele>1291</ele>
        <time>2011-08-10T11:34:44Z</time>
      </trkpt>
      <trkpt lat="45.39091" lon="5.78484">
        <ele>1292</ele>
        <time>2011-08-10T11:34:57Z</time>
      </trkpt>
      <trkpt lat="45.3908" lon="5.78484">
        <ele>1298</ele>
        <time>2011-08-10T11:35:12Z</time>
      </trkpt>
      <trkpt lat="45.39073" lon="5.78484">
        <ele>1299</ele>
        <time>2011-08-10T11:35:28Z</time>
      </trkpt>
      <trkpt lat="45.39063" lon="5.78481">
        <ele>1300</ele>
        <time>2011-08-10T11:35:43Z</time>
      </trkpt>
      <trkpt lat="45.39043" lon="5.78471">
        <ele>1302</ele>
        <time>2011-08-10T11:35:59Z</time>
      </trkpt>
      <trkpt lat="45.39029" lon="5.78466">
        <ele>1304</ele>
        <time>2011-08-10T11:36:16Z</time>
      </trkpt>
      <trkpt lat="45.39019" lon="5.78459">
        <ele>1305</ele>
        <time>2011-08-10T11:36:31Z</time>
      </trkpt>
      <trkpt lat="45.39004" lon="5.78449">
        <ele>1306</ele>
        <time>2011-08-10T11:36:48Z</time>
      </trkpt>
      <trkpt lat="45.38986" lon="5.78439">
        <ele>1315</ele>
        <time>2011-08-10T11:37:06Z</time>
      </trkpt>
      <trkpt lat="45.38971" lon="5.7843">
        <ele>1317</ele>
        <time>2011-08-10T11:37:26Z</time>
      </trkpt>
      <trkpt lat="45.38956" lon="5.78422">
        <ele>1319</ele>
        <time>2011-08-10T11:37:42Z</time>
      </trkpt>
      <trkpt lat="45.38943" lon="5.78419">
        <ele>1321</ele>
        <time>2011-08-10T11:37:59Z</time>
      </trkpt>
      <trkpt lat="45.38931" lon="5.78417">
        <ele>1323</ele>
        <time>2011-08-10T11:38:13Z</time>
      </trkpt>
      <trkpt lat="45.38909" lon="5.78422">
        <ele>1328</ele>
        <time>2011-08-10T11:38:32Z</time>
      </trkpt>
      <trkpt lat="45.38899" lon="5.78426">
        <ele>1330</ele>
        <time>2011-08-10T11:38:42Z</time>
      </trkpt>
      <trkpt lat="45.38889" lon="5.78426">
        <ele>1331</ele>
        <time>2011-08-10T11:38:53Z</time>
      </trkpt>
      <trkpt lat="45.38889" lon="5.78425">
        <ele>1331</ele>
        <time>2011-08-10T11:38:57Z</time>
      </trkpt>
      <trkpt lat="45.3887" lon="5.78422">
        <ele>1333</ele>
        <time>2011-08-10T11:39:13Z</time>
      </trkpt>
      <trkpt lat="45.38845" lon="5.7841">
        <ele>1337</ele>
        <time>2011-08-10T11:39:29Z</time>
      </trkpt>
      <trkpt lat="45.38844" lon="5.78409">
        <ele>1337</ele>
        <time>2011-08-10T11:39:31Z</time>
      </trkpt>
      <trkpt lat="45.38824" lon="5.78401">
        <ele>1344</ele>
        <time>2011-08-10T11:39:47Z</time>
      </trkpt>
      <trkpt lat="45.38799" lon="5.784">
        <ele>1347</ele>
        <time>2011-08-10T11:40:03Z</time>
      </trkpt>
      <trkpt lat="45.38798" lon="5.784">
        <ele>1347</ele>
        <time>2011-08-10T11:40:04Z</time>
      </trkpt>
      <trkpt lat="45.38774" lon="5.78402">
        <ele>1351</ele>
        <time>2011-08-10T11:40:23Z</time>
      </trkpt>
      <trkpt lat="45.38745" lon="5.78397">
        <ele>1360</ele>
        <time>2011-08-10T11:40:42Z</time>
      </trkpt>
      <trkpt lat="45.38718" lon="5.78385">
        <ele>1362</ele>
        <time>2011-08-10T11:41:00Z</time>
      </trkpt>
      <trkpt lat="45.38696" lon="5.78365">
        <ele>1363</ele>
        <time>2011-08-10T11:41:18Z</time>
      </trkpt>
      <trkpt lat="45.38682" lon="5.78345">
        <ele>1365</ele>
        <time>2011-08-10T11:41:31Z</time>
      </trkpt>
      <trkpt lat="45.38656" lon="5.78327">
        <ele>1374</ele>
        <time>2011-08-10T11:41:50Z</time>
      </trkpt>
      <trkpt lat="45.38636" lon="5.78318">
        <ele>1378</ele>
        <time>2011-08-10T11:42:04Z</time>
      </trkpt>
      <trkpt lat="45.38617" lon="5.78299">
        <ele>1381</ele>
        <time>2011-08-10T11:42:22Z</time>
      </trkpt>
      <trkpt lat="45.38604" lon="5.78291">
        <ele>1382</ele>
        <time>2011-08-10T11:42:34Z</time>
      </trkpt>
      <trkpt lat="45.38589" lon="5.78281">
        <ele>1382</ele>
        <time>2011-08-10T11:42:52Z</time>
      </trkpt>
      <trkpt lat="45.38588" lon="5.78281">
        <ele>1383</ele>
        <time>2011-08-10T11:42:53Z</time>
      </trkpt>
      <trkpt lat="45.3858" lon="5.78276">
        <ele>1394</ele>
        <time>2011-08-10T11:43:02Z</time>
      </trkpt>
      <trkpt lat="45.38578" lon="5.78273">
        <ele>1394</ele>
        <time>2011-08-10T11:43:04Z</time>
      </trkpt>
      <trkpt lat="45.38559" lon="5.78261">
        <ele>1395</ele>
        <time>2011-08-10T11:43:23Z</time>
      </trkpt>
      <trkpt lat="45.38538" lon="5.78248">
        <ele>1394</ele>
        <time>2011-08-10T11:43:44Z</time>
      </trkpt>
      <trkpt lat="45.3853" lon="5.78242">
        <ele>1395</ele>
        <time>2011-08-10T11:44:00Z</time>
      </trkpt>
      <trkpt lat="45.38515" lon="5.78231">
        <ele>1396</ele>
        <time>2011-08-10T11:44:16Z</time>
      </trkpt>
      <trkpt lat="45.3851" lon="5.7823">
        <ele>1397</ele>
        <time>2011-08-10T11:44:32Z</time>
      </trkpt>
      <trkpt lat="45.38499" lon="5.78224">
        <ele>1407</ele>
        <time>2011-08-10T11:44:43Z</time>
      </trkpt>
      <trkpt lat="45.38477" lon="5.78215">
        <ele>1409</ele>
        <time>2011-08-10T11:45:00Z</time>
      </trkpt>
      <trkpt lat="45.38466" lon="5.78204">
        <ele>1410</ele>
        <time>2011-08-10T11:45:10Z</time>
      </trkpt>
      <trkpt lat="45.38463" lon="5.78202">
        <ele>1410</ele>
        <time>2011-08-10T11:45:15Z</time>
      </trkpt>
      <trkpt lat="45.38459" lon="5.78201">
        <ele>1410</ele>
        <time>2011-08-10T11:45:19Z</time>
      </trkpt>
      <trkpt lat="45.38442" lon="5.78191">
        <ele>1412</ele>
        <time>2011-08-10T11:45:39Z</time>
      </trkpt>
      <trkpt lat="45.38432" lon="5.78185">
        <ele>1412</ele>
        <time>2011-08-10T11:45:53Z</time>
      </trkpt>
      <trkpt lat="45.38421" lon="5.78176">
        <ele>1413</ele>
        <time>2011-08-10T11:46:05Z</time>
      </trkpt>
      <trkpt lat="45.38401" lon="5.78169">
        <ele>1422</ele>
        <time>2011-08-10T11:46:24Z</time>
      </trkpt>
      <trkpt lat="45.38383" lon="5.78163">
        <ele>1418</ele>
        <time>2011-08-10T11:46:42Z</time>
      </trkpt>
      <trkpt lat="45.38368" lon="5.78158">
        <ele>1420</ele>
        <time>2011-08-10T11:47:01Z</time>
      </trkpt>
      <trkpt lat="45.3835" lon="5.78152">
        <ele>1423</ele>
        <time>2011-08-10T11:47:17Z</time>
      </trkpt>
      <trkpt lat="45.38336" lon="5.78148">
        <ele>1424</ele>
        <time>2011-08-10T11:47:32Z</time>
      </trkpt>
      <trkpt lat="45.38326" lon="5.78146">
        <ele>1428</ele>
        <time>2011-08-10T11:47:46Z</time>
      </trkpt>
      <trkpt lat="45.38297" lon="5.78143">
        <ele>1428</ele>
        <time>2011-08-10T11:48:00Z</time>
      </trkpt>
      <trkpt lat="45.38266" lon="5.78126">
        <ele>1427</ele>
        <time>2011-08-10T11:48:13Z</time>
      </trkpt>
      <trkpt lat="45.3824" lon="5.7812">
        <ele>1429</ele>
        <time>2011-08-10T11:48:24Z</time>
      </trkpt>
      <trkpt lat="45.38207" lon="5.78105">
        <ele>1428</ele>
        <time>2011-08-10T11:48:37Z</time>
      </trkpt>
      <trkpt lat="45.38183" lon="5.7808">
        <ele>1419</ele>
        <time>2011-08-10T11:48:46Z</time>
      </trkpt>
      <trkpt lat="45.38161" lon="5.78072">
        <ele>1422</ele>
        <time>2011-08-10T11:48:56Z</time>
      </trkpt>
      <trkpt lat="45.38136" lon="5.7806">
        <ele>1423</ele>
        <time>2011-08-10T11:49:09Z</time>
      </trkpt>
      <trkpt lat="45.38109" lon="5.78048">
        <ele>1424</ele>
        <time>2011-08-10T11:49:23Z</time>
      </trkpt>
      <trkpt lat="45.38101" lon="5.78041">
        <ele>1424</ele>
        <time>2011-08-10T11:49:30Z</time>
      </trkpt>
      <trkpt lat="45.38082" lon="5.78041">
        <ele>1431</ele>
        <time>2011-08-10T11:49:42Z</time>
      </trkpt>
      <trkpt lat="45.38079" lon="5.78039">
        <ele>1431</ele>
        <time>2011-08-10T11:49:44Z</time>
      </trkpt>
      <trkpt lat="45.38071" lon="5.78038">
        <ele>1431</ele>
        <time>2011-08-10T11:50:00Z</time>
      </trkpt>
      <trkpt lat="45.38061" lon="5.78037">
        <ele>1432</ele>
        <time>2011-08-10T11:50:14Z</time>
      </trkpt>
      <trkpt lat="45.38038" lon="5.78029">
        <ele>1432</ele>
        <time>2011-08-10T11:50:31Z</time>
      </trkpt>
      <trkpt lat="45.38025" lon="5.78027">
        <ele>1433</ele>
        <time>2011-08-10T11:50:39Z</time>
      </trkpt>
      <trkpt lat="45.38" lon="5.78031">
        <ele>1434</ele>
        <time>2011-08-10T11:50:54Z</time>
      </trkpt>
      <trkpt lat="45.37982" lon="5.78026">
        <ele>1444</ele>
        <time>2011-08-10T11:51:05Z</time>
      </trkpt>
      <trkpt lat="45.37976" lon="5.78018">
        <ele>1444</ele>
        <time>2011-08-10T11:51:10Z</time>
      </trkpt>
      <trkpt lat="45.3797" lon="5.78014">
        <ele>1445</ele>
        <time>2011-08-10T11:51:14Z</time>
      </trkpt>
      <trkpt lat="45.37948" lon="5.77987">
        <ele>1441</ele>
        <time>2011-08-10T11:51:32Z</time>
      </trkpt>
      <trkpt lat="45.37947" lon="5.77985">
        <ele>1441</ele>
        <time>2011-08-10T11:51:33Z</time>
      </trkpt>
      <trkpt lat="45.37944" lon="5.77982">
        <ele>1441</ele>
        <time>2011-08-10T11:51:36Z</time>
      </trkpt>
      <trkpt lat="45.37922" lon="5.7796">
        <ele>1441</ele>
        <time>2011-08-10T11:51:49Z</time>
      </trkpt>
      <trkpt lat="45.37914" lon="5.77948">
        <ele>1453</ele>
        <time>2011-08-10T11:51:57Z</time>
      </trkpt>
      <trkpt lat="45.37898" lon="5.77927">
        <ele>1451</ele>
        <time>2011-08-10T11:52:11Z</time>
      </trkpt>
      <trkpt lat="45.37884" lon="5.77898">
        <ele>1447</ele>
        <time>2011-08-10T11:52:28Z</time>
      </trkpt>
      <trkpt lat="45.37877" lon="5.77877">
        <ele>1447</ele>
        <time>2011-08-10T11:52:39Z</time>
      </trkpt>
      <trkpt lat="45.37869" lon="5.77862">
        <ele>1447</ele>
        <time>2011-08-10T11:52:48Z</time>
      </trkpt>
      <trkpt lat="45.3786" lon="5.77853">
        <ele>1447</ele>
        <time>2011-08-10T11:52:54Z</time>
      </trkpt>
      <trkpt lat="45.37848" lon="5.77835">
        <ele>1447</ele>
        <time>2011-08-10T11:53:10Z</time>
      </trkpt>
      <trkpt lat="45.37837" lon="5.77824">
        <ele>1444</ele>
        <time>2011-08-10T11:53:26Z</time>
      </trkpt>
      <trkpt lat="45.37833" lon="5.77824">
        <ele>1445</ele>
        <time>2011-08-10T11:53:32Z</time>
      </trkpt>
      <trkpt lat="45.37823" lon="5.77832">
        <ele>1445</ele>
        <time>2011-08-10T11:53:48Z</time>
      </trkpt>
      <trkpt lat="45.37809" lon="5.77853">
        <ele>1454</ele>
        <time>2011-08-10T11:54:08Z</time>
      </trkpt>
      <trkpt lat="45.37799" lon="5.77865">
        <ele>1457</ele>
        <time>2011-08-10T11:54:26Z</time>
      </trkpt>
      <trkpt lat="45.37785" lon="5.77883">
        <ele>1459</ele>
        <time>2011-08-10T11:54:46Z</time>
      </trkpt>
      <trkpt lat="45.37771" lon="5.77889">
        <ele>1461</ele>
        <time>2011-08-10T11:55:04Z</time>
      </trkpt>
      <trkpt lat="45.37767" lon="5.77892">
        <ele>1462</ele>
        <time>2011-08-10T11:55:18Z</time>
      </trkpt>
      <trkpt lat="45.3776" lon="5.77897">
        <ele>1464</ele>
        <time>2011-08-10T11:55:23Z</time>
      </trkpt>
      <trkpt lat="45.37759" lon="5.77901">
        <ele>1465</ele>
        <time>2011-08-10T11:55:27Z</time>
      </trkpt>
      <trkpt lat="45.3775" lon="5.77904">
        <ele>1470</ele>
        <time>2011-08-10T11:55:42Z</time>
      </trkpt>
      <trkpt lat="45.37739" lon="5.77909">
        <ele>1470</ele>
        <time>2011-08-10T11:55:55Z</time>
      </trkpt>
      <trkpt lat="45.37734" lon="5.77912">
        <ele>1470</ele>
        <time>2011-08-10T11:56:06Z</time>
      </trkpt>
      <trkpt lat="45.37724" lon="5.77919">
        <ele>1483</ele>
        <time>2011-08-10T11:56:15Z</time>
      </trkpt>
      <trkpt lat="45.37714" lon="5.77924">
        <ele>1485</ele>
        <time>2011-08-10T11:56:27Z</time>
      </trkpt>
      <trkpt lat="45.37706" lon="5.77929">
        <ele>1486</ele>
        <time>2011-08-10T11:56:40Z</time>
      </trkpt>
      <trkpt lat="45.37689" lon="5.77931">
        <ele>1486</ele>
        <time>2011-08-10T11:56:50Z</time>
      </trkpt>
      <trkpt lat="45.37684" lon="5.77935">
        <ele>1486</ele>
        <time>2011-08-10T11:57:01Z</time>
      </trkpt>
      <trkpt lat="45.37679" lon="5.77935">
        <ele>1486</ele>
        <time>2011-08-10T11:57:12Z</time>
      </trkpt>
      <trkpt lat="45.37672" lon="5.77936">
        <ele>1486</ele>
        <time>2011-08-10T11:57:33Z</time>
      </trkpt>
      <trkpt lat="45.37652" lon="5.77938">
        <ele>1492</ele>
        <time>2011-08-10T11:57:47Z</time>
      </trkpt>
      <trkpt lat="45.3764" lon="5.77939">
        <ele>1494</ele>
        <time>2011-08-10T11:58:03Z</time>
      </trkpt>
      <trkpt lat="45.3763" lon="5.7794">
        <ele>1495</ele>
        <time>2011-08-10T11:58:14Z</time>
      </trkpt>
      <trkpt lat="45.37618" lon="5.77937">
        <ele>1496</ele>
        <time>2011-08-10T11:58:30Z</time>
      </trkpt>
      <trkpt lat="45.37609" lon="5.77933">
        <ele>1496</ele>
        <time>2011-08-10T11:58:44Z</time>
      </trkpt>
      <trkpt lat="45.37595" lon="5.77929">
        <ele>1496</ele>
        <time>2011-08-10T11:58:58Z</time>
      </trkpt>
      <trkpt lat="45.37578" lon="5.77928">
        <ele>1496</ele>
        <time>2011-08-10T11:59:13Z</time>
      </trkpt>
      <trkpt lat="45.37568" lon="5.7793">
        <ele>1496</ele>
        <time>2011-08-10T11:59:27Z</time>
      </trkpt>
      <trkpt lat="45.37562" lon="5.77935">
        <ele>1496</ele>
        <time>2011-08-10T11:59:42Z</time>
      </trkpt>
      <trkpt lat="45.37559" lon="5.77937">
        <ele>1496</ele>
        <time>2011-08-10T11:59:54Z</time>
      </trkpt>
      <trkpt lat="45.37557" lon="5.77938">
        <ele>1496</ele>
        <time>2011-08-10T12:00:01Z</time>
      </trkpt>
      <trkpt lat="45.37542" lon="5.77943">
        <ele>1495</ele>
        <time>2011-08-10T12:00:08Z</time>
      </trkpt>
      <trkpt lat="45.37523" lon="5.77953">
        <ele>1494</ele>
        <time>2011-08-10T12:00:16Z</time>
      </trkpt>
      <trkpt lat="45.37524" lon="5.7796">
        <ele>1493</ele>
        <time>2011-08-10T12:00:20Z</time>
      </trkpt>
      <trkpt lat="45.37528" lon="5.77962">
        <ele>1493</ele>
        <time>2011-08-10T12:00:23Z</time>
      </trkpt>
      <trkpt lat="45.37529" lon="5.77987">
        <ele>1491</ele>
        <time>2011-08-10T12:00:32Z</time>
      </trkpt>
      <trkpt lat="45.37531" lon="5.78024">
        <ele>1482</ele>
        <time>2011-08-10T12:00:41Z</time>
      </trkpt>
      <trkpt lat="45.37529" lon="5.78036">
        <ele>1481</ele>
        <time>2011-08-10T12:00:45Z</time>
      </trkpt>
      <trkpt lat="45.3753" lon="5.78078">
        <ele>1475</ele>
        <time>2011-08-10T12:00:55Z</time>
      </trkpt>
      <trkpt lat="45.37533" lon="5.78087">
        <ele>1465</ele>
        <time>2011-08-10T12:01:06Z</time>
      </trkpt>
      <trkpt lat="45.37532" lon="5.78095">
        <ele>1464</ele>
        <time>2011-08-10T12:01:08Z</time>
      </trkpt>
      <trkpt lat="45.37523" lon="5.78164">
        <ele>1456</ele>
        <time>2011-08-10T12:01:19Z</time>
      </trkpt>
      <trkpt lat="45.37522" lon="5.78164">
        <ele>1456</ele>
        <time>2011-08-10T12:01:20Z</time>
      </trkpt>
      <trkpt lat="45.37517" lon="5.78161">
        <ele>1455</ele>
        <time>2011-08-10T12:01:41Z</time>
      </trkpt>
      <trkpt lat="45.3752" lon="5.78158">
        <ele>1456</ele>
        <time>2011-08-10T12:06:26Z</time>
      </trkpt>
      <trkpt lat="45.37519" lon="5.78169">
        <ele>1445</ele>
        <time>2011-08-10T12:06:36Z</time>
      </trkpt>
      <trkpt lat="45.37515" lon="5.78193">
        <ele>1442</ele>
        <time>2011-08-10T12:06:42Z</time>
      </trkpt>
      <trkpt lat="45.3751" lon="5.78202">
        <ele>1441</ele>
        <time>2011-08-10T12:06:44Z</time>
      </trkpt>
      <trkpt lat="45.37486" lon="5.78206">
        <ele>1428</ele>
        <time>2011-08-10T12:06:50Z</time>
      </trkpt>
      <trkpt lat="45.37449" lon="5.78205">
        <ele>1422</ele>
        <time>2011-08-10T12:06:59Z</time>
      </trkpt>
      <trkpt lat="45.37429" lon="5.78194">
        <ele>1421</ele>
        <time>2011-08-10T12:07:08Z</time>
      </trkpt>
      <trkpt lat="45.37421" lon="5.78187">
        <ele>1421</ele>
        <time>2011-08-10T12:07:11Z</time>
      </trkpt>
      <trkpt lat="45.37419" lon="5.78178">
        <ele>1421</ele>
        <time>2011-08-10T12:07:14Z</time>
      </trkpt>
      <trkpt lat="45.37414" lon="5.78177">
        <ele>1410</ele>
        <time>2011-08-10T12:07:18Z</time>
      </trkpt>
      <trkpt lat="45.37403" lon="5.78172">
        <ele>1407</ele>
        <time>2011-08-10T12:07:22Z</time>
      </trkpt>
      <trkpt lat="45.37391" lon="5.78166">
        <ele>1409</ele>
        <time>2011-08-10T12:07:27Z</time>
      </trkpt>
      <trkpt lat="45.37391" lon="5.78159">
        <ele>1409</ele>
        <time>2011-08-10T12:07:32Z</time>
      </trkpt>
      <trkpt lat="45.37392" lon="5.78155">
        <ele>1408</ele>
        <time>2011-08-10T12:07:43Z</time>
      </trkpt>
      <trkpt lat="45.37396" lon="5.78149">
        <ele>1409</ele>
        <time>2011-08-10T12:07:55Z</time>
      </trkpt>
      <trkpt lat="45.37401" lon="5.78141">
        <ele>1409</ele>
        <time>2011-08-10T12:08:00Z</time>
      </trkpt>
      <trkpt lat="45.37402" lon="5.78138">
        <ele>1408</ele>
        <time>2011-08-10T12:08:04Z</time>
      </trkpt>
      <trkpt lat="45.3739" lon="5.78136">
        <ele>1407</ele>
        <time>2011-08-10T12:08:09Z</time>
      </trkpt>
      <trkpt lat="45.37379" lon="5.78135">
        <ele>1404</ele>
        <time>2011-08-10T12:08:13Z</time>
      </trkpt>
      <trkpt lat="45.37377" lon="5.78132">
        <ele>1404</ele>
        <time>2011-08-10T12:08:17Z</time>
      </trkpt>
      <trkpt lat="45.37385" lon="5.78118">
        <ele>1405</ele>
        <time>2011-08-10T12:08:23Z</time>
      </trkpt>
      <trkpt lat="45.37386" lon="5.7811">
        <ele>1405</ele>
        <time>2011-08-10T12:08:25Z</time>
      </trkpt>
      <trkpt lat="45.37385" lon="5.78106">
        <ele>1405</ele>
        <time>2011-08-10T12:08:27Z</time>
      </trkpt>
      <trkpt lat="45.37353" lon="5.78107">
        <ele>1399</ele>
        <time>2011-08-10T12:08:35Z</time>
      </trkpt>
      <trkpt lat="45.37305" lon="5.78107">
        <ele>1377</ele>
        <time>2011-08-10T12:08:45Z</time>
      </trkpt>
      <trkpt lat="45.37303" lon="5.78106">
        <ele>1377</ele>
        <time>2011-08-10T12:08:46Z</time>
      </trkpt>
      <trkpt lat="45.37298" lon="5.78102">
        <ele>1376</ele>
        <time>2011-08-10T12:08:50Z</time>
      </trkpt>
      <trkpt lat="45.37293" lon="5.78086">
        <ele>1375</ele>
        <time>2011-08-10T12:08:58Z</time>
      </trkpt>
      <trkpt lat="45.37292" lon="5.78085">
        <ele>1375</ele>
        <time>2011-08-10T12:08:59Z</time>
      </trkpt>
      <trkpt lat="45.37285" lon="5.78085">
        <ele>1373</ele>
        <time>2011-08-10T12:09:05Z</time>
      </trkpt>
      <trkpt lat="45.37282" lon="5.78083">
        <ele>1374</ele>
        <time>2011-08-10T12:09:07Z</time>
      </trkpt>
      <trkpt lat="45.37275" lon="5.78083">
        <ele>1373</ele>
        <time>2011-08-10T12:09:11Z</time>
      </trkpt>
      <trkpt lat="45.37275" lon="5.78082">
        <ele>1372</ele>
        <time>2011-08-10T12:09:16Z</time>
      </trkpt>
      <trkpt lat="45.37271" lon="5.78078">
        <ele>1372</ele>
        <time>2011-08-10T12:09:26Z</time>
      </trkpt>
      <trkpt lat="45.37271" lon="5.78074">
        <ele>1372</ele>
        <time>2011-08-10T12:09:31Z</time>
      </trkpt>
      <trkpt lat="45.37271" lon="5.78067">
        <ele>1372</ele>
        <time>2011-08-10T12:09:35Z</time>
      </trkpt>
      <trkpt lat="45.3727" lon="5.78064">
        <ele>1373</ele>
        <time>2011-08-10T12:09:38Z</time>
      </trkpt>
      <trkpt lat="45.3727" lon="5.78053">
        <ele>1373</ele>
        <time>2011-08-10T12:09:49Z</time>
      </trkpt>
      <trkpt lat="45.37267" lon="5.78045">
        <ele>1373</ele>
        <time>2011-08-10T12:09:53Z</time>
      </trkpt>
      <trkpt lat="45.37268" lon="5.78027">
        <ele>1373</ele>
        <time>2011-08-10T12:10:06Z</time>
      </trkpt>
      <trkpt lat="45.37267" lon="5.78027">
        <ele>1373</ele>
        <time>2011-08-10T12:10:07Z</time>
      </trkpt>
      <trkpt lat="45.37236" lon="5.78022">
        <ele>1357</ele>
        <time>2011-08-10T12:10:17Z</time>
      </trkpt>
      <trkpt lat="45.37229" lon="5.78029">
        <ele>1355</ele>
        <time>2011-08-10T12:10:20Z</time>
      </trkpt>
      <trkpt lat="45.37225" lon="5.78031">
        <ele>1354</ele>
        <time>2011-08-10T12:10:22Z</time>
      </trkpt>
      <trkpt lat="45.37196" lon="5.78045">
        <ele>1348</ele>
        <time>2011-08-10T12:10:32Z</time>
      </trkpt>
      <trkpt lat="45.37191" lon="5.78047">
        <ele>1347</ele>
        <time>2011-08-10T12:10:33Z</time>
      </trkpt>
      <trkpt lat="45.37163" lon="5.78057">
        <ele>1328</ele>
        <time>2011-08-10T12:10:37Z</time>
      </trkpt>
      <trkpt lat="45.37132" lon="5.78088">
        <ele>1310</ele>
        <time>2011-08-10T12:10:43Z</time>
      </trkpt>
      <trkpt lat="45.37138" lon="5.78144">
        <ele>1304</ele>
        <time>2011-08-10T12:10:52Z</time>
      </trkpt>
      <trkpt lat="45.37147" lon="5.78174">
        <ele>1292</ele>
        <time>2011-08-10T12:10:56Z</time>
      </trkpt>
      <trkpt lat="45.37165" lon="5.78206">
        <ele>1286</ele>
        <time>2011-08-10T12:11:01Z</time>
      </trkpt>
      <trkpt lat="45.37196" lon="5.78251">
        <ele>1289</ele>
        <time>2011-08-10T12:11:08Z</time>
      </trkpt>
      <trkpt lat="45.37208" lon="5.78277">
        <ele>1290</ele>
        <time>2011-08-10T12:11:11Z</time>
      </trkpt>
      <trkpt lat="45.37238" lon="5.78321">
        <ele>1290</ele>
        <time>2011-08-10T12:11:18Z</time>
      </trkpt>
      <trkpt lat="45.37243" lon="5.78332">
        <ele>1290</ele>
        <time>2011-08-10T12:11:29Z</time>
      </trkpt>
      <trkpt lat="45.37246" lon="5.78332">
        <ele>1290</ele>
        <time>2011-08-10T12:11:47Z</time>
      </trkpt>
      <trkpt lat="45.37267" lon="5.78333">
        <ele>1305</ele>
        <time>2011-08-10T12:12:04Z</time>
      </trkpt>
      <trkpt lat="45.37294" lon="5.78379">
        <ele>1297</ele>
        <time>2011-08-10T12:12:11Z</time>
      </trkpt>
      <trkpt lat="45.37323" lon="5.78442">
        <ele>1289</ele>
        <time>2011-08-10T12:12:21Z</time>
      </trkpt>
      <trkpt lat="45.37356" lon="5.78491">
        <ele>1293</ele>
        <time>2011-08-10T12:12:33Z</time>
      </trkpt>
      <trkpt lat="45.37367" lon="5.7851">
        <ele>1283</ele>
        <time>2011-08-10T12:12:37Z</time>
      </trkpt>
      <trkpt lat="45.37378" lon="5.78547">
        <ele>1281</ele>
        <time>2011-08-10T12:12:47Z</time>
      </trkpt>
      <trkpt lat="45.37381" lon="5.78563">
        <ele>1280</ele>
        <time>2011-08-10T12:12:53Z</time>
      </trkpt>
      <trkpt lat="45.37379" lon="5.78568">
        <ele>1280</ele>
        <time>2011-08-10T12:12:57Z</time>
      </trkpt>
      <trkpt lat="45.37363" lon="5.78577">
        <ele>1278</ele>
        <time>2011-08-10T12:13:09Z</time>
      </trkpt>
      <trkpt lat="45.37349" lon="5.7858">
        <ele>1276</ele>
        <time>2011-08-10T12:13:26Z</time>
      </trkpt>
      <trkpt lat="45.37342" lon="5.78561">
        <ele>1277</ele>
        <time>2011-08-10T12:13:35Z</time>
      </trkpt>
      <trkpt lat="45.37346" lon="5.78553">
        <ele>1279</ele>
        <time>2011-08-10T12:13:44Z</time>
      </trkpt>
      <trkpt lat="45.37352" lon="5.78544">
        <ele>1280</ele>
        <time>2011-08-10T12:13:54Z</time>
      </trkpt>
      <trkpt lat="45.37355" lon="5.78538">
        <ele>1281</ele>
        <time>2011-08-10T12:14:00Z</time>
      </trkpt>
      <trkpt lat="45.37356" lon="5.78538">
        <ele>1281</ele>
        <time>2011-08-10T12:14:04Z</time>
      </trkpt>
      <trkpt lat="45.37353" lon="5.78512">
        <ele>1282</ele>
        <time>2011-08-10T12:14:19Z</time>
      </trkpt>
      <trkpt lat="45.37344" lon="5.78495">
        <ele>1288</ele>
        <time>2011-08-10T12:14:31Z</time>
      </trkpt>
      <trkpt lat="45.37312" lon="5.78472">
        <ele>1284</ele>
        <time>2011-08-10T12:14:45Z</time>
      </trkpt>
      <trkpt lat="45.37296" lon="5.78463">
        <ele>1284</ele>
        <time>2011-08-10T12:14:53Z</time>
      </trkpt>
      <trkpt lat="45.3729" lon="5.78456">
        <ele>1284</ele>
        <time>2011-08-10T12:14:57Z</time>
      </trkpt>
      <trkpt lat="45.37283" lon="5.78449">
        <ele>1283</ele>
        <time>2011-08-10T12:15:02Z</time>
      </trkpt>
      <trkpt lat="45.37278" lon="5.78444">
        <ele>1283</ele>
        <time>2011-08-10T12:15:05Z</time>
      </trkpt>
      <trkpt lat="45.37241" lon="5.78416">
        <ele>1276</ele>
        <time>2011-08-10T12:15:18Z</time>
      </trkpt>
      <trkpt lat="45.37221" lon="5.78415">
        <ele>1273</ele>
        <time>2011-08-10T12:15:22Z</time>
      </trkpt>
      <trkpt lat="45.37175" lon="5.78407">
        <ele>1265</ele>
        <time>2011-08-10T12:15:31Z</time>
      </trkpt>
      <trkpt lat="45.37133" lon="5.7839">
        <ele>1254</ele>
        <time>2011-08-10T12:15:40Z</time>
      </trkpt>
      <trkpt lat="45.37104" lon="5.78366">
        <ele>1250</ele>
        <time>2011-08-10T12:15:50Z</time>
      </trkpt>
      <trkpt lat="45.37092" lon="5.78356">
        <ele>1248</ele>
        <time>2011-08-10T12:15:59Z</time>
      </trkpt>
      <trkpt lat="45.3709" lon="5.78353">
        <ele>1247</ele>
        <time>2011-08-10T12:16:13Z</time>
      </trkpt>
      <trkpt lat="45.37087" lon="5.78348">
        <ele>1246</ele>
        <time>2011-08-10T12:16:37Z</time>
      </trkpt>
      <trkpt lat="45.37086" lon="5.78341">
        <ele>1244</ele>
        <time>2011-08-10T12:16:46Z</time>
      </trkpt>
      <trkpt lat="45.37086" lon="5.78342">
        <ele>1244</ele>
        <time>2011-08-10T12:16:50Z</time>
      </trkpt>
      <trkpt lat="45.37083" lon="5.78339">
        <ele>1242</ele>
        <time>2011-08-10T12:16:55Z</time>
      </trkpt>
      <trkpt lat="45.37074" lon="5.78337">
        <ele>1239</ele>
        <time>2011-08-10T12:17:00Z</time>
      </trkpt>
      <trkpt lat="45.37069" lon="5.78338">
        <ele>1238</ele>
        <time>2011-08-10T12:17:02Z</time>
      </trkpt>
      <trkpt lat="45.37046" lon="5.78338">
        <ele>1236</ele>
        <time>2011-08-10T12:17:10Z</time>
      </trkpt>
      <trkpt lat="45.37039" lon="5.78345">
        <ele>1235</ele>
        <time>2011-08-10T12:17:22Z</time>
      </trkpt>
      <trkpt lat="45.37034" lon="5.78348">
        <ele>1235</ele>
        <time>2011-08-10T12:17:25Z</time>
      </trkpt>
      <trkpt lat="45.37031" lon="5.78349">
        <ele>1234</ele>
        <time>2011-08-10T12:17:28Z</time>
      </trkpt>
      <trkpt lat="45.3702" lon="5.78353">
        <ele>1233</ele>
        <time>2011-08-10T12:17:36Z</time>
      </trkpt>
      <trkpt lat="45.37007" lon="5.7837">
        <ele>1233</ele>
        <time>2011-08-10T12:17:47Z</time>
      </trkpt>
      <trkpt lat="45.37004" lon="5.78372">
        <ele>1233</ele>
        <time>2011-08-10T12:17:51Z</time>
      </trkpt>
      <trkpt lat="45.36999" lon="5.78374">
        <ele>1223</ele>
        <time>2011-08-10T12:18:03Z</time>
      </trkpt>
      <trkpt lat="45.36986" lon="5.78377">
        <ele>1223</ele>
        <time>2011-08-10T12:18:18Z</time>
      </trkpt>
      <trkpt lat="45.36963" lon="5.78385">
        <ele>1221</ele>
        <time>2011-08-10T12:18:26Z</time>
      </trkpt>
      <trkpt lat="45.36961" lon="5.78385">
        <ele>1220</ele>
        <time>2011-08-10T12:18:27Z</time>
      </trkpt>
      <trkpt lat="45.36951" lon="5.78389">
        <ele>1219</ele>
        <time>2011-08-10T12:18:37Z</time>
      </trkpt>
      <trkpt lat="45.36951" lon="5.78389">
        <ele>1219</ele>
        <time>2011-08-10T12:18:39Z</time>
      </trkpt>
      <trkpt lat="45.36928" lon="5.78382">
        <ele>1218</ele>
        <time>2011-08-10T12:18:47Z</time>
      </trkpt>
      <trkpt lat="45.36894" lon="5.78404">
        <ele>1207</ele>
        <time>2011-08-10T12:18:55Z</time>
      </trkpt>
      <trkpt lat="45.36876" lon="5.78417">
        <ele>1201</ele>
        <time>2011-08-10T12:18:59Z</time>
      </trkpt>
      <trkpt lat="45.36851" lon="5.78424">
        <ele>1198</ele>
        <time>2011-08-10T12:19:04Z</time>
      </trkpt>
      <trkpt lat="45.36827" lon="5.78426">
        <ele>1191</ele>
        <time>2011-08-10T12:19:10Z</time>
      </trkpt>
      <trkpt lat="45.3682" lon="5.78428">
        <ele>1190</ele>
        <time>2011-08-10T12:19:20Z</time>
      </trkpt>
      <trkpt lat="45.36798" lon="5.78429">
        <ele>1187</ele>
        <time>2011-08-10T12:19:31Z</time>
      </trkpt>
      <trkpt lat="45.36785" lon="5.78429">
        <ele>1186</ele>
        <time>2011-08-10T12:19:35Z</time>
      </trkpt>
      <trkpt lat="45.36758" lon="5.78424">
        <ele>1182</ele>
        <time>2011-08-10T12:19:43Z</time>
      </trkpt>
      <trkpt lat="45.36748" lon="5.78419">
        <ele>1178</ele>
        <time>2011-08-10T12:19:47Z</time>
      </trkpt>
      <trkpt lat="45.3673" lon="5.78423">
        <ele>1175</ele>
        <time>2011-08-10T12:19:53Z</time>
      </trkpt>
      <trkpt lat="45.3672" lon="5.78427">
        <ele>1174</ele>
        <time>2011-08-10T12:19:57Z</time>
      </trkpt>
      <trkpt lat="45.3671" lon="5.78425">
        <ele>1173</ele>
        <time>2011-08-10T12:20:01Z</time>
      </trkpt>
      <trkpt lat="45.36686" lon="5.78412">
        <ele>1174</ele>
        <time>2011-08-10T12:20:12Z</time>
      </trkpt>
      <trkpt lat="45.36683" lon="5.78405">
        <ele>1174</ele>
        <time>2011-08-10T12:20:24Z</time>
      </trkpt>
      <trkpt lat="45.36669" lon="5.78403">
        <ele>1172</ele>
        <time>2011-08-10T12:20:39Z</time>
      </trkpt>
      <trkpt lat="45.36652" lon="5.78399">
        <ele>1167</ele>
        <time>2011-08-10T12:20:53Z</time>
      </trkpt>
      <trkpt lat="45.36637" lon="5.78387">
        <ele>1167</ele>
        <time>2011-08-10T12:21:09Z</time>
      </trkpt>
      <trkpt lat="45.36637" lon="5.78387">
        <ele>1167</ele>
        <time>2011-08-10T12:21:10Z</time>
      </trkpt>
      <trkpt lat="45.36634" lon="5.78385">
        <ele>1167</ele>
        <time>2011-08-10T12:21:13Z</time>
      </trkpt>
      <trkpt lat="45.36626" lon="5.78382">
        <ele>1167</ele>
        <time>2011-08-10T12:21:24Z</time>
      </trkpt>
      <trkpt lat="45.36614" lon="5.78369">
        <ele>1167</ele>
        <time>2011-08-10T12:21:32Z</time>
      </trkpt>
      <trkpt lat="45.36606" lon="5.78362">
        <ele>1166</ele>
        <time>2011-08-10T12:21:36Z</time>
      </trkpt>
      <trkpt lat="45.36602" lon="5.78355">
        <ele>1166</ele>
        <time>2011-08-10T12:21:48Z</time>
      </trkpt>
      <trkpt lat="45.36602" lon="5.78349">
        <ele>1166</ele>
        <time>2011-08-10T12:22:03Z</time>
      </trkpt>
      <trkpt lat="45.36602" lon="5.78349">
        <ele>1166</ele>
        <time>2011-08-10T12:22:04Z</time>
      </trkpt>
      <trkpt lat="45.36601" lon="5.78346">
        <ele>1166</ele>
        <time>2011-08-10T12:22:06Z</time>
      </trkpt>
      <trkpt lat="45.36578" lon="5.78315">
        <ele>1159</ele>
        <time>2011-08-10T12:22:16Z</time>
      </trkpt>
      <trkpt lat="45.36536" lon="5.78271">
        <ele>1153</ele>
        <time>2011-08-10T12:22:27Z</time>
      </trkpt>
      <trkpt lat="45.36528" lon="5.78265">
        <ele>1151</ele>
        <time>2011-08-10T12:22:29Z</time>
      </trkpt>
      <trkpt lat="45.36495" lon="5.78252">
        <ele>1142</ele>
        <time>2011-08-10T12:22:39Z</time>
      </trkpt>
      <trkpt lat="45.36466" lon="5.78239">
        <ele>1144</ele>
        <time>2011-08-10T12:22:53Z</time>
      </trkpt>
      <trkpt lat="45.36434" lon="5.78247">
        <ele>1141</ele>
        <time>2011-08-10T12:23:04Z</time>
      </trkpt>
      <trkpt lat="45.36426" lon="5.78246">
        <ele>1140</ele>
        <time>2011-08-10T12:23:15Z</time>
      </trkpt>
      <trkpt lat="45.36425" lon="5.78245">
        <ele>1140</ele>
        <time>2011-08-10T12:23:19Z</time>
      </trkpt>
      <trkpt lat="45.36419" lon="5.78244">
        <ele>1139</ele>
        <time>2011-08-10T12:23:31Z</time>
      </trkpt>
      <trkpt lat="45.3641" lon="5.78248">
        <ele>1140</ele>
        <time>2011-08-10T12:23:45Z</time>
      </trkpt>
      <trkpt lat="45.36403" lon="5.78247">
        <ele>1142</ele>
        <time>2011-08-10T12:23:51Z</time>
      </trkpt>
      <trkpt lat="45.36388" lon="5.78242">
        <ele>1144</ele>
        <time>2011-08-10T12:24:08Z</time>
      </trkpt>
      <trkpt lat="45.36381" lon="5.78242">
        <ele>1145</ele>
        <time>2011-08-10T12:24:21Z</time>
      </trkpt>
      <trkpt lat="45.36368" lon="5.78232">
        <ele>1146</ele>
        <time>2011-08-10T12:24:36Z</time>
      </trkpt>
      <trkpt lat="45.36368" lon="5.78232">
        <ele>1146</ele>
        <time>2011-08-10T12:24:39Z</time>
      </trkpt>
      <trkpt lat="45.36337" lon="5.78232">
        <ele>1145</ele>
        <time>2011-08-10T12:24:52Z</time>
      </trkpt>
      <trkpt lat="45.36311" lon="5.78222">
        <ele>1145</ele>
        <time>2011-08-10T12:25:03Z</time>
      </trkpt>
      <trkpt lat="45.36266" lon="5.78204">
        <ele>1144</ele>
        <time>2011-08-10T12:25:18Z</time>
      </trkpt>
      <trkpt lat="45.36236" lon="5.78202">
        <ele>1133</ele>
        <time>2011-08-10T12:25:28Z</time>
      </trkpt>
      <trkpt lat="45.36201" lon="5.78193">
        <ele>1130</ele>
        <time>2011-08-10T12:25:38Z</time>
      </trkpt>
      <trkpt lat="45.36156" lon="5.78184">
        <ele>1117</ele>
        <time>2011-08-10T12:25:52Z</time>
      </trkpt>
      <trkpt lat="45.36123" lon="5.78184">
        <ele>1114</ele>
        <time>2011-08-10T12:26:04Z</time>
      </trkpt>
      <trkpt lat="45.36097" lon="5.78176">
        <ele>1109</ele>
        <time>2011-08-10T12:26:15Z</time>
      </trkpt>
      <trkpt lat="45.36069" lon="5.78148">
        <ele>1097</ele>
        <time>2011-08-10T12:26:27Z</time>
      </trkpt>
      <trkpt lat="45.36056" lon="5.78118">
        <ele>1093</ele>
        <time>2011-08-10T12:26:38Z</time>
      </trkpt>
      <trkpt lat="45.36052" lon="5.78104">
        <ele>1092</ele>
        <time>2011-08-10T12:26:55Z</time>
      </trkpt>
      <trkpt lat="45.36055" lon="5.78075">
        <ele>1089</ele>
        <time>2011-08-10T12:27:15Z</time>
      </trkpt>
      <trkpt lat="45.36053" lon="5.78075">
        <ele>1089</ele>
        <time>2011-08-10T12:27:33Z</time>
      </trkpt>
      <trkpt lat="45.36053" lon="5.78075">
        <ele>1089</ele>
        <time>2011-08-10T12:27:38Z</time>
      </trkpt>
      <trkpt lat="45.36035" lon="5.78065">
        <ele>1087</ele>
        <time>2011-08-10T12:27:48Z</time>
      </trkpt>
      <trkpt lat="45.36026" lon="5.7805">
        <ele>1086</ele>
        <time>2011-08-10T12:28:03Z</time>
      </trkpt>
      <trkpt lat="45.36026" lon="5.78046">
        <ele>1086</ele>
        <time>2011-08-10T12:28:25Z</time>
      </trkpt>
      <trkpt lat="45.3601" lon="5.78031">
        <ele>1085</ele>
        <time>2011-08-10T12:28:40Z</time>
      </trkpt>
      <trkpt lat="45.35967" lon="5.78016">
        <ele>1075</ele>
        <time>2011-08-10T12:28:56Z</time>
      </trkpt>
      <trkpt lat="45.35927" lon="5.78007">
        <ele>1071</ele>
        <time>2011-08-10T12:29:13Z</time>
      </trkpt>
      <trkpt lat="45.35884" lon="5.77984">
        <ele>1070</ele>
        <time>2011-08-10T12:29:30Z</time>
      </trkpt>
      <trkpt lat="45.35881" lon="5.77982">
        <ele>1070</ele>
        <time>2011-08-10T12:29:42Z</time>
      </trkpt>
      <trkpt lat="45.35881" lon="5.77981">
        <ele>1070</ele>
        <time>2011-08-10T12:29:46Z</time>
      </trkpt>
      <trkpt lat="45.35888" lon="5.77989">
        <ele>1070</ele>
        <time>2011-08-10T12:29:51Z</time>
      </trkpt>
      <trkpt lat="45.35923" lon="5.78007">
        <ele>1071</ele>
        <time>2011-08-10T12:30:02Z</time>
      </trkpt>
      <trkpt lat="45.35935" lon="5.7801">
        <ele>1072</ele>
        <time>2011-08-10T12:30:05Z</time>
      </trkpt>
      <trkpt lat="45.36008" lon="5.78029">
        <ele>1085</ele>
        <time>2011-08-10T12:30:20Z</time>
      </trkpt>
      <trkpt lat="45.36023" lon="5.78041">
        <ele>1086</ele>
        <time>2011-08-10T12:30:23Z</time>
      </trkpt>
      <trkpt lat="45.36037" lon="5.781">
        <ele>1090</ele>
        <time>2011-08-10T12:30:32Z</time>
      </trkpt>
      <trkpt lat="45.36019" lon="5.78119">
        <ele>1090</ele>
        <time>2011-08-10T12:30:37Z</time>
      </trkpt>
      <trkpt lat="45.35993" lon="5.78131">
        <ele>1079</ele>
        <time>2011-08-10T12:30:43Z</time>
      </trkpt>
      <trkpt lat="45.35978" lon="5.78146">
        <ele>1079</ele>
        <time>2011-08-10T12:30:47Z</time>
      </trkpt>
      <trkpt lat="45.35973" lon="5.78164">
        <ele>1079</ele>
        <time>2011-08-10T12:30:50Z</time>
      </trkpt>
      <trkpt lat="45.35971" lon="5.78192">
        <ele>1081</ele>
        <time>2011-08-10T12:30:54Z</time>
      </trkpt>
      <trkpt lat="45.35957" lon="5.78228">
        <ele>1080</ele>
        <time>2011-08-10T12:30:59Z</time>
      </trkpt>
      <trkpt lat="45.35943" lon="5.78242">
        <ele>1077</ele>
        <time>2011-08-10T12:31:02Z</time>
      </trkpt>
      <trkpt lat="45.35928" lon="5.78301">
        <ele>1077</ele>
        <time>2011-08-10T12:31:09Z</time>
      </trkpt>
      <trkpt lat="45.35935" lon="5.78334">
        <ele>1072</ele>
        <time>2011-08-10T12:31:12Z</time>
      </trkpt>
      <trkpt lat="45.35939" lon="5.78392">
        <ele>1071</ele>
        <time>2011-08-10T12:31:17Z</time>
      </trkpt>
      <trkpt lat="45.35948" lon="5.78424">
        <ele>1065</ele>
        <time>2011-08-10T12:31:20Z</time>
      </trkpt>
      <trkpt lat="45.35964" lon="5.78445">
        <ele>1065</ele>
        <time>2011-08-10T12:31:27Z</time>
      </trkpt>
      <trkpt lat="45.35966" lon="5.78441">
        <ele>1065</ele>
        <time>2011-08-10T12:31:48Z</time>
      </trkpt>
      <trkpt lat="45.36004" lon="5.78449">
        <ele>1070</ele>
        <time>2011-08-10T12:31:57Z</time>
      </trkpt>
      <trkpt lat="45.36018" lon="5.78451">
        <ele>1071</ele>
        <time>2011-08-10T12:31:59Z</time>
      </trkpt>
      <trkpt lat="45.36042" lon="5.78499">
        <ele>1069</ele>
        <time>2011-08-10T12:32:06Z</time>
      </trkpt>
      <trkpt lat="45.36039" lon="5.78513">
        <ele>1069</ele>
        <time>2011-08-10T12:32:08Z</time>
      </trkpt>
      <trkpt lat="45.36033" lon="5.78533">
        <ele>1069</ele>
        <time>2011-08-10T12:32:12Z</time>
      </trkpt>
      <trkpt lat="45.36007" lon="5.78571">
        <ele>1063</ele>
        <time>2011-08-10T12:32:25Z</time>
      </trkpt>
      <trkpt lat="45.36022" lon="5.78629">
        <ele>1064</ele>
        <time>2011-08-10T12:32:36Z</time>
      </trkpt>
      <trkpt lat="45.36033" lon="5.78656">
        <ele>1064</ele>
        <time>2011-08-10T12:32:41Z</time>
      </trkpt>
      <trkpt lat="45.3604" lon="5.78665">
        <ele>1067</ele>
        <time>2011-08-10T12:32:43Z</time>
      </trkpt>
      <trkpt lat="45.36065" lon="5.78688">
        <ele>1058</ele>
        <time>2011-08-10T12:32:49Z</time>
      </trkpt>
      <trkpt lat="45.36082" lon="5.78709">
        <ele>1053</ele>
        <time>2011-08-10T12:32:53Z</time>
      </trkpt>
      <trkpt lat="45.3609" lon="5.78727">
        <ele>1072</ele>
        <time>2011-08-10T12:32:56Z</time>
      </trkpt>
      <trkpt lat="45.36099" lon="5.78752">
        <ele>1048</ele>
        <time>2011-08-10T12:33:00Z</time>
      </trkpt>
      <trkpt lat="45.36109" lon="5.78763">
        <ele>1050</ele>
        <time>2011-08-10T12:33:02Z</time>
      </trkpt>
      <trkpt lat="45.36169" lon="5.78815">
        <ele>1069</ele>
        <time>2011-08-10T12:33:13Z</time>
      </trkpt>
      <trkpt lat="45.36209" lon="5.78843">
        <ele>1051</ele>
        <time>2011-08-10T12:33:21Z</time>
      </trkpt>
      <trkpt lat="45.36231" lon="5.78867">
        <ele>1051</ele>
        <time>2011-08-10T12:33:27Z</time>
      </trkpt>
      <trkpt lat="45.36268" lon="5.78896">
        <ele>1065</ele>
        <time>2011-08-10T12:33:35Z</time>
      </trkpt>
      <trkpt lat="45.36309" lon="5.78918">
        <ele>1046</ele>
        <time>2011-08-10T12:33:43Z</time>
      </trkpt>
      <trkpt lat="45.36336" lon="5.78942">
        <ele>1058</ele>
        <time>2011-08-10T12:33:48Z</time>
      </trkpt>
      <trkpt lat="45.36365" lon="5.78956">
        <ele>1056</ele>
        <time>2011-08-10T12:33:52Z</time>
      </trkpt>
      <trkpt lat="45.3642" lon="5.79007">
        <ele>1046</ele>
        <time>2011-08-10T12:33:58Z</time>
      </trkpt>
      <trkpt lat="45.36515" lon="5.79103">
        <ele>1027</ele>
        <time>2011-08-10T12:34:08Z</time>
      </trkpt>
      <trkpt lat="45.36526" lon="5.79114">
        <ele>1025</ele>
        <time>2011-08-10T12:34:09Z</time>
      </trkpt>
      <trkpt lat="45.3655" lon="5.79147">
        <ele>1021</ele>
        <time>2011-08-10T12:34:12Z</time>
      </trkpt>
      <trkpt lat="45.36593" lon="5.79182">
        <ele>1012</ele>
        <time>2011-08-10T12:34:16Z</time>
      </trkpt>
      <trkpt lat="45.36622" lon="5.79222">
        <ele>1009</ele>
        <time>2011-08-10T12:34:19Z</time>
      </trkpt>
      <trkpt lat="45.36651" lon="5.79249">
        <ele>1009</ele>
        <time>2011-08-10T12:34:22Z</time>
      </trkpt>
      <trkpt lat="45.36676" lon="5.79298">
        <ele>1012</ele>
        <time>2011-08-10T12:34:27Z</time>
      </trkpt>
      <trkpt lat="45.36672" lon="5.79323">
        <ele>1010</ele>
        <time>2011-08-10T12:34:29Z</time>
      </trkpt>
      <trkpt lat="45.36649" lon="5.79349">
        <ele>1005</ele>
        <time>2011-08-10T12:34:33Z</time>
      </trkpt>
      <trkpt lat="45.3663" lon="5.79362">
        <ele>1004</ele>
        <time>2011-08-10T12:34:40Z</time>
      </trkpt>
      <trkpt lat="45.36623" lon="5.79342">
        <ele>1002</ele>
        <time>2011-08-10T12:34:53Z</time>
      </trkpt>
      <trkpt lat="45.36616" lon="5.79338">
        <ele>1000</ele>
        <time>2011-08-10T12:35:14Z</time>
      </trkpt>
      <trkpt lat="45.36595" lon="5.79339">
        <ele>994</ele>
        <time>2011-08-10T12:35:23Z</time>
      </trkpt>
      <trkpt lat="45.36547" lon="5.79351">
        <ele>984</ele>
        <time>2011-08-10T12:35:35Z</time>
      </trkpt>
      <trkpt lat="45.36521" lon="5.79345">
        <ele>980</ele>
        <time>2011-08-10T12:35:39Z</time>
      </trkpt>
      <trkpt lat="45.36473" lon="5.79315">
        <ele>970</ele>
        <time>2011-08-10T12:35:46Z</time>
      </trkpt>
      <trkpt lat="45.36463" lon="5.79307">
        <ele>970</ele>
        <time>2011-08-10T12:35:54Z</time>
      </trkpt>
      <trkpt lat="45.36452" lon="5.79289">
        <ele>969</ele>
        <time>2011-08-10T12:36:03Z</time>
      </trkpt>
      <trkpt lat="45.36426" lon="5.79249">
        <ele>969</ele>
        <time>2011-08-10T12:36:11Z</time>
      </trkpt>
      <trkpt lat="45.3639" lon="5.79224">
        <ele>960</ele>
        <time>2011-08-10T12:36:18Z</time>
      </trkpt>
      <trkpt lat="45.36377" lon="5.7922">
        <ele>958</ele>
        <time>2011-08-10T12:36:21Z</time>
      </trkpt>
      <trkpt lat="45.36337" lon="5.79192">
        <ele>954</ele>
        <time>2011-08-10T12:36:29Z</time>
      </trkpt>
      <trkpt lat="45.36329" lon="5.79186">
        <ele>944</ele>
        <time>2011-08-10T12:36:31Z</time>
      </trkpt>
      <trkpt lat="45.36304" lon="5.79176">
        <ele>942</ele>
        <time>2011-08-10T12:36:36Z</time>
      </trkpt>
      <trkpt lat="45.36283" lon="5.79172">
        <ele>940</ele>
        <time>2011-08-10T12:36:40Z</time>
      </trkpt>
      <trkpt lat="45.36263" lon="5.7917">
        <ele>936</ele>
        <time>2011-08-10T12:36:50Z</time>
      </trkpt>
      <trkpt lat="45.36266" lon="5.79171">
        <ele>937</ele>
        <time>2011-08-10T12:37:41Z</time>
      </trkpt>
      <trkpt lat="45.36254" lon="5.7916">
        <ele>937</ele>
        <time>2011-08-10T12:37:48Z</time>
      </trkpt>
      <trkpt lat="45.3625" lon="5.79145">
        <ele>934</ele>
        <time>2011-08-10T12:38:00Z</time>
      </trkpt>
      <trkpt lat="45.36238" lon="5.79133">
        <ele>935</ele>
        <time>2011-08-10T12:38:04Z</time>
      </trkpt>
      <trkpt lat="45.36225" lon="5.79117">
        <ele>936</ele>
        <time>2011-08-10T12:38:07Z</time>
      </trkpt>
      <trkpt lat="45.36158" lon="5.791">
        <ele>925</ele>
        <time>2011-08-10T12:38:15Z</time>
      </trkpt>
      <trkpt lat="45.36066" lon="5.79078">
        <ele>914</ele>
        <time>2011-08-10T12:38:22Z</time>
      </trkpt>
      <trkpt lat="45.36024" lon="5.79046">
        <ele>912</ele>
        <time>2011-08-10T12:38:26Z</time>
      </trkpt>
      <trkpt lat="45.35981" lon="5.7901">
        <ele>904</ele>
        <time>2011-08-10T12:38:30Z</time>
      </trkpt>
      <trkpt lat="45.35924" lon="5.78965">
        <ele>900</ele>
        <time>2011-08-10T12:38:35Z</time>
      </trkpt>
      <trkpt lat="45.3582" lon="5.78926">
        <ele>878</ele>
        <time>2011-08-10T12:38:42Z</time>
      </trkpt>
      <trkpt lat="45.35745" lon="5.78903">
        <ele>865</ele>
        <time>2011-08-10T12:38:47Z</time>
      </trkpt>
      <trkpt lat="45.35687" lon="5.78876">
        <ele>863</ele>
        <time>2011-08-10T12:38:53Z</time>
      </trkpt>
      <trkpt lat="45.35649" lon="5.78846">
        <ele>854</ele>
        <time>2011-08-10T12:38:57Z</time>
      </trkpt>
      <trkpt lat="45.35617" lon="5.78832">
        <ele>853</ele>
        <time>2011-08-10T12:39:00Z</time>
      </trkpt>
      <trkpt lat="45.3557" lon="5.7882">
        <ele>843</ele>
        <time>2011-08-10T12:39:05Z</time>
      </trkpt>
      <trkpt lat="45.35525" lon="5.7882">
        <ele>840</ele>
        <time>2011-08-10T12:39:15Z</time>
      </trkpt>
      <trkpt lat="45.35497" lon="5.78809">
        <ele>833</ele>
        <time>2011-08-10T12:39:24Z</time>
      </trkpt>
      <trkpt lat="45.35497" lon="5.78822">
        <ele>832</ele>
        <time>2011-08-10T12:39:30Z</time>
      </trkpt>
      <trkpt lat="45.35547" lon="5.78855">
        <ele>845</ele>
        <time>2011-08-10T12:39:46Z</time>
      </trkpt>
      <trkpt lat="45.35549" lon="5.78858">
        <ele>845</ele>
        <time>2011-08-10T12:39:47Z</time>
      </trkpt>
      <trkpt lat="45.35531" lon="5.78874">
        <ele>846</ele>
        <time>2011-08-10T12:39:59Z</time>
      </trkpt>
      <trkpt lat="45.35494" lon="5.78874">
        <ele>842</ele>
        <time>2011-08-10T12:40:13Z</time>
      </trkpt>
      <trkpt lat="45.35472" lon="5.78898">
        <ele>846</ele>
        <time>2011-08-10T12:40:25Z</time>
      </trkpt>
      <trkpt lat="45.35468" lon="5.78903">
        <ele>846</ele>
        <time>2011-08-10T12:40:27Z</time>
      </trkpt>
      <trkpt lat="45.35436" lon="5.78899">
        <ele>848</ele>
        <time>2011-08-10T12:40:43Z</time>
      </trkpt>
      <trkpt lat="45.35414" lon="5.78899">
        <ele>851</ele>
        <time>2011-08-10T12:40:58Z</time>
      </trkpt>
      <trkpt lat="45.35402" lon="5.78897">
        <ele>850</ele>
        <time>2011-08-10T12:41:05Z</time>
      </trkpt>
      <trkpt lat="45.35381" lon="5.78898">
        <ele>849</ele>
        <time>2011-08-10T12:41:19Z</time>
      </trkpt>
      <trkpt lat="45.35357" lon="5.78897">
        <ele>850</ele>
        <time>2011-08-10T12:41:32Z</time>
      </trkpt>
      <trkpt lat="45.35338" lon="5.78892">
        <ele>850</ele>
        <time>2011-08-10T12:41:43Z</time>
      </trkpt>
      <trkpt lat="45.35311" lon="5.78899">
        <ele>853</ele>
        <time>2011-08-10T12:42:00Z</time>
      </trkpt>
      <trkpt lat="45.35299" lon="5.78907">
        <ele>853</ele>
        <time>2011-08-10T12:42:09Z</time>
      </trkpt>
      <trkpt lat="45.35269" lon="5.78906">
        <ele>854</ele>
        <time>2011-08-10T12:42:22Z</time>
      </trkpt>
      <trkpt lat="45.35233" lon="5.7891">
        <ele>857</ele>
        <time>2011-08-10T12:42:37Z</time>
      </trkpt>
      <trkpt lat="45.35193" lon="5.78916">
        <ele>857</ele>
        <time>2011-08-10T12:42:50Z</time>
      </trkpt>
      <trkpt lat="45.35162" lon="5.78936">
        <ele>863</ele>
        <time>2011-08-10T12:43:01Z</time>
      </trkpt>
      <trkpt lat="45.35132" lon="5.78967">
        <ele>864</ele>
        <time>2011-08-10T12:43:11Z</time>
      </trkpt>
      <trkpt lat="45.35117" lon="5.78981">
        <ele>864</ele>
        <time>2011-08-10T12:43:15Z</time>
      </trkpt>
      <trkpt lat="45.35099" lon="5.78988">
        <ele>863</ele>
        <time>2011-08-10T12:43:19Z</time>
      </trkpt>
      <trkpt lat="45.35014" lon="5.79">
        <ele>856</ele>
        <time>2011-08-10T12:43:31Z</time>
      </trkpt>
      <trkpt lat="45.34997" lon="5.78999">
        <ele>851</ele>
        <time>2011-08-10T12:43:33Z</time>
      </trkpt>
      <trkpt lat="45.34961" lon="5.79033">
        <ele>845</ele>
        <time>2011-08-10T12:43:39Z</time>
      </trkpt>
      <trkpt lat="45.34958" lon="5.79056">
        <ele>846</ele>
        <time>2011-08-10T12:43:41Z</time>
      </trkpt>
      <trkpt lat="45.34936" lon="5.79131">
        <ele>853</ele>
        <time>2011-08-10T12:43:47Z</time>
      </trkpt>
      <trkpt lat="45.34903" lon="5.79166">
        <ele>843</ele>
        <time>2011-08-10T12:43:53Z</time>
      </trkpt>
      <trkpt lat="45.349" lon="5.79166">
        <ele>842</ele>
        <time>2011-08-10T12:43:54Z</time>
      </trkpt>
      <trkpt lat="45.34892" lon="5.79167">
        <ele>853</ele>
        <time>2011-08-10T12:44:04Z</time>
      </trkpt>
      <trkpt lat="45.3489" lon="5.79175">
        <ele>853</ele>
        <time>2011-08-10T12:44:12Z</time>
      </trkpt>
      <trkpt lat="45.34871" lon="5.79186">
        <ele>850</ele>
        <time>2011-08-10T12:44:23Z</time>
      </trkpt>
      <trkpt lat="45.34861" lon="5.79187">
        <ele>848</ele>
        <time>2011-08-10T12:44:36Z</time>
      </trkpt>
      <trkpt lat="45.34858" lon="5.79187">
        <ele>847</ele>
        <time>2011-08-10T12:44:38Z</time>
      </trkpt>
      <trkpt lat="45.34829" lon="5.79203">
        <ele>827</ele>
        <time>2011-08-10T12:44:50Z</time>
      </trkpt>
      <trkpt lat="45.34792" lon="5.79234">
        <ele>827</ele>
        <time>2011-08-10T12:45:02Z</time>
      </trkpt>
      <trkpt lat="45.34773" lon="5.79274">
        <ele>837</ele>
        <time>2011-08-10T12:45:12Z</time>
      </trkpt>
      <trkpt lat="45.34784" lon="5.79325">
        <ele>842</ele>
        <time>2011-08-10T12:45:24Z</time>
      </trkpt>
      <trkpt lat="45.3478" lon="5.79352">
        <ele>849</ele>
        <time>2011-08-10T12:45:31Z</time>
      </trkpt>
      <trkpt lat="45.34767" lon="5.79382">
        <ele>849</ele>
        <time>2011-08-10T12:45:38Z</time>
      </trkpt>
      <trkpt lat="45.3476" lon="5.79419">
        <ele>849</ele>
        <time>2011-08-10T12:45:49Z</time>
      </trkpt>
      <trkpt lat="45.34748" lon="5.79456">
        <ele>834</ele>
        <time>2011-08-10T12:46:01Z</time>
      </trkpt>
      <trkpt lat="45.34742" lon="5.79469">
        <ele>836</ele>
        <time>2011-08-10T12:46:05Z</time>
      </trkpt>
      <trkpt lat="45.34739" lon="5.79474">
        <ele>837</ele>
        <time>2011-08-10T12:46:07Z</time>
      </trkpt>
      <trkpt lat="45.3473" lon="5.79487">
        <ele>839</ele>
        <time>2011-08-10T12:46:13Z</time>
      </trkpt>
      <trkpt lat="45.34702" lon="5.79532">
        <ele>847</ele>
        <time>2011-08-10T12:46:23Z</time>
      </trkpt>
      <trkpt lat="45.34683" lon="5.79549">
        <ele>845</ele>
        <time>2011-08-10T12:46:27Z</time>
      </trkpt>
      <trkpt lat="45.34669" lon="5.79569">
        <ele>845</ele>
        <time>2011-08-10T12:46:31Z</time>
      </trkpt>
      <trkpt lat="45.34647" lon="5.79612">
        <ele>831</ele>
        <time>2011-08-10T12:46:40Z</time>
      </trkpt>
      <trkpt lat="45.34645" lon="5.79612">
        <ele>831</ele>
        <time>2011-08-10T12:47:05Z</time>
      </trkpt>
      <trkpt lat="45.34645" lon="5.79612">
        <ele>831</ele>
        <time>2011-08-10T12:48:44Z</time>
      </trkpt>
      <trkpt lat="45.34644" lon="5.79612">
        <ele>830</ele>
        <time>2011-08-10T12:49:41Z</time>
      </trkpt>
      <trkpt lat="45.34642" lon="5.79615">
        <ele>830</ele>
        <time>2011-08-10T12:50:30Z</time>
      </trkpt>
      <trkpt lat="45.34635" lon="5.79632">
        <ele>830</ele>
        <time>2011-08-10T12:50:36Z</time>
      </trkpt>
      <trkpt lat="45.34609" lon="5.79661">
        <ele>823</ele>
        <time>2011-08-10T12:50:46Z</time>
      </trkpt>
      <trkpt lat="45.34598" lon="5.79674">
        <ele>828</ele>
        <time>2011-08-10T12:50:56Z</time>
      </trkpt>
      <trkpt lat="45.34597" lon="5.79677">
        <ele>828</ele>
        <time>2011-08-10T12:51:02Z</time>
      </trkpt>
      <trkpt lat="45.34585" lon="5.79703">
        <ele>835</ele>
        <time>2011-08-10T12:51:15Z</time>
      </trkpt>
      <trkpt lat="45.34583" lon="5.79707">
        <ele>807</ele>
        <time>2011-08-10T12:51:17Z</time>
      </trkpt>
      <trkpt lat="45.34577" lon="5.79723">
        <ele>810</ele>
        <time>2011-08-10T12:51:22Z</time>
      </trkpt>
      <trkpt lat="45.34575" lon="5.7973">
        <ele>812</ele>
        <time>2011-08-10T12:51:25Z</time>
      </trkpt>
      <trkpt lat="45.34567" lon="5.79746">
        <ele>814</ele>
        <time>2011-08-10T12:51:34Z</time>
      </trkpt>
      <trkpt lat="45.34558" lon="5.79768">
        <ele>820</ele>
        <time>2011-08-10T12:51:46Z</time>
      </trkpt>
      <trkpt lat="45.3455" lon="5.79783">
        <ele>819</ele>
        <time>2011-08-10T12:52:01Z</time>
      </trkpt>
      <trkpt lat="45.34541" lon="5.79797">
        <ele>818</ele>
        <time>2011-08-10T12:52:16Z</time>
      </trkpt>
      <trkpt lat="45.34535" lon="5.798">
        <ele>817</ele>
        <time>2011-08-10T12:52:19Z</time>
      </trkpt>
      <trkpt lat="45.34533" lon="5.79803">
        <ele>816</ele>
        <time>2011-08-10T12:52:21Z</time>
      </trkpt>
      <trkpt lat="45.34505" lon="5.79823">
        <ele>806</ele>
        <time>2011-08-10T12:52:34Z</time>
      </trkpt>
      <trkpt lat="45.34487" lon="5.79836">
        <ele>810</ele>
        <time>2011-08-10T12:52:40Z</time>
      </trkpt>
      <trkpt lat="45.34483" lon="5.79844">
        <ele>814</ele>
        <time>2011-08-10T12:52:42Z</time>
      </trkpt>
      <trkpt lat="45.34452" lon="5.79854">
        <ele>821</ele>
        <time>2011-08-10T12:52:53Z</time>
      </trkpt>
      <trkpt lat="45.34425" lon="5.7989">
        <ele>829</ele>
        <time>2011-08-10T12:53:03Z</time>
      </trkpt>
      <trkpt lat="45.34423" lon="5.79895">
        <ele>830</ele>
        <time>2011-08-10T12:53:04Z</time>
      </trkpt>
      <trkpt lat="45.34415" lon="5.79976">
        <ele>859</ele>
        <time>2011-08-10T12:53:14Z</time>
      </trkpt>
      <trkpt lat="45.34409" lon="5.79997">
        <ele>858</ele>
        <time>2011-08-10T12:53:21Z</time>
      </trkpt>
      <trkpt lat="45.34419" lon="5.80009">
        <ele>855</ele>
        <time>2011-08-10T12:53:25Z</time>
      </trkpt>
      <trkpt lat="45.34422" lon="5.80013">
        <ele>854</ele>
        <time>2011-08-10T12:53:29Z</time>
      </trkpt>
      <trkpt lat="45.34421" lon="5.80018">
        <ele>854</ele>
        <time>2011-08-10T12:53:43Z</time>
      </trkpt>
      <trkpt lat="45.34417" lon="5.80019">
        <ele>854</ele>
        <time>2011-08-10T12:54:41Z</time>
      </trkpt>
      <trkpt lat="45.34412" lon="5.80019">
        <ele>850</ele>
        <time>2011-08-10T12:56:33Z</time>
      </trkpt>
      <trkpt lat="45.34419" lon="5.80021">
        <ele>853</ele>
        <time>2011-08-10T12:56:56Z</time>
      </trkpt>
      <trkpt lat="45.34425" lon="5.80023">
        <ele>853</ele>
        <time>2011-08-10T12:57:29Z</time>
      </trkpt>
      <trkpt lat="45.34423" lon="5.80024">
        <ele>853</ele>
        <time>2011-08-10T12:58:19Z</time>
      </trkpt>
      <trkpt lat="45.34412" lon="5.80031">
        <ele>847</ele>
        <time>2011-08-10T12:59:46Z</time>
      </trkpt>
      <trkpt lat="45.34414" lon="5.80033">
        <ele>847</ele>
        <time>2011-08-10T12:59:49Z</time>
      </trkpt>
      <trkpt lat="45.34418" lon="5.80057">
        <ele>844</ele>
        <time>2011-08-10T12:59:57Z</time>
      </trkpt>
      <trkpt lat="45.34418" lon="5.80091">
        <ele>826</ele>
        <time>2011-08-10T13:00:04Z</time>
      </trkpt>
      <trkpt lat="45.34414" lon="5.80113">
        <ele>821</ele>
        <time>2011-08-10T13:00:09Z</time>
      </trkpt>
      <trkpt lat="45.34402" lon="5.80126">
        <ele>820</ele>
        <time>2011-08-10T13:00:14Z</time>
      </trkpt>
      <trkpt lat="45.34389" lon="5.80135">
        <ele>820</ele>
        <time>2011-08-10T13:00:22Z</time>
      </trkpt>
      <trkpt lat="45.34387" lon="5.80138">
        <ele>820</ele>
        <time>2011-08-10T13:00:31Z</time>
      </trkpt>
      <trkpt lat="45.34375" lon="5.80143">
        <ele>820</ele>
        <time>2011-08-10T13:00:34Z</time>
      </trkpt>
      <trkpt lat="45.3436" lon="5.80179">
        <ele>814</ele>
        <time>2011-08-10T13:00:50Z</time>
      </trkpt>
      <trkpt lat="45.3436" lon="5.80193">
        <ele>813</ele>
        <time>2011-08-10T13:00:55Z</time>
      </trkpt>
      <trkpt lat="45.34352" lon="5.80203">
        <ele>813</ele>
        <time>2011-08-10T13:01:06Z</time>
      </trkpt>
      <trkpt lat="45.34333" lon="5.80211">
        <ele>818</ele>
        <time>2011-08-10T13:01:17Z</time>
      </trkpt>
      <trkpt lat="45.34317" lon="5.80219">
        <ele>818</ele>
        <time>2011-08-10T13:01:28Z</time>
      </trkpt>
      <trkpt lat="45.34311" lon="5.80229">
        <ele>818</ele>
        <time>2011-08-10T13:01:36Z</time>
      </trkpt>
      <trkpt lat="45.34298" lon="5.80242">
        <ele>819</ele>
        <time>2011-08-10T13:01:48Z</time>
      </trkpt>
      <trkpt lat="45.3429" lon="5.80253">
        <ele>819</ele>
        <time>2011-08-10T13:02:05Z</time>
      </trkpt>
      <trkpt lat="45.34281" lon="5.80259">
        <ele>820</ele>
        <time>2011-08-10T13:02:24Z</time>
      </trkpt>
      <trkpt lat="45.3427" lon="5.80262">
        <ele>821</ele>
        <time>2011-08-10T13:02:47Z</time>
      </trkpt>
      <trkpt lat="45.3427" lon="5.80261">
        <ele>821</ele>
        <time>2011-08-10T13:02:59Z</time>
      </trkpt>
      <trkpt lat="45.34236" lon="5.8026">
        <ele>823</ele>
        <time>2011-08-10T13:03:19Z</time>
      </trkpt>
      <trkpt lat="45.3421" lon="5.80264">
        <ele>823</ele>
        <time>2011-08-10T13:03:35Z</time>
      </trkpt>
      <trkpt lat="45.34166" lon="5.80253">
        <ele>832</ele>
        <time>2011-08-10T13:03:48Z</time>
      </trkpt>
      <trkpt lat="45.34116" lon="5.80243">
        <ele>841</ele>
        <time>2011-08-10T13:04:01Z</time>
      </trkpt>
      <trkpt lat="45.34105" lon="5.80243">
        <ele>841</ele>
        <time>2011-08-10T13:04:05Z</time>
      </trkpt>
      <trkpt lat="45.34082" lon="5.80266">
        <ele>845</ele>
        <time>2011-08-10T13:04:18Z</time>
      </trkpt>
      <trkpt lat="45.34077" lon="5.80268">
        <ele>845</ele>
        <time>2011-08-10T13:04:34Z</time>
      </trkpt>
      <trkpt lat="45.34071" lon="5.80275">
        <ele>846</ele>
        <time>2011-08-10T13:04:50Z</time>
      </trkpt>
      <trkpt lat="45.34065" lon="5.80281">
        <ele>846</ele>
        <time>2011-08-10T13:05:06Z</time>
      </trkpt>
      <trkpt lat="45.34064" lon="5.80283">
        <ele>846</ele>
        <time>2011-08-10T13:05:07Z</time>
      </trkpt>
      <trkpt lat="45.34047" lon="5.80313">
        <ele>846</ele>
        <time>2011-08-10T13:05:19Z</time>
      </trkpt>
      <trkpt lat="45.34031" lon="5.80349">
        <ele>839</ele>
        <time>2011-08-10T13:05:24Z</time>
      </trkpt>
      <trkpt lat="45.33999" lon="5.8041">
        <ele>840</ele>
        <time>2011-08-10T13:05:31Z</time>
      </trkpt>
      <trkpt lat="45.33989" lon="5.8043">
        <ele>832</ele>
        <time>2011-08-10T13:05:34Z</time>
      </trkpt>
      <trkpt lat="45.33984" lon="5.80455">
        <ele>827</ele>
        <time>2011-08-10T13:05:38Z</time>
      </trkpt>
      <trkpt lat="45.33982" lon="5.80503">
        <ele>809</ele>
        <time>2011-08-10T13:05:43Z</time>
      </trkpt>
      <trkpt lat="45.33964" lon="5.80534">
        <ele>807</ele>
        <time>2011-08-10T13:05:48Z</time>
      </trkpt>
      <trkpt lat="45.33951" lon="5.8054">
        <ele>806</ele>
        <time>2011-08-10T13:05:50Z</time>
      </trkpt>
      <trkpt lat="45.33941" lon="5.8057">
        <ele>803</ele>
        <time>2011-08-10T13:05:57Z</time>
      </trkpt>
      <trkpt lat="45.33955" lon="5.8057">
        <ele>804</ele>
        <time>2011-08-10T13:06:00Z</time>
      </trkpt>
      <trkpt lat="45.33996" lon="5.80544">
        <ele>805</ele>
        <time>2011-08-10T13:06:08Z</time>
      </trkpt>
      <trkpt lat="45.34009" lon="5.80544">
        <ele>811</ele>
        <time>2011-08-10T13:06:15Z</time>
      </trkpt>
      <trkpt lat="45.33983" lon="5.80563">
        <ele>804</ele>
        <time>2011-08-10T13:06:25Z</time>
      </trkpt>
      <trkpt lat="45.33961" lon="5.80596">
        <ele>799</ele>
        <time>2011-08-10T13:06:35Z</time>
      </trkpt>
      <trkpt lat="45.33958" lon="5.80601">
        <ele>799</ele>
        <time>2011-08-10T13:06:49Z</time>
      </trkpt>
      <trkpt lat="45.33968" lon="5.80601">
        <ele>799</ele>
        <time>2011-08-10T13:08:11Z</time>
      </trkpt>
      <trkpt lat="45.33969" lon="5.80608">
        <ele>799</ele>
        <time>2011-08-10T13:08:14Z</time>
      </trkpt>
      <trkpt lat="45.33971" lon="5.80702">
        <ele>801</ele>
        <time>2011-08-10T13:08:31Z</time>
      </trkpt>
      <trkpt lat="45.33973" lon="5.80719">
        <ele>802</ele>
        <time>2011-08-10T13:08:34Z</time>
      </trkpt>
      <trkpt lat="45.33973" lon="5.80724">
        <ele>802</ele>
        <time>2011-08-10T13:08:49Z</time>
      </trkpt>
      <trkpt lat="45.33974" lon="5.80723">
        <ele>802</ele>
        <time>2011-08-10T13:09:11Z</time>
      </trkpt>
      <trkpt lat="45.33977" lon="5.80724">
        <ele>802</ele>
        <time>2011-08-10T13:10:56Z</time>
      </trkpt>
      <trkpt lat="45.3398" lon="5.80755">
        <ele>807</ele>
        <time>2011-08-10T13:11:07Z</time>
      </trkpt>
      <trkpt lat="45.33976" lon="5.80765">
        <ele>808</ele>
        <time>2011-08-10T13:11:10Z</time>
      </trkpt>
      <trkpt lat="45.33942" lon="5.80756">
        <ele>809</ele>
        <time>2011-08-10T13:11:19Z</time>
      </trkpt>
      <trkpt lat="45.33903" lon="5.80748">
        <ele>806</ele>
        <time>2011-08-10T13:11:27Z</time>
      </trkpt>
      <trkpt lat="45.33875" lon="5.80749">
        <ele>808</ele>
        <time>2011-08-10T13:11:32Z</time>
      </trkpt>
      <trkpt lat="45.33832" lon="5.8074">
        <ele>817</ele>
        <time>2011-08-10T13:11:40Z</time>
      </trkpt>
      <trkpt lat="45.33782" lon="5.80719">
        <ele>815</ele>
        <time>2011-08-10T13:11:50Z</time>
      </trkpt>
      <trkpt lat="45.33671" lon="5.80707">
        <ele>816</ele>
        <time>2011-08-10T13:12:13Z</time>
      </trkpt>
      <trkpt lat="45.33592" lon="5.80722">
        <ele>814</ele>
        <time>2011-08-10T13:12:30Z</time>
      </trkpt>
      <trkpt lat="45.33495" lon="5.80754">
        <ele>820</ele>
        <time>2011-08-10T13:12:51Z</time>
      </trkpt>
      <trkpt lat="45.3347" lon="5.80752">
        <ele>825</ele>
        <time>2011-08-10T13:12:56Z</time>
      </trkpt>
      <trkpt lat="45.33361" lon="5.80704">
        <ele>820</ele>
        <time>2011-08-10T13:13:18Z</time>
      </trkpt>
      <trkpt lat="45.33318" lon="5.80661">
        <ele>826</ele>
        <time>2011-08-10T13:13:28Z</time>
      </trkpt>
      <trkpt lat="45.33275" lon="5.80626">
        <ele>832</ele>
        <time>2011-08-10T13:13:41Z</time>
      </trkpt>
      <trkpt lat="45.33248" lon="5.80606">
        <ele>835</ele>
        <time>2011-08-10T13:13:57Z</time>
      </trkpt>
      <trkpt lat="45.33245" lon="5.80605">
        <ele>835</ele>
        <time>2011-08-10T13:13:58Z</time>
      </trkpt>
      <trkpt lat="45.33199" lon="5.80584">
        <ele>833</ele>
        <time>2011-08-10T13:14:16Z</time>
      </trkpt>
      <trkpt lat="45.33146" lon="5.80569">
        <ele>837</ele>
        <time>2011-08-10T13:14:36Z</time>
      </trkpt>
      <trkpt lat="45.33111" lon="5.80554">
        <ele>837</ele>
        <time>2011-08-10T13:14:49Z</time>
      </trkpt>
      <trkpt lat="45.33056" lon="5.80501">
        <ele>837</ele>
        <time>2011-08-10T13:15:13Z</time>
      </trkpt>
      <trkpt lat="45.33015" lon="5.80458">
        <ele>848</ele>
        <time>2011-08-10T13:15:32Z</time>
      </trkpt>
      <trkpt lat="45.32964" lon="5.80409">
        <ele>857</ele>
        <time>2011-08-10T13:15:55Z</time>
      </trkpt>
      <trkpt lat="45.32922" lon="5.80366">
        <ele>858</ele>
        <time>2011-08-10T13:16:14Z</time>
      </trkpt>
      <trkpt lat="45.3288" lon="5.80319">
        <ele>858</ele>
        <time>2011-08-10T13:16:34Z</time>
      </trkpt>
      <trkpt lat="45.32856" lon="5.80265">
        <ele>859</ele>
        <time>2011-08-10T13:16:52Z</time>
      </trkpt>
      <trkpt lat="45.32827" lon="5.80206">
        <ele>861</ele>
        <time>2011-08-10T13:17:12Z</time>
      </trkpt>
      <trkpt lat="45.32801" lon="5.80159">
        <ele>871</ele>
        <time>2011-08-10T13:17:27Z</time>
      </trkpt>
      <trkpt lat="45.32765" lon="5.80125">
        <ele>871</ele>
        <time>2011-08-10T13:17:43Z</time>
      </trkpt>
      <trkpt lat="45.32761" lon="5.8012">
        <ele>871</ele>
        <time>2011-08-10T13:17:45Z</time>
      </trkpt>
      <trkpt lat="45.32738" lon="5.8008">
        <ele>874</ele>
        <time>2011-08-10T13:17:59Z</time>
      </trkpt>
      <trkpt lat="45.32702" lon="5.80021">
        <ele>873</ele>
        <time>2011-08-10T13:18:20Z</time>
      </trkpt>
      <trkpt lat="45.32691" lon="5.79934">
        <ele>880</ele>
        <time>2011-08-10T13:18:40Z</time>
      </trkpt>
      <trkpt lat="45.32676" lon="5.79817">
        <ele>886</ele>
        <time>2011-08-10T13:19:03Z</time>
      </trkpt>
      <trkpt lat="45.32651" lon="5.79753">
        <ele>888</ele>
        <time>2011-08-10T13:19:16Z</time>
      </trkpt>
      <trkpt lat="45.3259" lon="5.79709">
        <ele>892</ele>
        <time>2011-08-10T13:19:34Z</time>
      </trkpt>
      <trkpt lat="45.32537" lon="5.79647">
        <ele>897</ele>
        <time>2011-08-10T13:19:53Z</time>
      </trkpt>
      <trkpt lat="45.32501" lon="5.79598">
        <ele>898</ele>
        <time>2011-08-10T13:20:07Z</time>
      </trkpt>
      <trkpt lat="45.32437" lon="5.79518">
        <ele>904</ele>
        <time>2011-08-10T13:20:30Z</time>
      </trkpt>
      <trkpt lat="45.32403" lon="5.79458">
        <ele>913</ele>
        <time>2011-08-10T13:20:47Z</time>
      </trkpt>
      <trkpt lat="45.32362" lon="5.79392">
        <ele>919</ele>
        <time>2011-08-10T13:21:06Z</time>
      </trkpt>
      <trkpt lat="45.32332" lon="5.79411">
        <ele>920</ele>
        <time>2011-08-10T13:21:16Z</time>
      </trkpt>
      <trkpt lat="45.32319" lon="5.79456">
        <ele>927</ele>
        <time>2011-08-10T13:21:27Z</time>
      </trkpt>
      <trkpt lat="45.32317" lon="5.79464">
        <ele>927</ele>
        <time>2011-08-10T13:21:29Z</time>
      </trkpt>
      <trkpt lat="45.32273" lon="5.79556">
        <ele>924</ele>
        <time>2011-08-10T13:21:55Z</time>
      </trkpt>
      <trkpt lat="45.32206" lon="5.79581">
        <ele>925</ele>
        <time>2011-08-10T13:22:15Z</time>
      </trkpt>
      <trkpt lat="45.32157" lon="5.79547">
        <ele>917</ele>
        <time>2011-08-10T13:22:32Z</time>
      </trkpt>
      <trkpt lat="45.32143" lon="5.79481">
        <ele>929</ele>
        <time>2011-08-10T13:22:47Z</time>
      </trkpt>
      <trkpt lat="45.32128" lon="5.79411">
        <ele>937</ele>
        <time>2011-08-10T13:23:03Z</time>
      </trkpt>
      <trkpt lat="45.32097" lon="5.79362">
        <ele>936</ele>
        <time>2011-08-10T13:23:17Z</time>
      </trkpt>
      <trkpt lat="45.32076" lon="5.79269">
        <ele>937</ele>
        <time>2011-08-10T13:23:37Z</time>
      </trkpt>
      <trkpt lat="45.32046" lon="5.79192">
        <ele>944</ele>
        <time>2011-08-10T13:23:56Z</time>
      </trkpt>
      <trkpt lat="45.31993" lon="5.79098">
        <ele>941</ele>
        <time>2011-08-10T13:24:23Z</time>
      </trkpt>
      <trkpt lat="45.3196" lon="5.79026">
        <ele>951</ele>
        <time>2011-08-10T13:24:43Z</time>
      </trkpt>
      <trkpt lat="45.31939" lon="5.78984">
        <ele>961</ele>
        <time>2011-08-10T13:24:57Z</time>
      </trkpt>
      <trkpt lat="45.31911" lon="5.78929">
        <ele>956</ele>
        <time>2011-08-10T13:25:14Z</time>
      </trkpt>
      <trkpt lat="45.31874" lon="5.7887">
        <ele>962</ele>
        <time>2011-08-10T13:25:32Z</time>
      </trkpt>
      <trkpt lat="45.31833" lon="5.78812">
        <ele>960</ele>
        <time>2011-08-10T13:25:51Z</time>
      </trkpt>
      <trkpt lat="45.31802" lon="5.78757">
        <ele>969</ele>
        <time>2011-08-10T13:26:09Z</time>
      </trkpt>
      <trkpt lat="45.31765" lon="5.78752">
        <ele>966</ele>
        <time>2011-08-10T13:26:23Z</time>
      </trkpt>
      <trkpt lat="45.31731" lon="5.78708">
        <ele>969</ele>
        <time>2011-08-10T13:26:39Z</time>
      </trkpt>
      <trkpt lat="45.31701" lon="5.78657">
        <ele>981</ele>
        <time>2011-08-10T13:26:57Z</time>
      </trkpt>
      <trkpt lat="45.31665" lon="5.7861">
        <ele>972</ele>
        <time>2011-08-10T13:27:15Z</time>
      </trkpt>
      <trkpt lat="45.3163" lon="5.7854">
        <ele>987</ele>
        <time>2011-08-10T13:27:36Z</time>
      </trkpt>
      <trkpt lat="45.31631" lon="5.7849">
        <ele>999</ele>
        <time>2011-08-10T13:27:50Z</time>
      </trkpt>
      <trkpt lat="45.31632" lon="5.78439">
        <ele>1001</ele>
        <time>2011-08-10T13:28:04Z</time>
      </trkpt>
      <trkpt lat="45.31608" lon="5.78435">
        <ele>1001</ele>
        <time>2011-08-10T13:28:14Z</time>
      </trkpt>
      <trkpt lat="45.31567" lon="5.78459">
        <ele>999</ele>
        <time>2011-08-10T13:28:32Z</time>
      </trkpt>
      <trkpt lat="45.31517" lon="5.78424">
        <ele>1002</ele>
        <time>2011-08-10T13:28:53Z</time>
      </trkpt>
      <trkpt lat="45.31481" lon="5.78381">
        <ele>1002</ele>
        <time>2011-08-10T13:29:11Z</time>
      </trkpt>
      <trkpt lat="45.31469" lon="5.78366">
        <ele>1002</ele>
        <time>2011-08-10T13:29:18Z</time>
      </trkpt>
      <trkpt lat="45.31465" lon="5.78344">
        <ele>1003</ele>
        <time>2011-08-10T13:29:24Z</time>
      </trkpt>
      <trkpt lat="45.31448" lon="5.78293">
        <ele>1011</ele>
        <time>2011-08-10T13:29:41Z</time>
      </trkpt>
      <trkpt lat="45.31439" lon="5.78226">
        <ele>1019</ele>
        <time>2011-08-10T13:29:59Z</time>
      </trkpt>
      <trkpt lat="45.31425" lon="5.78178">
        <ele>1017</ele>
        <time>2011-08-10T13:30:15Z</time>
      </trkpt>
      <trkpt lat="45.31412" lon="5.78146">
        <ele>1008</ele>
        <time>2011-08-10T13:30:25Z</time>
      </trkpt>
      <trkpt lat="45.31403" lon="5.7807">
        <ele>1025</ele>
        <time>2011-08-10T13:30:44Z</time>
      </trkpt>
      <trkpt lat="45.31377" lon="5.77991">
        <ele>1035</ele>
        <time>2011-08-10T13:31:09Z</time>
      </trkpt>
      <trkpt lat="45.31357" lon="5.77944">
        <ele>1035</ele>
        <time>2011-08-10T13:31:26Z</time>
      </trkpt>
      <trkpt lat="45.31333" lon="5.77899">
        <ele>1031</ele>
        <time>2011-08-10T13:31:42Z</time>
      </trkpt>
      <trkpt lat="45.31297" lon="5.7786">
        <ele>1035</ele>
        <time>2011-08-10T13:32:01Z</time>
      </trkpt>
      <trkpt lat="45.31245" lon="5.77812">
        <ele>1041</ele>
        <time>2011-08-10T13:32:27Z</time>
      </trkpt>
      <trkpt lat="45.31207" lon="5.7777">
        <ele>1044</ele>
        <time>2011-08-10T13:32:47Z</time>
      </trkpt>
      <trkpt lat="45.31175" lon="5.77735">
        <ele>1054</ele>
        <time>2011-08-10T13:33:06Z</time>
      </trkpt>
      <trkpt lat="45.31166" lon="5.77676">
        <ele>1056</ele>
        <time>2011-08-10T13:33:25Z</time>
      </trkpt>
      <trkpt lat="45.31165" lon="5.77665">
        <ele>1058</ele>
        <time>2011-08-10T13:33:30Z</time>
      </trkpt>
      <trkpt lat="45.31165" lon="5.77659">
        <ele>1059</ele>
        <time>2011-08-10T13:33:32Z</time>
      </trkpt>
      <trkpt lat="45.31159" lon="5.7764">
        <ele>1061</ele>
        <time>2011-08-10T13:33:41Z</time>
      </trkpt>
      <trkpt lat="45.31156" lon="5.77631">
        <ele>1062</ele>
        <time>2011-08-10T13:33:46Z</time>
      </trkpt>
      <trkpt lat="45.31158" lon="5.77613">
        <ele>1064</ele>
        <time>2011-08-10T13:33:52Z</time>
      </trkpt>
      <trkpt lat="45.31168" lon="5.77597">
        <ele>1070</ele>
        <time>2011-08-10T13:33:56Z</time>
      </trkpt>
      <trkpt lat="45.3121" lon="5.77541">
        <ele>1076</ele>
        <time>2011-08-10T13:34:17Z</time>
      </trkpt>
      <trkpt lat="45.31248" lon="5.77498">
        <ele>1077</ele>
        <time>2011-08-10T13:34:38Z</time>
      </trkpt>
      <trkpt lat="45.31262" lon="5.7744">
        <ele>1079</ele>
        <time>2011-08-10T13:34:57Z</time>
      </trkpt>
      <trkpt lat="45.31254" lon="5.77405">
        <ele>1079</ele>
        <time>2011-08-10T13:35:14Z</time>
      </trkpt>
      <trkpt lat="45.31254" lon="5.77397">
        <ele>1082</ele>
        <time>2011-08-10T13:35:28Z</time>
      </trkpt>
      <trkpt lat="45.31254" lon="5.77396">
        <ele>1082</ele>
        <time>2011-08-10T13:36:43Z</time>
      </trkpt>
      <trkpt lat="45.31257" lon="5.77395">
        <ele>1083</ele>
        <time>2011-08-10T13:37:48Z</time>
      </trkpt>
      <trkpt lat="45.31254" lon="5.77393">
        <ele>1083</ele>
        <time>2011-08-10T13:41:22Z</time>
      </trkpt>
      <trkpt lat="45.31242" lon="5.77367">
        <ele>1082</ele>
        <time>2011-08-10T13:41:34Z</time>
      </trkpt>
      <trkpt lat="45.31221" lon="5.77319">
        <ele>1091</ele>
        <time>2011-08-10T13:41:52Z</time>
      </trkpt>
      <trkpt lat="45.31201" lon="5.77265">
        <ele>1093</ele>
        <time>2011-08-10T13:42:12Z</time>
      </trkpt>
      <trkpt lat="45.3118" lon="5.7721">
        <ele>1101</ele>
        <time>2011-08-10T13:42:34Z</time>
      </trkpt>
      <trkpt lat="45.31178" lon="5.772">
        <ele>1101</ele>
        <time>2011-08-10T13:42:38Z</time>
      </trkpt>
      <trkpt lat="45.31158" lon="5.77165">
        <ele>1104</ele>
        <time>2011-08-10T13:42:53Z</time>
      </trkpt>
      <trkpt lat="45.31153" lon="5.77152">
        <ele>1107</ele>
        <time>2011-08-10T13:42:58Z</time>
      </trkpt>
      <trkpt lat="45.31145" lon="5.77139">
        <ele>1109</ele>
        <time>2011-08-10T13:43:04Z</time>
      </trkpt>
      <trkpt lat="45.31141" lon="5.77127">
        <ele>1111</ele>
        <time>2011-08-10T13:43:09Z</time>
      </trkpt>
      <trkpt lat="45.31133" lon="5.77109">
        <ele>1112</ele>
        <time>2011-08-10T13:43:17Z</time>
      </trkpt>
      <trkpt lat="45.31123" lon="5.7709">
        <ele>1112</ele>
        <time>2011-08-10T13:43:26Z</time>
      </trkpt>
      <trkpt lat="45.31099" lon="5.77062">
        <ele>1124</ele>
        <time>2011-08-10T13:43:42Z</time>
      </trkpt>
      <trkpt lat="45.31066" lon="5.7704">
        <ele>1124</ele>
        <time>2011-08-10T13:43:59Z</time>
      </trkpt>
      <trkpt lat="45.31038" lon="5.77017">
        <ele>1125</ele>
        <time>2011-08-10T13:44:15Z</time>
      </trkpt>
      <trkpt lat="45.31018" lon="5.76996">
        <ele>1132</ele>
        <time>2011-08-10T13:44:33Z</time>
      </trkpt>
      <trkpt lat="45.30994" lon="5.76954">
        <ele>1134</ele>
        <time>2011-08-10T13:44:52Z</time>
      </trkpt>
      <trkpt lat="45.3096" lon="5.76926">
        <ele>1137</ele>
        <time>2011-08-10T13:45:10Z</time>
      </trkpt>
      <trkpt lat="45.30945" lon="5.76957">
        <ele>1137</ele>
        <time>2011-08-10T13:45:24Z</time>
      </trkpt>
      <trkpt lat="45.30944" lon="5.77004">
        <ele>1137</ele>
        <time>2011-08-10T13:45:40Z</time>
      </trkpt>
      <trkpt lat="45.30946" lon="5.77036">
        <ele>1137</ele>
        <time>2011-08-10T13:45:51Z</time>
      </trkpt>
      <trkpt lat="45.30951" lon="5.77073">
        <ele>1139</ele>
        <time>2011-08-10T13:46:04Z</time>
      </trkpt>
      <trkpt lat="45.30961" lon="5.77113">
        <ele>1143</ele>
        <time>2011-08-10T13:46:19Z</time>
      </trkpt>
      <trkpt lat="45.30965" lon="5.77136">
        <ele>1143</ele>
        <time>2011-08-10T13:46:26Z</time>
      </trkpt>
      <trkpt lat="45.30981" lon="5.77167">
        <ele>1144</ele>
        <time>2011-08-10T13:46:40Z</time>
      </trkpt>
      <trkpt lat="45.30998" lon="5.77193">
        <ele>1145</ele>
        <time>2011-08-10T13:46:52Z</time>
      </trkpt>
      <trkpt lat="45.30995" lon="5.77205">
        <ele>1146</ele>
        <time>2011-08-10T13:46:56Z</time>
      </trkpt>
      <trkpt lat="45.30972" lon="5.77235">
        <ele>1149</ele>
        <time>2011-08-10T13:47:11Z</time>
      </trkpt>
      <trkpt lat="45.30966" lon="5.77247">
        <ele>1149</ele>
        <time>2011-08-10T13:47:17Z</time>
      </trkpt>
      <trkpt lat="45.30952" lon="5.77279">
        <ele>1151</ele>
        <time>2011-08-10T13:47:32Z</time>
      </trkpt>
      <trkpt lat="45.30939" lon="5.77294">
        <ele>1152</ele>
        <time>2011-08-10T13:47:45Z</time>
      </trkpt>
      <trkpt lat="45.30911" lon="5.7731">
        <ele>1160</ele>
        <time>2011-08-10T13:48:00Z</time>
      </trkpt>
      <trkpt lat="45.30856" lon="5.77316">
        <ele>1164</ele>
        <time>2011-08-10T13:48:19Z</time>
      </trkpt>
      <trkpt lat="45.30828" lon="5.77294">
        <ele>1171</ele>
        <time>2011-08-10T13:48:36Z</time>
      </trkpt>
      <trkpt lat="45.30788" lon="5.77259">
        <ele>1173</ele>
        <time>2011-08-10T13:48:57Z</time>
      </trkpt>
      <trkpt lat="45.30774" lon="5.7724">
        <ele>1171</ele>
        <time>2011-08-10T13:49:08Z</time>
      </trkpt>
      <trkpt lat="45.30757" lon="5.77236">
        <ele>1172</ele>
        <time>2011-08-10T13:49:16Z</time>
      </trkpt>
      <trkpt lat="45.30731" lon="5.77229">
        <ele>1177</ele>
        <time>2011-08-10T13:49:31Z</time>
      </trkpt>
      <trkpt lat="45.30706" lon="5.7722">
        <ele>1178</ele>
        <time>2011-08-10T13:49:45Z</time>
      </trkpt>
      <trkpt lat="45.30678" lon="5.77212">
        <ele>1179</ele>
        <time>2011-08-10T13:50:00Z</time>
      </trkpt>
      <trkpt lat="45.30661" lon="5.77205">
        <ele>1188</ele>
        <time>2011-08-10T13:50:10Z</time>
      </trkpt>
      <trkpt lat="45.30644" lon="5.77184">
        <ele>1188</ele>
        <time>2011-08-10T13:50:21Z</time>
      </trkpt>
      <trkpt lat="45.30637" lon="5.77172">
        <ele>1188</ele>
        <time>2011-08-10T13:50:26Z</time>
      </trkpt>
      <trkpt lat="45.30617" lon="5.77153">
        <ele>1189</ele>
        <time>2011-08-10T13:50:38Z</time>
      </trkpt>
      <trkpt lat="45.30611" lon="5.77142">
        <ele>1190</ele>
        <time>2011-08-10T13:50:44Z</time>
      </trkpt>
      <trkpt lat="45.30598" lon="5.77112">
        <ele>1191</ele>
        <time>2011-08-10T13:50:58Z</time>
      </trkpt>
      <trkpt lat="45.30585" lon="5.77082">
        <ele>1195</ele>
        <time>2011-08-10T13:51:11Z</time>
      </trkpt>
      <trkpt lat="45.30587" lon="5.77076">
        <ele>1193</ele>
        <time>2011-08-10T13:51:13Z</time>
      </trkpt>
      <trkpt lat="45.30584" lon="5.77072">
        <ele>1193</ele>
        <time>2011-08-10T13:51:15Z</time>
      </trkpt>
      <trkpt lat="45.30582" lon="5.77053">
        <ele>1200</ele>
        <time>2011-08-10T13:51:22Z</time>
      </trkpt>
      <trkpt lat="45.30579" lon="5.77044">
        <ele>1201</ele>
        <time>2011-08-10T13:51:26Z</time>
      </trkpt>
      <trkpt lat="45.30583" lon="5.77031">
        <ele>1200</ele>
        <time>2011-08-10T13:51:30Z</time>
      </trkpt>
      <trkpt lat="45.30586" lon="5.77013">
        <ele>1192</ele>
        <time>2011-08-10T13:51:36Z</time>
      </trkpt>
      <trkpt lat="45.30568" lon="5.76985">
        <ele>1200</ele>
        <time>2011-08-10T13:51:50Z</time>
      </trkpt>
      <trkpt lat="45.30561" lon="5.76955">
        <ele>1201</ele>
        <time>2011-08-10T13:52:02Z</time>
      </trkpt>
      <trkpt lat="45.30553" lon="5.76945">
        <ele>1202</ele>
        <time>2011-08-10T13:52:07Z</time>
      </trkpt>
      <trkpt lat="45.30531" lon="5.76915">
        <ele>1205</ele>
        <time>2011-08-10T13:52:22Z</time>
      </trkpt>
      <trkpt lat="45.30517" lon="5.76876">
        <ele>1206</ele>
        <time>2011-08-10T13:52:37Z</time>
      </trkpt>
      <trkpt lat="45.30493" lon="5.76838">
        <ele>1214</ele>
        <time>2011-08-10T13:52:54Z</time>
      </trkpt>
      <trkpt lat="45.30464" lon="5.76812">
        <ele>1217</ele>
        <time>2011-08-10T13:53:08Z</time>
      </trkpt>
      <trkpt lat="45.30436" lon="5.76796">
        <ele>1218</ele>
        <time>2011-08-10T13:53:19Z</time>
      </trkpt>
      <trkpt lat="45.30415" lon="5.76799">
        <ele>1220</ele>
        <time>2011-08-10T13:53:31Z</time>
      </trkpt>
      <trkpt lat="45.30372" lon="5.76804">
        <ele>1220</ele>
        <time>2011-08-10T13:53:44Z</time>
      </trkpt>
      <trkpt lat="45.3031" lon="5.76816">
        <ele>1221</ele>
        <time>2011-08-10T13:54:02Z</time>
      </trkpt>
      <trkpt lat="45.3025" lon="5.76859">
        <ele>1228</ele>
        <time>2011-08-10T13:54:22Z</time>
      </trkpt>
      <trkpt lat="45.30229" lon="5.76902">
        <ele>1228</ele>
        <time>2011-08-10T13:54:34Z</time>
      </trkpt>
      <trkpt lat="45.30224" lon="5.76918">
        <ele>1230</ele>
        <time>2011-08-10T13:54:40Z</time>
      </trkpt>
      <trkpt lat="45.30213" lon="5.76949">
        <ele>1233</ele>
        <time>2011-08-10T13:54:50Z</time>
      </trkpt>
      <trkpt lat="45.30211" lon="5.76964">
        <ele>1234</ele>
        <time>2011-08-10T13:54:54Z</time>
      </trkpt>
      <trkpt lat="45.30209" lon="5.76975">
        <ele>1234</ele>
        <time>2011-08-10T13:54:57Z</time>
      </trkpt>
      <trkpt lat="45.30212" lon="5.77019">
        <ele>1236</ele>
        <time>2011-08-10T13:55:12Z</time>
      </trkpt>
      <trkpt lat="45.30217" lon="5.77057">
        <ele>1237</ele>
        <time>2011-08-10T13:55:24Z</time>
      </trkpt>
      <trkpt lat="45.30215" lon="5.77069">
        <ele>1237</ele>
        <time>2011-08-10T13:55:28Z</time>
      </trkpt>
      <trkpt lat="45.30204" lon="5.77091">
        <ele>1238</ele>
        <time>2011-08-10T13:55:41Z</time>
      </trkpt>
      <trkpt lat="45.30182" lon="5.77094">
        <ele>1241</ele>
        <time>2011-08-10T13:55:51Z</time>
      </trkpt>
      <trkpt lat="45.30177" lon="5.77095">
        <ele>1242</ele>
        <time>2011-08-10T13:55:53Z</time>
      </trkpt>
      <trkpt lat="45.30173" lon="5.77092">
        <ele>1243</ele>
        <time>2011-08-10T13:55:55Z</time>
      </trkpt>
      <trkpt lat="45.3015" lon="5.77076">
        <ele>1250</ele>
        <time>2011-08-10T13:56:08Z</time>
      </trkpt>
      <trkpt lat="45.30129" lon="5.77068">
        <ele>1252</ele>
        <time>2011-08-10T13:56:20Z</time>
      </trkpt>
      <trkpt lat="45.30109" lon="5.77054">
        <ele>1254</ele>
        <time>2011-08-10T13:56:33Z</time>
      </trkpt>
      <trkpt lat="45.30088" lon="5.77043">
        <ele>1256</ele>
        <time>2011-08-10T13:56:44Z</time>
      </trkpt>
      <trkpt lat="45.30082" lon="5.77035">
        <ele>1263</ele>
        <time>2011-08-10T13:56:51Z</time>
      </trkpt>
      <trkpt lat="45.30061" lon="5.77027">
        <ele>1264</ele>
        <time>2011-08-10T13:57:04Z</time>
      </trkpt>
      <trkpt lat="45.30041" lon="5.77025">
        <ele>1265</ele>
        <time>2011-08-10T13:57:15Z</time>
      </trkpt>
      <trkpt lat="45.30012" lon="5.77011">
        <ele>1267</ele>
        <time>2011-08-10T13:57:30Z</time>
      </trkpt>
      <trkpt lat="45.29975" lon="5.77002">
        <ele>1270</ele>
        <time>2011-08-10T13:57:45Z</time>
      </trkpt>
      <trkpt lat="45.29962" lon="5.76989">
        <ele>1272</ele>
        <time>2011-08-10T13:57:56Z</time>
      </trkpt>
      <trkpt lat="45.2996" lon="5.76988">
        <ele>1272</ele>
        <time>2011-08-10T13:57:57Z</time>
      </trkpt>
      <trkpt lat="45.29937" lon="5.7698">
        <ele>1273</ele>
        <time>2011-08-10T13:58:08Z</time>
      </trkpt>
      <trkpt lat="45.29898" lon="5.7698">
        <ele>1276</ele>
        <time>2011-08-10T13:58:24Z</time>
      </trkpt>
      <trkpt lat="45.2986" lon="5.76973">
        <ele>1278</ele>
        <time>2011-08-10T13:58:41Z</time>
      </trkpt>
      <trkpt lat="45.29801" lon="5.76968">
        <ele>1286</ele>
        <time>2011-08-10T13:58:58Z</time>
      </trkpt>
      <trkpt lat="45.29758" lon="5.76959">
        <ele>1289</ele>
        <time>2011-08-10T13:59:17Z</time>
      </trkpt>
      <trkpt lat="45.2974" lon="5.76954">
        <ele>1293</ele>
        <time>2011-08-10T13:59:27Z</time>
      </trkpt>
      <trkpt lat="45.29717" lon="5.76949">
        <ele>1293</ele>
        <time>2011-08-10T13:59:38Z</time>
      </trkpt>
      <trkpt lat="45.29689" lon="5.76943">
        <ele>1294</ele>
        <time>2011-08-10T13:59:49Z</time>
      </trkpt>
      <trkpt lat="45.29668" lon="5.76932">
        <ele>1295</ele>
        <time>2011-08-10T14:00:00Z</time>
      </trkpt>
      <trkpt lat="45.2964" lon="5.76906">
        <ele>1298</ele>
        <time>2011-08-10T14:00:13Z</time>
      </trkpt>
      <trkpt lat="45.29631" lon="5.76898">
        <ele>1298</ele>
        <time>2011-08-10T14:00:16Z</time>
      </trkpt>
      <trkpt lat="45.29608" lon="5.76864">
        <ele>1300</ele>
        <time>2011-08-10T14:00:30Z</time>
      </trkpt>
      <trkpt lat="45.29605" lon="5.7686">
        <ele>1300</ele>
        <time>2011-08-10T14:00:32Z</time>
      </trkpt>
      <trkpt lat="45.29603" lon="5.76853">
        <ele>1301</ele>
        <time>2011-08-10T14:00:36Z</time>
      </trkpt>
      <trkpt lat="45.29559" lon="5.76827">
        <ele>1308</ele>
        <time>2011-08-10T14:00:51Z</time>
      </trkpt>
      <trkpt lat="45.29521" lon="5.76814">
        <ele>1307</ele>
        <time>2011-08-10T14:01:06Z</time>
      </trkpt>
      <trkpt lat="45.29479" lon="5.76818">
        <ele>1308</ele>
        <time>2011-08-10T14:01:22Z</time>
      </trkpt>
      <trkpt lat="45.29451" lon="5.7681">
        <ele>1310</ele>
        <time>2011-08-10T14:01:32Z</time>
      </trkpt>
      <trkpt lat="45.29426" lon="5.76791">
        <ele>1313</ele>
        <time>2011-08-10T14:01:42Z</time>
      </trkpt>
      <trkpt lat="45.29393" lon="5.76774">
        <ele>1316</ele>
        <time>2011-08-10T14:01:55Z</time>
      </trkpt>
      <trkpt lat="45.29346" lon="5.76768">
        <ele>1316</ele>
        <time>2011-08-10T14:02:12Z</time>
      </trkpt>
      <trkpt lat="45.29305" lon="5.76762">
        <ele>1315</ele>
        <time>2011-08-10T14:02:28Z</time>
      </trkpt>
      <trkpt lat="45.29276" lon="5.76748">
        <ele>1323</ele>
        <time>2011-08-10T14:02:41Z</time>
      </trkpt>
      <trkpt lat="45.29258" lon="5.76733">
        <ele>1322</ele>
        <time>2011-08-10T14:02:51Z</time>
      </trkpt>
      <trkpt lat="45.2921" lon="5.76706">
        <ele>1327</ele>
        <time>2011-08-10T14:03:08Z</time>
      </trkpt>
      <trkpt lat="45.29152" lon="5.76699">
        <ele>1328</ele>
        <time>2011-08-10T14:03:29Z</time>
      </trkpt>
      <trkpt lat="45.29113" lon="5.76696">
        <ele>1328</ele>
        <time>2011-08-10T14:03:44Z</time>
      </trkpt>
      <trkpt lat="45.29064" lon="5.76693">
        <ele>1328</ele>
        <time>2011-08-10T14:04:02Z</time>
      </trkpt>
      <trkpt lat="45.29016" lon="5.7669">
        <ele>1328</ele>
        <time>2011-08-10T14:04:19Z</time>
      </trkpt>
      <trkpt lat="45.28967" lon="5.76684">
        <ele>1330</ele>
        <time>2011-08-10T14:04:35Z</time>
      </trkpt>
      <trkpt lat="45.28931" lon="5.76664">
        <ele>1327</ele>
        <time>2011-08-10T14:04:48Z</time>
      </trkpt>
      <trkpt lat="45.28889" lon="5.76647">
        <ele>1326</ele>
        <time>2011-08-10T14:04:56Z</time>
      </trkpt>
      <trkpt lat="45.28789" lon="5.76622">
        <ele>1333</ele>
        <time>2011-08-10T14:05:08Z</time>
      </trkpt>
      <trkpt lat="45.28761" lon="5.76557">
        <ele>1318</ele>
        <time>2011-08-10T14:05:14Z</time>
      </trkpt>
      <trkpt lat="45.2876" lon="5.76529">
        <ele>1312</ele>
        <time>2011-08-10T14:05:16Z</time>
      </trkpt>
      <trkpt lat="45.2871" lon="5.76457">
        <ele>1306</ele>
        <time>2011-08-10T14:05:23Z</time>
      </trkpt>
      <trkpt lat="45.28582" lon="5.76409">
        <ele>1302</ele>
        <time>2011-08-10T14:05:35Z</time>
      </trkpt>
      <trkpt lat="45.28451" lon="5.76368">
        <ele>1290</ele>
        <time>2011-08-10T14:05:45Z</time>
      </trkpt>
      <trkpt lat="45.28414" lon="5.76373">
        <ele>1284</ele>
        <time>2011-08-10T14:05:48Z</time>
      </trkpt>
      <trkpt lat="45.28331" lon="5.76408">
        <ele>1282</ele>
        <time>2011-08-10T14:05:55Z</time>
      </trkpt>
      <trkpt lat="45.28251" lon="5.76371">
        <ele>1271</ele>
        <time>2011-08-10T14:06:02Z</time>
      </trkpt>
      <trkpt lat="45.28231" lon="5.76356">
        <ele>1264</ele>
        <time>2011-08-10T14:06:04Z</time>
      </trkpt>
      <trkpt lat="45.28201" lon="5.76376">
        <ele>1262</ele>
        <time>2011-08-10T14:06:09Z</time>
      </trkpt>
      <trkpt lat="45.28213" lon="5.76405">
        <ele>1263</ele>
        <time>2011-08-10T14:06:12Z</time>
      </trkpt>
      <trkpt lat="45.28225" lon="5.76419">
        <ele>1264</ele>
        <time>2011-08-10T14:06:14Z</time>
      </trkpt>
      <trkpt lat="45.28238" lon="5.76491">
        <ele>1264</ele>
        <time>2011-08-10T14:06:20Z</time>
      </trkpt>
      <trkpt lat="45.28226" lon="5.7658">
        <ele>1261</ele>
        <time>2011-08-10T14:06:26Z</time>
      </trkpt>
      <trkpt lat="45.28233" lon="5.76626">
        <ele>1263</ele>
        <time>2011-08-10T14:06:29Z</time>
      </trkpt>
      <trkpt lat="45.28219" lon="5.76665">
        <ele>1263</ele>
        <time>2011-08-10T14:06:33Z</time>
      </trkpt>
      <trkpt lat="45.28152" lon="5.76638">
        <ele>1256</ele>
        <time>2011-08-10T14:06:43Z</time>
      </trkpt>
      <trkpt lat="45.28123" lon="5.76628">
        <ele>1255</ele>
        <time>2011-08-10T14:06:46Z</time>
      </trkpt>
      <trkpt lat="45.27976" lon="5.7661">
        <ele>1245</ele>
        <time>2011-08-10T14:06:57Z</time>
      </trkpt>
      <trkpt lat="45.27929" lon="5.76596">
        <ele>1241</ele>
        <time>2011-08-10T14:07:01Z</time>
      </trkpt>
      <trkpt lat="45.27858" lon="5.7659">
        <ele>1232</ele>
        <time>2011-08-10T14:07:07Z</time>
      </trkpt>
      <trkpt lat="45.27767" lon="5.76627">
        <ele>1224</ele>
        <time>2011-08-10T14:07:15Z</time>
      </trkpt>
      <trkpt lat="45.27729" lon="5.76637">
        <ele>1220</ele>
        <time>2011-08-10T14:07:18Z</time>
      </trkpt>
      <trkpt lat="45.27703" lon="5.76637">
        <ele>1220</ele>
        <time>2011-08-10T14:07:20Z</time>
      </trkpt>
      <trkpt lat="45.27646" lon="5.7661">
        <ele>1214</ele>
        <time>2011-08-10T14:07:25Z</time>
      </trkpt>
      <trkpt lat="45.27591" lon="5.76584">
        <ele>1208</ele>
        <time>2011-08-10T14:07:29Z</time>
      </trkpt>
      <trkpt lat="45.27512" lon="5.76579">
        <ele>1191</ele>
        <time>2011-08-10T14:07:35Z</time>
      </trkpt>
      <trkpt lat="45.27469" lon="5.76618">
        <ele>1190</ele>
        <time>2011-08-10T14:07:40Z</time>
      </trkpt>
      <trkpt lat="45.27461" lon="5.76669">
        <ele>1202</ele>
        <time>2011-08-10T14:07:43Z</time>
      </trkpt>
      <trkpt lat="45.27456" lon="5.76747">
        <ele>1206</ele>
        <time>2011-08-10T14:07:49Z</time>
      </trkpt>
      <trkpt lat="45.2743" lon="5.7671">
        <ele>1203</ele>
        <time>2011-08-10T14:07:57Z</time>
      </trkpt>
      <trkpt lat="45.27379" lon="5.76636">
        <ele>1186</ele>
        <time>2011-08-10T14:08:03Z</time>
      </trkpt>
      <trkpt lat="45.27307" lon="5.76567">
        <ele>1169</ele>
        <time>2011-08-10T14:08:09Z</time>
      </trkpt>
      <trkpt lat="45.27276" lon="5.76541">
        <ele>1167</ele>
        <time>2011-08-10T14:08:11Z</time>
      </trkpt>
      <trkpt lat="45.27245" lon="5.76582">
        <ele>1164</ele>
        <time>2011-08-10T14:08:16Z</time>
      </trkpt>
      <trkpt lat="45.2724" lon="5.76617">
        <ele>1161</ele>
        <time>2011-08-10T14:08:19Z</time>
      </trkpt>
      <trkpt lat="45.2723" lon="5.7665">
        <ele>1163</ele>
        <time>2011-08-10T14:08:22Z</time>
      </trkpt>
      <trkpt lat="45.27197" lon="5.76691">
        <ele>1162</ele>
        <time>2011-08-10T14:08:27Z</time>
      </trkpt>
      <trkpt lat="45.2718" lon="5.76706">
        <ele>1160</ele>
        <time>2011-08-10T14:08:29Z</time>
      </trkpt>
      <trkpt lat="45.2716" lon="5.76764">
        <ele>1146</ele>
        <time>2011-08-10T14:08:33Z</time>
      </trkpt>
      <trkpt lat="45.27111" lon="5.76936">
        <ele>1143</ele>
        <time>2011-08-10T14:08:44Z</time>
      </trkpt>
      <trkpt lat="45.27106" lon="5.76985">
        <ele>1144</ele>
        <time>2011-08-10T14:08:47Z</time>
      </trkpt>
      <trkpt lat="45.27081" lon="5.77016">
        <ele>1136</ele>
        <time>2011-08-10T14:08:51Z</time>
      </trkpt>
      <trkpt lat="45.26959" lon="5.77071">
        <ele>1118</ele>
        <time>2011-08-10T14:09:04Z</time>
      </trkpt>
      <trkpt lat="45.26848" lon="5.77133">
        <ele>1117</ele>
        <time>2011-08-10T14:09:15Z</time>
      </trkpt>
      <trkpt lat="45.26791" lon="5.77168">
        <ele>1112</ele>
        <time>2011-08-10T14:09:23Z</time>
      </trkpt>
      <trkpt lat="45.26746" lon="5.77197">
        <ele>1099</ele>
        <time>2011-08-10T14:09:29Z</time>
      </trkpt>
      <trkpt lat="45.26712" lon="5.77226">
        <ele>1098</ele>
        <time>2011-08-10T14:09:33Z</time>
      </trkpt>
      <trkpt lat="45.26689" lon="5.77256">
        <ele>1103</ele>
        <time>2011-08-10T14:09:36Z</time>
      </trkpt>
      <trkpt lat="45.26639" lon="5.7728">
        <ele>1092</ele>
        <time>2011-08-10T14:09:41Z</time>
      </trkpt>
      <trkpt lat="45.26583" lon="5.77289">
        <ele>1088</ele>
        <time>2011-08-10T14:09:46Z</time>
      </trkpt>
      <trkpt lat="45.26552" lon="5.77306">
        <ele>1079</ele>
        <time>2011-08-10T14:09:49Z</time>
      </trkpt>
      <trkpt lat="45.2646" lon="5.77417">
        <ele>1071</ele>
        <time>2011-08-10T14:09:59Z</time>
      </trkpt>
      <trkpt lat="45.26455" lon="5.77479">
        <ele>1068</ele>
        <time>2011-08-10T14:10:04Z</time>
      </trkpt>
      <trkpt lat="45.2647" lon="5.77491">
        <ele>1069</ele>
        <time>2011-08-10T14:10:06Z</time>
      </trkpt>
      <trkpt lat="45.2649" lon="5.77499">
        <ele>1071</ele>
        <time>2011-08-10T14:10:08Z</time>
      </trkpt>
      <trkpt lat="45.26516" lon="5.7754">
        <ele>1072</ele>
        <time>2011-08-10T14:10:12Z</time>
      </trkpt>
      <trkpt lat="45.26544" lon="5.77578">
        <ele>1073</ele>
        <time>2011-08-10T14:10:16Z</time>
      </trkpt>
      <trkpt lat="45.26551" lon="5.77646">
        <ele>1068</ele>
        <time>2011-08-10T14:10:21Z</time>
      </trkpt>
      <trkpt lat="45.26541" lon="5.7769">
        <ele>1065</ele>
        <time>2011-08-10T14:10:24Z</time>
      </trkpt>
      <trkpt lat="45.26498" lon="5.77743">
        <ele>1054</ele>
        <time>2011-08-10T14:10:30Z</time>
      </trkpt>
      <trkpt lat="45.26488" lon="5.77746">
        <ele>1053</ele>
        <time>2011-08-10T14:10:31Z</time>
      </trkpt>
      <trkpt lat="45.26269" lon="5.77782">
        <ele>1034</ele>
        <time>2011-08-10T14:10:50Z</time>
      </trkpt>
      <trkpt lat="45.2621" lon="5.7779">
        <ele>1027</ele>
        <time>2011-08-10T14:10:55Z</time>
      </trkpt>
      <trkpt lat="45.26163" lon="5.77774">
        <ele>1020</ele>
        <time>2011-08-10T14:11:00Z</time>
      </trkpt>
      <trkpt lat="45.26121" lon="5.77742">
        <ele>1018</ele>
        <time>2011-08-10T14:11:05Z</time>
      </trkpt>
      <trkpt lat="45.26036" lon="5.7773">
        <ele>1012</ele>
        <time>2011-08-10T14:11:15Z</time>
      </trkpt>
      <trkpt lat="45.26024" lon="5.77732">
        <ele>1011</ele>
        <time>2011-08-10T14:11:17Z</time>
      </trkpt>
      <trkpt lat="45.26002" lon="5.77722">
        <ele>1010</ele>
        <time>2011-08-10T14:11:21Z</time>
      </trkpt>
      <trkpt lat="45.25976" lon="5.77723">
        <ele>1005</ele>
        <time>2011-08-10T14:11:26Z</time>
      </trkpt>
      <trkpt lat="45.25942" lon="5.77707">
        <ele>1004</ele>
        <time>2011-08-10T14:11:31Z</time>
      </trkpt>
      <trkpt lat="45.25903" lon="5.77676">
        <ele>998</ele>
        <time>2011-08-10T14:11:36Z</time>
      </trkpt>
      <trkpt lat="45.2579" lon="5.77617">
        <ele>988</ele>
        <time>2011-08-10T14:11:48Z</time>
      </trkpt>
      <trkpt lat="45.25636" lon="5.77519">
        <ele>978</ele>
        <time>2011-08-10T14:12:03Z</time>
      </trkpt>
      <trkpt lat="45.25579" lon="5.77469">
        <ele>975</ele>
        <time>2011-08-10T14:12:09Z</time>
      </trkpt>
      <trkpt lat="45.2552" lon="5.77346">
        <ele>973</ele>
        <time>2011-08-10T14:12:20Z</time>
      </trkpt>
      <trkpt lat="45.25476" lon="5.77198">
        <ele>966</ele>
        <time>2011-08-10T14:12:34Z</time>
      </trkpt>
      <trkpt lat="45.25472" lon="5.77151">
        <ele>963</ele>
        <time>2011-08-10T14:12:39Z</time>
      </trkpt>
      <trkpt lat="45.25445" lon="5.77117">
        <ele>963</ele>
        <time>2011-08-10T14:12:46Z</time>
      </trkpt>
      <trkpt lat="45.25417" lon="5.77098">
        <ele>964</ele>
        <time>2011-08-10T14:12:56Z</time>
      </trkpt>
      <trkpt lat="45.25383" lon="5.77082">
        <ele>967</ele>
        <time>2011-08-10T14:13:07Z</time>
      </trkpt>
      <trkpt lat="45.25337" lon="5.77061">
        <ele>969</ele>
        <time>2011-08-10T14:13:26Z</time>
      </trkpt>
      <trkpt lat="45.25288" lon="5.77041">
        <ele>970</ele>
        <time>2011-08-10T14:13:44Z</time>
      </trkpt>
      <trkpt lat="45.25245" lon="5.77025">
        <ele>972</ele>
        <time>2011-08-10T14:13:59Z</time>
      </trkpt>
      <trkpt lat="45.25208" lon="5.77009">
        <ele>974</ele>
        <time>2011-08-10T14:14:13Z</time>
      </trkpt>
      <trkpt lat="45.25164" lon="5.76986">
        <ele>975</ele>
        <time>2011-08-10T14:14:31Z</time>
      </trkpt>
      <trkpt lat="45.25111" lon="5.76956">
        <ele>976</ele>
        <time>2011-08-10T14:14:50Z</time>
      </trkpt>
      <trkpt lat="45.25068" lon="5.76922">
        <ele>981</ele>
        <time>2011-08-10T14:15:05Z</time>
      </trkpt>
      <trkpt lat="45.25032" lon="5.7688">
        <ele>979</ele>
        <time>2011-08-10T14:15:17Z</time>
      </trkpt>
      <trkpt lat="45.24989" lon="5.76832">
        <ele>976</ele>
        <time>2011-08-10T14:15:33Z</time>
      </trkpt>
      <trkpt lat="45.24959" lon="5.76819">
        <ele>975</ele>
        <time>2011-08-10T14:15:44Z</time>
      </trkpt>
      <trkpt lat="45.24919" lon="5.76819">
        <ele>980</ele>
        <time>2011-08-10T14:16:03Z</time>
      </trkpt>
      <trkpt lat="45.24894" lon="5.76821">
        <ele>984</ele>
        <time>2011-08-10T14:16:17Z</time>
      </trkpt>
      <trkpt lat="45.24876" lon="5.76826">
        <ele>985</ele>
        <time>2011-08-10T14:16:28Z</time>
      </trkpt>
      <trkpt lat="45.24869" lon="5.76832">
        <ele>987</ele>
        <time>2011-08-10T14:16:36Z</time>
      </trkpt>
      <trkpt lat="45.24848" lon="5.76841">
        <ele>1002</ele>
        <time>2011-08-10T14:16:49Z</time>
      </trkpt>
      <trkpt lat="45.24833" lon="5.76847">
        <ele>1004</ele>
        <time>2011-08-10T14:16:59Z</time>
      </trkpt>
      <trkpt lat="45.24807" lon="5.76855">
        <ele>1005</ele>
        <time>2011-08-10T14:17:11Z</time>
      </trkpt>
      <trkpt lat="45.24782" lon="5.76876">
        <ele>1007</ele>
        <time>2011-08-10T14:17:27Z</time>
      </trkpt>
      <trkpt lat="45.24758" lon="5.76904">
        <ele>1011</ele>
        <time>2011-08-10T14:17:45Z</time>
      </trkpt>
      <trkpt lat="45.24746" lon="5.76915">
        <ele>1013</ele>
        <time>2011-08-10T14:17:55Z</time>
      </trkpt>
      <trkpt lat="45.24722" lon="5.76931">
        <ele>1019</ele>
        <time>2011-08-10T14:18:10Z</time>
      </trkpt>
      <trkpt lat="45.24712" lon="5.76937">
        <ele>1020</ele>
        <time>2011-08-10T14:18:16Z</time>
      </trkpt>
      <trkpt lat="45.2469" lon="5.76954">
        <ele>1021</ele>
        <time>2011-08-10T14:18:31Z</time>
      </trkpt>
      <trkpt lat="45.24661" lon="5.76975">
        <ele>1026</ele>
        <time>2011-08-10T14:18:50Z</time>
      </trkpt>
      <trkpt lat="45.24622" lon="5.76981">
        <ele>1028</ele>
        <time>2011-08-10T14:19:11Z</time>
      </trkpt>
      <trkpt lat="45.24573" lon="5.76979">
        <ele>1040</ele>
        <time>2011-08-10T14:19:39Z</time>
      </trkpt>
      <trkpt lat="45.24541" lon="5.76961">
        <ele>1041</ele>
        <time>2011-08-10T14:19:58Z</time>
      </trkpt>
      <trkpt lat="45.24538" lon="5.76958">
        <ele>1042</ele>
        <time>2011-08-10T14:20:00Z</time>
      </trkpt>
      <trkpt lat="45.24521" lon="5.76944">
        <ele>1043</ele>
        <time>2011-08-10T14:20:09Z</time>
      </trkpt>
      <trkpt lat="45.24519" lon="5.76942">
        <ele>1043</ele>
        <time>2011-08-10T14:20:11Z</time>
      </trkpt>
      <trkpt lat="45.24496" lon="5.76925">
        <ele>1053</ele>
        <time>2011-08-10T14:20:26Z</time>
      </trkpt>
      <trkpt lat="45.24484" lon="5.76909">
        <ele>1050</ele>
        <time>2011-08-10T14:20:35Z</time>
      </trkpt>
      <trkpt lat="45.24462" lon="5.76886">
        <ele>1051</ele>
        <time>2011-08-10T14:20:49Z</time>
      </trkpt>
      <trkpt lat="45.24426" lon="5.76856">
        <ele>1054</ele>
        <time>2011-08-10T14:21:06Z</time>
      </trkpt>
      <trkpt lat="45.24378" lon="5.76849">
        <ele>1070</ele>
        <time>2011-08-10T14:21:21Z</time>
      </trkpt>
      <trkpt lat="45.24348" lon="5.76835">
        <ele>1072</ele>
        <time>2011-08-10T14:21:38Z</time>
      </trkpt>
      <trkpt lat="45.24326" lon="5.7681">
        <ele>1078</ele>
        <time>2011-08-10T14:21:50Z</time>
      </trkpt>
      <trkpt lat="45.24298" lon="5.76783">
        <ele>1081</ele>
        <time>2011-08-10T14:22:06Z</time>
      </trkpt>
      <trkpt lat="45.24296" lon="5.76778">
        <ele>1081</ele>
        <time>2011-08-10T14:22:10Z</time>
      </trkpt>
      <trkpt lat="45.24293" lon="5.76775">
        <ele>1082</ele>
        <time>2011-08-10T14:22:13Z</time>
      </trkpt>
      <trkpt lat="45.2427" lon="5.76751">
        <ele>1085</ele>
        <time>2011-08-10T14:22:25Z</time>
      </trkpt>
      <trkpt lat="45.24264" lon="5.7674">
        <ele>1081</ele>
        <time>2011-08-10T14:22:31Z</time>
      </trkpt>
      <trkpt lat="45.24248" lon="5.76732">
        <ele>1093</ele>
        <time>2011-08-10T14:22:42Z</time>
      </trkpt>
      <trkpt lat="45.24243" lon="5.76728">
        <ele>1094</ele>
        <time>2011-08-10T14:22:56Z</time>
      </trkpt>
      <trkpt lat="45.24234" lon="5.76717">
        <ele>1095</ele>
        <time>2011-08-10T14:23:08Z</time>
      </trkpt>
      <trkpt lat="45.24227" lon="5.76702">
        <ele>1095</ele>
        <time>2011-08-10T14:23:23Z</time>
      </trkpt>
      <trkpt lat="45.2422" lon="5.76691">
        <ele>1095</ele>
        <time>2011-08-10T14:23:32Z</time>
      </trkpt>
      <trkpt lat="45.24215" lon="5.76678">
        <ele>1095</ele>
        <time>2011-08-10T14:23:40Z</time>
      </trkpt>
      <trkpt lat="45.24214" lon="5.76673">
        <ele>1095</ele>
        <time>2011-08-10T14:23:43Z</time>
      </trkpt>
      <trkpt lat="45.24213" lon="5.76671">
        <ele>1095</ele>
        <time>2011-08-10T14:23:45Z</time>
      </trkpt>
      <trkpt lat="45.24211" lon="5.76666">
        <ele>1090</ele>
        <time>2011-08-10T14:23:48Z</time>
      </trkpt>
      <trkpt lat="45.24211" lon="5.76659">
        <ele>1090</ele>
        <time>2011-08-10T14:23:53Z</time>
      </trkpt>
      <trkpt lat="45.24211" lon="5.76652">
        <ele>1089</ele>
        <time>2011-08-10T14:23:57Z</time>
      </trkpt>
      <trkpt lat="45.2422" lon="5.76604">
        <ele>1087</ele>
        <time>2011-08-10T14:24:14Z</time>
      </trkpt>
      <trkpt lat="45.24214" lon="5.76579">
        <ele>1084</ele>
        <time>2011-08-10T14:24:26Z</time>
      </trkpt>
      <trkpt lat="45.24213" lon="5.76576">
        <ele>1084</ele>
        <time>2011-08-10T14:24:27Z</time>
      </trkpt>
      <trkpt lat="45.24203" lon="5.76537">
        <ele>1085</ele>
        <time>2011-08-10T14:24:42Z</time>
      </trkpt>
      <trkpt lat="45.24197" lon="5.76531">
        <ele>1086</ele>
        <time>2011-08-10T14:24:45Z</time>
      </trkpt>
      <trkpt lat="45.24199" lon="5.7649">
        <ele>1083</ele>
        <time>2011-08-10T14:25:00Z</time>
      </trkpt>
      <trkpt lat="45.24203" lon="5.76473">
        <ele>1081</ele>
        <time>2011-08-10T14:25:07Z</time>
      </trkpt>
      <trkpt lat="45.24215" lon="5.76415">
        <ele>1071</ele>
        <time>2011-08-10T14:25:22Z</time>
      </trkpt>
      <trkpt lat="45.24215" lon="5.76412">
        <ele>1071</ele>
        <time>2011-08-10T14:25:23Z</time>
      </trkpt>
      <trkpt lat="45.24218" lon="5.76376">
        <ele>1069</ele>
        <time>2011-08-10T14:25:36Z</time>
      </trkpt>
      <trkpt lat="45.24227" lon="5.76343">
        <ele>1062</ele>
        <time>2011-08-10T14:25:48Z</time>
      </trkpt>
      <trkpt lat="45.24223" lon="5.76343">
        <ele>1064</ele>
        <time>2011-08-10T14:25:52Z</time>
      </trkpt>
      <trkpt lat="45.24218" lon="5.76352">
        <ele>1068</ele>
        <time>2011-08-10T14:25:58Z</time>
      </trkpt>
      <trkpt lat="45.24217" lon="5.76359">
        <ele>1069</ele>
        <time>2011-08-10T14:26:01Z</time>
      </trkpt>
      <trkpt lat="45.24213" lon="5.76372">
        <ele>1071</ele>
        <time>2011-08-10T14:26:12Z</time>
      </trkpt>
      <trkpt lat="45.24207" lon="5.76376">
        <ele>1073</ele>
        <time>2011-08-10T14:26:16Z</time>
      </trkpt>
      <trkpt lat="45.24205" lon="5.76389">
        <ele>1074</ele>
        <time>2011-08-10T14:26:28Z</time>
      </trkpt>
      <trkpt lat="45.24196" lon="5.76395">
        <ele>1078</ele>
        <time>2011-08-10T14:26:43Z</time>
      </trkpt>
      <trkpt lat="45.24196" lon="5.76414">
        <ele>1079</ele>
        <time>2011-08-10T14:26:56Z</time>
      </trkpt>
      <trkpt lat="45.24195" lon="5.76445">
        <ele>1082</ele>
        <time>2011-08-10T14:27:15Z</time>
      </trkpt>
      <trkpt lat="45.2419" lon="5.76453">
        <ele>1083</ele>
        <time>2011-08-10T14:27:21Z</time>
      </trkpt>
      <trkpt lat="45.24189" lon="5.76459">
        <ele>1083</ele>
        <time>2011-08-10T14:27:27Z</time>
      </trkpt>
      <trkpt lat="45.24188" lon="5.76469">
        <ele>1084</ele>
        <time>2011-08-10T14:27:33Z</time>
      </trkpt>
      <trkpt lat="45.24185" lon="5.76476">
        <ele>1085</ele>
        <time>2011-08-10T14:27:38Z</time>
      </trkpt>
      <trkpt lat="45.24176" lon="5.76493">
        <ele>1092</ele>
        <time>2011-08-10T14:27:51Z</time>
      </trkpt>
      <trkpt lat="45.24169" lon="5.76504">
        <ele>1097</ele>
        <time>2011-08-10T14:28:00Z</time>
      </trkpt>
      <trkpt lat="45.24167" lon="5.7651">
        <ele>1095</ele>
        <time>2011-08-10T14:28:05Z</time>
      </trkpt>
      <trkpt lat="45.24165" lon="5.76511">
        <ele>1105</ele>
        <time>2011-08-10T14:28:07Z</time>
      </trkpt>
      <trkpt lat="45.24154" lon="5.76517">
        <ele>1108</ele>
        <time>2011-08-10T14:28:23Z</time>
      </trkpt>
      <trkpt lat="45.24153" lon="5.76524">
        <ele>1109</ele>
        <time>2011-08-10T14:28:27Z</time>
      </trkpt>
      <trkpt lat="45.2415" lon="5.76544">
        <ele>1110</ele>
        <time>2011-08-10T14:28:40Z</time>
      </trkpt>
      <trkpt lat="45.24139" lon="5.76544">
        <ele>1112</ele>
        <time>2011-08-10T14:28:58Z</time>
      </trkpt>
      <trkpt lat="45.24128" lon="5.7654">
        <ele>1114</ele>
        <time>2011-08-10T14:31:40Z</time>
      </trkpt>
      <trkpt lat="45.24126" lon="5.76547">
        <ele>1114</ele>
        <time>2011-08-10T14:31:48Z</time>
      </trkpt>
      <trkpt lat="45.24125" lon="5.76559">
        <ele>1115</ele>
        <time>2011-08-10T14:31:56Z</time>
      </trkpt>
      <trkpt lat="45.24129" lon="5.76568">
        <ele>1114</ele>
        <time>2011-08-10T14:32:03Z</time>
      </trkpt>
      <trkpt lat="45.24137" lon="5.76603">
        <ele>1114</ele>
        <time>2011-08-10T14:32:28Z</time>
      </trkpt>
      <trkpt lat="45.24136" lon="5.76617">
        <ele>1115</ele>
        <time>2011-08-10T14:32:37Z</time>
      </trkpt>
      <trkpt lat="45.24134" lon="5.76627">
        <ele>1116</ele>
        <time>2011-08-10T14:32:41Z</time>
      </trkpt>
      <trkpt lat="45.24135" lon="5.76637">
        <ele>1116</ele>
        <time>2011-08-10T14:32:45Z</time>
      </trkpt>
      <trkpt lat="45.2413" lon="5.76661">
        <ele>1117</ele>
        <time>2011-08-10T14:32:56Z</time>
      </trkpt>
      <trkpt lat="45.24128" lon="5.76665">
        <ele>1117</ele>
        <time>2011-08-10T14:32:59Z</time>
      </trkpt>
      <trkpt lat="45.24113" lon="5.76718">
        <ele>1131</ele>
        <time>2011-08-10T14:33:23Z</time>
      </trkpt>
      <trkpt lat="45.24118" lon="5.76761">
        <ele>1140</ele>
        <time>2011-08-10T14:33:42Z</time>
      </trkpt>
      <trkpt lat="45.2412" lon="5.76771">
        <ele>1140</ele>
        <time>2011-08-10T14:33:46Z</time>
      </trkpt>
      <trkpt lat="45.24119" lon="5.76776">
        <ele>1141</ele>
        <time>2011-08-10T14:33:48Z</time>
      </trkpt>
      <trkpt lat="45.24118" lon="5.76785">
        <ele>1141</ele>
        <time>2011-08-10T14:33:52Z</time>
      </trkpt>
      <trkpt lat="45.24115" lon="5.76824">
        <ele>1145</ele>
        <time>2011-08-10T14:34:10Z</time>
      </trkpt>
      <trkpt lat="45.24113" lon="5.76852">
        <ele>1153</ele>
        <time>2011-08-10T14:34:23Z</time>
      </trkpt>
      <trkpt lat="45.24113" lon="5.76859">
        <ele>1153</ele>
        <time>2011-08-10T14:34:27Z</time>
      </trkpt>
      <trkpt lat="45.24115" lon="5.76902">
        <ele>1156</ele>
        <time>2011-08-10T14:34:48Z</time>
      </trkpt>
      <trkpt lat="45.24108" lon="5.76902">
        <ele>1158</ele>
        <time>2011-08-10T14:34:53Z</time>
      </trkpt>
      <trkpt lat="45.24105" lon="5.76897">
        <ele>1158</ele>
        <time>2011-08-10T14:34:56Z</time>
      </trkpt>
      <trkpt lat="45.24103" lon="5.76892">
        <ele>1157</ele>
        <time>2011-08-10T14:34:58Z</time>
      </trkpt>
      <trkpt lat="45.24094" lon="5.76871">
        <ele>1156</ele>
        <time>2011-08-10T14:35:13Z</time>
      </trkpt>
      <trkpt lat="45.24092" lon="5.7687">
        <ele>1156</ele>
        <time>2011-08-10T14:35:37Z</time>
      </trkpt>
      <trkpt lat="45.24085" lon="5.76863">
        <ele>1156</ele>
        <time>2011-08-10T14:41:23Z</time>
      </trkpt>
      <trkpt lat="45.24084" lon="5.76862">
        <ele>1156</ele>
        <time>2011-08-10T14:41:24Z</time>
      </trkpt>
      <trkpt lat="45.24068" lon="5.76839">
        <ele>1168</ele>
        <time>2011-08-10T14:41:38Z</time>
      </trkpt>
      <trkpt lat="45.24051" lon="5.76813">
        <ele>1165</ele>
        <time>2011-08-10T14:41:52Z</time>
      </trkpt>
      <trkpt lat="45.24035" lon="5.76782">
        <ele>1166</ele>
        <time>2011-08-10T14:42:09Z</time>
      </trkpt>
      <trkpt lat="45.24029" lon="5.76771">
        <ele>1166</ele>
        <time>2011-08-10T14:42:15Z</time>
      </trkpt>
      <trkpt lat="45.24026" lon="5.76751">
        <ele>1166</ele>
        <time>2011-08-10T14:42:24Z</time>
      </trkpt>
      <trkpt lat="45.24014" lon="5.76725">
        <ele>1161</ele>
        <time>2011-08-10T14:42:39Z</time>
      </trkpt>
      <trkpt lat="45.24003" lon="5.76705">
        <ele>1160</ele>
        <time>2011-08-10T14:42:51Z</time>
      </trkpt>
      <trkpt lat="45.23988" lon="5.76675">
        <ele>1172</ele>
        <time>2011-08-10T14:43:07Z</time>
      </trkpt>
      <trkpt lat="45.23976" lon="5.76649">
        <ele>1174</ele>
        <time>2011-08-10T14:43:21Z</time>
      </trkpt>
      <trkpt lat="45.23962" lon="5.76617">
        <ele>1177</ele>
        <time>2011-08-10T14:43:36Z</time>
      </trkpt>
      <trkpt lat="45.23948" lon="5.76583">
        <ele>1182</ele>
        <time>2011-08-10T14:43:52Z</time>
      </trkpt>
      <trkpt lat="45.23945" lon="5.76574">
        <ele>1183</ele>
        <time>2011-08-10T14:43:56Z</time>
      </trkpt>
      <trkpt lat="45.23944" lon="5.76564">
        <ele>1183</ele>
        <time>2011-08-10T14:44:00Z</time>
      </trkpt>
      <trkpt lat="45.23931" lon="5.76521">
        <ele>1189</ele>
        <time>2011-08-10T14:44:21Z</time>
      </trkpt>
      <trkpt lat="45.23929" lon="5.76516">
        <ele>1190</ele>
        <time>2011-08-10T14:44:24Z</time>
      </trkpt>
      <trkpt lat="45.23913" lon="5.76475">
        <ele>1210</ele>
        <time>2011-08-10T14:44:42Z</time>
      </trkpt>
      <trkpt lat="45.23907" lon="5.76439">
        <ele>1212</ele>
        <time>2011-08-10T14:44:57Z</time>
      </trkpt>
      <trkpt lat="45.23904" lon="5.76409">
        <ele>1215</ele>
        <time>2011-08-10T14:45:10Z</time>
      </trkpt>
      <trkpt lat="45.239" lon="5.76396">
        <ele>1218</ele>
        <time>2011-08-10T14:45:16Z</time>
      </trkpt>
      <trkpt lat="45.23899" lon="5.7639">
        <ele>1218</ele>
        <time>2011-08-10T14:45:18Z</time>
      </trkpt>
      <trkpt lat="45.23884" lon="5.76357">
        <ele>1222</ele>
        <time>2011-08-10T14:45:32Z</time>
      </trkpt>
      <trkpt lat="45.23886" lon="5.76347">
        <ele>1222</ele>
        <time>2011-08-10T14:45:36Z</time>
      </trkpt>
      <trkpt lat="45.23886" lon="5.76313">
        <ele>1228</ele>
        <time>2011-08-10T14:45:50Z</time>
      </trkpt>
      <trkpt lat="45.23886" lon="5.76303">
        <ele>1229</ele>
        <time>2011-08-10T14:45:54Z</time>
      </trkpt>
      <trkpt lat="45.23894" lon="5.76278">
        <ele>1230</ele>
        <time>2011-08-10T14:46:04Z</time>
      </trkpt>
      <trkpt lat="45.23894" lon="5.76276">
        <ele>1230</ele>
        <time>2011-08-10T14:46:06Z</time>
      </trkpt>
      <trkpt lat="45.23903" lon="5.76254">
        <ele>1229</ele>
        <time>2011-08-10T14:46:16Z</time>
      </trkpt>
      <trkpt lat="45.23905" lon="5.76244">
        <ele>1233</ele>
        <time>2011-08-10T14:46:21Z</time>
      </trkpt>
      <trkpt lat="45.23892" lon="5.76237">
        <ele>1237</ele>
        <time>2011-08-10T14:46:30Z</time>
      </trkpt>
      <trkpt lat="45.23889" lon="5.76242">
        <ele>1238</ele>
        <time>2011-08-10T14:46:32Z</time>
      </trkpt>
      <trkpt lat="45.23871" lon="5.7627">
        <ele>1233</ele>
        <time>2011-08-10T14:46:49Z</time>
      </trkpt>
      <trkpt lat="45.23857" lon="5.76291">
        <ele>1233</ele>
        <time>2011-08-10T14:47:00Z</time>
      </trkpt>
      <trkpt lat="45.23856" lon="5.76292">
        <ele>1233</ele>
        <time>2011-08-10T14:47:01Z</time>
      </trkpt>
      <trkpt lat="45.23851" lon="5.76302">
        <ele>1233</ele>
        <time>2011-08-10T14:47:07Z</time>
      </trkpt>
      <trkpt lat="45.2384" lon="5.76315">
        <ele>1234</ele>
        <time>2011-08-10T14:47:17Z</time>
      </trkpt>
      <trkpt lat="45.23827" lon="5.76338">
        <ele>1238</ele>
        <time>2011-08-10T14:47:31Z</time>
      </trkpt>
      <trkpt lat="45.23824" lon="5.7634">
        <ele>1239</ele>
        <time>2011-08-10T14:47:33Z</time>
      </trkpt>
      <trkpt lat="45.23822" lon="5.76343">
        <ele>1239</ele>
        <time>2011-08-10T14:47:35Z</time>
      </trkpt>
      <trkpt lat="45.23815" lon="5.76359">
        <ele>1241</ele>
        <time>2011-08-10T14:47:42Z</time>
      </trkpt>
      <trkpt lat="45.23813" lon="5.76363">
        <ele>1241</ele>
        <time>2011-08-10T14:47:44Z</time>
      </trkpt>
      <trkpt lat="45.23806" lon="5.76407">
        <ele>1239</ele>
        <time>2011-08-10T14:48:02Z</time>
      </trkpt>
      <trkpt lat="45.23796" lon="5.76435">
        <ele>1238</ele>
        <time>2011-08-10T14:48:14Z</time>
      </trkpt>
      <trkpt lat="45.23789" lon="5.76474">
        <ele>1239</ele>
        <time>2011-08-10T14:48:26Z</time>
      </trkpt>
      <trkpt lat="45.23793" lon="5.76482">
        <ele>1238</ele>
        <time>2011-08-10T14:48:29Z</time>
      </trkpt>
      <trkpt lat="45.23795" lon="5.76497">
        <ele>1238</ele>
        <time>2011-08-10T14:48:34Z</time>
      </trkpt>
      <trkpt lat="45.23789" lon="5.76497">
        <ele>1239</ele>
        <time>2011-08-10T14:48:39Z</time>
      </trkpt>
      <trkpt lat="45.23768" lon="5.76466">
        <ele>1242</ele>
        <time>2011-08-10T14:48:56Z</time>
      </trkpt>
      <trkpt lat="45.23763" lon="5.76459">
        <ele>1242</ele>
        <time>2011-08-10T14:49:00Z</time>
      </trkpt>
      <trkpt lat="45.23751" lon="5.76406">
        <ele>1248</ele>
        <time>2011-08-10T14:49:22Z</time>
      </trkpt>
      <trkpt lat="45.23736" lon="5.7636">
        <ele>1264</ele>
        <time>2011-08-10T14:49:42Z</time>
      </trkpt>
      <trkpt lat="45.23726" lon="5.76314">
        <ele>1275</ele>
        <time>2011-08-10T14:50:00Z</time>
      </trkpt>
      <trkpt lat="45.23725" lon="5.76302">
        <ele>1277</ele>
        <time>2011-08-10T14:50:05Z</time>
      </trkpt>
      <trkpt lat="45.23726" lon="5.76285">
        <ele>1280</ele>
        <time>2011-08-10T14:50:11Z</time>
      </trkpt>
      <trkpt lat="45.23737" lon="5.76241">
        <ele>1289</ele>
        <time>2011-08-10T14:50:28Z</time>
      </trkpt>
      <trkpt lat="45.23736" lon="5.76226">
        <ele>1294</ele>
        <time>2011-08-10T14:50:33Z</time>
      </trkpt>
      <trkpt lat="45.23729" lon="5.76226">
        <ele>1295</ele>
        <time>2011-08-10T14:50:38Z</time>
      </trkpt>
      <trkpt lat="45.23718" lon="5.76234">
        <ele>1297</ele>
        <time>2011-08-10T14:50:52Z</time>
      </trkpt>
      <trkpt lat="45.23715" lon="5.76237">
        <ele>1297</ele>
        <time>2011-08-10T14:50:56Z</time>
      </trkpt>
      <trkpt lat="45.23685" lon="5.76272">
        <ele>1289</ele>
        <time>2011-08-10T14:51:16Z</time>
      </trkpt>
      <trkpt lat="45.23667" lon="5.76319">
        <ele>1285</ele>
        <time>2011-08-10T14:51:36Z</time>
      </trkpt>
      <trkpt lat="45.23659" lon="5.76366">
        <ele>1290</ele>
        <time>2011-08-10T14:51:55Z</time>
      </trkpt>
      <trkpt lat="45.23662" lon="5.76406">
        <ele>1285</ele>
        <time>2011-08-10T14:52:09Z</time>
      </trkpt>
      <trkpt lat="45.23652" lon="5.76423">
        <ele>1286</ele>
        <time>2011-08-10T14:52:14Z</time>
      </trkpt>
      <trkpt lat="45.23652" lon="5.76433">
        <ele>1287</ele>
        <time>2011-08-10T14:52:18Z</time>
      </trkpt>
      <trkpt lat="45.2364" lon="5.76471">
        <ele>1290</ele>
        <time>2011-08-10T14:52:33Z</time>
      </trkpt>
      <trkpt lat="45.23635" lon="5.76485">
        <ele>1291</ele>
        <time>2011-08-10T14:52:38Z</time>
      </trkpt>
      <trkpt lat="45.23629" lon="5.76483">
        <ele>1292</ele>
        <time>2011-08-10T14:52:42Z</time>
      </trkpt>
      <trkpt lat="45.23623" lon="5.76467">
        <ele>1292</ele>
        <time>2011-08-10T14:52:51Z</time>
      </trkpt>
      <trkpt lat="45.23614" lon="5.76446">
        <ele>1293</ele>
        <time>2011-08-10T14:53:03Z</time>
      </trkpt>
      <trkpt lat="45.23592" lon="5.76404">
        <ele>1298</ele>
        <time>2011-08-10T14:53:17Z</time>
      </trkpt>
      <trkpt lat="45.23575" lon="5.76347">
        <ele>1303</ele>
        <time>2011-08-10T14:53:35Z</time>
      </trkpt>
      <trkpt lat="45.23564" lon="5.76311">
        <ele>1309</ele>
        <time>2011-08-10T14:53:50Z</time>
      </trkpt>
      <trkpt lat="45.23564" lon="5.76309">
        <ele>1309</ele>
        <time>2011-08-10T14:53:51Z</time>
      </trkpt>
      <trkpt lat="45.23567" lon="5.76279">
        <ele>1313</ele>
        <time>2011-08-10T14:54:02Z</time>
      </trkpt>
      <trkpt lat="45.23555" lon="5.7623">
        <ele>1322</ele>
        <time>2011-08-10T14:54:18Z</time>
      </trkpt>
      <trkpt lat="45.23551" lon="5.76222">
        <ele>1323</ele>
        <time>2011-08-10T14:54:29Z</time>
      </trkpt>
      <trkpt lat="45.23547" lon="5.76219">
        <ele>1323</ele>
        <time>2011-08-10T14:54:56Z</time>
      </trkpt>
      <trkpt lat="45.23546" lon="5.76215">
        <ele>1323</ele>
        <time>2011-08-10T14:55:25Z</time>
      </trkpt>
      <trkpt lat="45.23543" lon="5.76205">
        <ele>1323</ele>
        <time>2011-08-10T14:57:28Z</time>
      </trkpt>
      <trkpt lat="45.23541" lon="5.76198">
        <ele>1323</ele>
        <time>2011-08-10T14:57:54Z</time>
      </trkpt>
      <trkpt lat="45.2349" lon="5.76197">
        <ele>1310</ele>
        <time>2011-08-10T15:05:16Z</time>
      </trkpt>
      <trkpt lat="45.23493" lon="5.76201">
        <ele>1310</ele>
        <time>2011-08-10T15:05:22Z</time>
      </trkpt>
      <trkpt lat="45.23492" lon="5.76286">
        <ele>1295</ele>
        <time>2011-08-10T15:05:40Z</time>
      </trkpt>
      <trkpt lat="45.2349" lon="5.76305">
        <ele>1292</ele>
        <time>2011-08-10T15:05:46Z</time>
      </trkpt>
      <trkpt lat="45.23472" lon="5.76312">
        <ele>1285</ele>
        <time>2011-08-10T15:06:00Z</time>
      </trkpt>
      <trkpt lat="45.23477" lon="5.76312">
        <ele>1288</ele>
        <time>2011-08-10T15:06:10Z</time>
      </trkpt>
      <trkpt lat="45.23485" lon="5.76318">
        <ele>1292</ele>
        <time>2011-08-10T15:06:18Z</time>
      </trkpt>
      <trkpt lat="45.23488" lon="5.76321">
        <ele>1294</ele>
        <time>2011-08-10T15:06:23Z</time>
      </trkpt>
      <trkpt lat="45.23493" lon="5.76324">
        <ele>1297</ele>
        <time>2011-08-10T15:06:28Z</time>
      </trkpt>
      <trkpt lat="45.23504" lon="5.76312">
        <ele>1310</ele>
        <time>2011-08-10T15:06:40Z</time>
      </trkpt>
      <trkpt lat="45.23506" lon="5.76308">
        <ele>1310</ele>
        <time>2011-08-10T15:06:55Z</time>
      </trkpt>
      <trkpt lat="45.23509" lon="5.76312">
        <ele>1310</ele>
        <time>2011-08-10T15:07:06Z</time>
      </trkpt>
      <trkpt lat="45.23533" lon="5.76327">
        <ele>1310</ele>
        <time>2011-08-10T15:07:16Z</time>
      </trkpt>
      <trkpt lat="45.23493" lon="5.76365">
        <ele>1260</ele>
        <time>2011-08-10T15:07:34Z</time>
      </trkpt>
      <trkpt lat="45.23503" lon="5.76412">
        <ele>1302</ele>
        <time>2011-08-10T15:07:47Z</time>
      </trkpt>
      <trkpt lat="45.23516" lon="5.76445">
        <ele>1302</ele>
        <time>2011-08-10T15:08:00Z</time>
      </trkpt>
      <trkpt lat="45.23536" lon="5.76499">
        <ele>1302</ele>
        <time>2011-08-10T15:08:13Z</time>
      </trkpt>
      <trkpt lat="45.2354" lon="5.76547">
        <ele>1303</ele>
        <time>2011-08-10T15:08:22Z</time>
      </trkpt>
      <trkpt lat="45.23541" lon="5.76561">
        <ele>1304</ele>
        <time>2011-08-10T15:08:32Z</time>
      </trkpt>
      <trkpt lat="45.2354" lon="5.76562">
        <ele>1304</ele>
        <time>2011-08-10T15:09:10Z</time>
      </trkpt>
      <trkpt lat="45.2354" lon="5.76562">
        <ele>1304</ele>
        <time>2011-08-10T15:09:48Z</time>
      </trkpt>
      <trkpt lat="45.23539" lon="5.76558">
        <ele>1304</ele>
        <time>2011-08-10T15:09:58Z</time>
      </trkpt>
      <trkpt lat="45.23539" lon="5.7656">
        <ele>1304</ele>
        <time>2011-08-10T15:10:27Z</time>
      </trkpt>
      <trkpt lat="45.23537" lon="5.7656">
        <ele>1304</ele>
        <time>2011-08-10T15:10:42Z</time>
      </trkpt>
      <trkpt lat="45.23535" lon="5.76564">
        <ele>1304</ele>
        <time>2011-08-10T15:11:10Z</time>
      </trkpt>
      <trkpt lat="45.23534" lon="5.76565">
        <ele>1304</ele>
        <time>2011-08-10T15:11:12Z</time>
      </trkpt>
      <trkpt lat="45.23524" lon="5.76561">
        <ele>1304</ele>
        <time>2011-08-10T15:11:28Z</time>
      </trkpt>
      <trkpt lat="45.23522" lon="5.76555">
        <ele>1304</ele>
        <time>2011-08-10T15:11:43Z</time>
      </trkpt>
      <trkpt lat="45.23522" lon="5.76553">
        <ele>1304</ele>
        <time>2011-08-10T15:12:04Z</time>
      </trkpt>
      <trkpt lat="45.23523" lon="5.76555">
        <ele>1304</ele>
        <time>2011-08-10T15:12:42Z</time>
      </trkpt>
      <trkpt lat="45.23523" lon="5.76557">
        <ele>1304</ele>
        <time>2011-08-10T15:31:20Z</time>
      </trkpt>
      <trkpt lat="45.23525" lon="5.76557">
        <ele>1304</ele>
        <time>2011-08-10T15:31:23Z</time>
      </trkpt>
      <trkpt lat="45.2354" lon="5.76565">
        <ele>1304</ele>
        <time>2011-08-10T15:31:41Z</time>
      </trkpt>
      <trkpt lat="45.23542" lon="5.76557">
        <ele>1304</ele>
        <time>2011-08-10T15:31:49Z</time>
      </trkpt>
      <trkpt lat="45.23541" lon="5.7655">
        <ele>1303</ele>
        <time>2011-08-10T15:31:52Z</time>
      </trkpt>
      <trkpt lat="45.23533" lon="5.76495">
        <ele>1302</ele>
        <time>2011-08-10T15:32:07Z</time>
      </trkpt>
      <trkpt lat="45.2353" lon="5.76483">
        <ele>1302</ele>
        <time>2011-08-10T15:32:10Z</time>
      </trkpt>
      <trkpt lat="45.23511" lon="5.76443">
        <ele>1302</ele>
        <time>2011-08-10T15:32:24Z</time>
      </trkpt>
      <trkpt lat="45.23499" lon="5.76403">
        <ele>1274</ele>
        <time>2011-08-10T15:32:37Z</time>
      </trkpt>
      <trkpt lat="45.2349" lon="5.76357">
        <ele>1264</ele>
        <time>2011-08-10T15:32:52Z</time>
      </trkpt>
      <trkpt lat="45.2349" lon="5.76342">
        <ele>1277</ele>
        <time>2011-08-10T15:33:00Z</time>
      </trkpt>
      <trkpt lat="45.23476" lon="5.76323">
        <ele>1287</ele>
        <time>2011-08-10T15:33:06Z</time>
      </trkpt>
      <trkpt lat="45.23481" lon="5.76255">
        <ele>1302</ele>
        <time>2011-08-10T15:33:20Z</time>
      </trkpt>
      <trkpt lat="45.23481" lon="5.76251">
        <ele>1303</ele>
        <time>2011-08-10T15:33:31Z</time>
      </trkpt>
      <trkpt lat="45.23478" lon="5.76246">
        <ele>1312</ele>
        <time>2011-08-10T15:33:46Z</time>
      </trkpt>
      <trkpt lat="45.23477" lon="5.76253">
        <ele>1301</ele>
        <time>2011-08-10T16:12:19Z</time>
      </trkpt>
      <trkpt lat="45.23485" lon="5.76296">
        <ele>1292</ele>
        <time>2011-08-10T16:12:32Z</time>
      </trkpt>
      <trkpt lat="45.23487" lon="5.76307">
        <ele>1291</ele>
        <time>2011-08-10T16:12:36Z</time>
      </trkpt>
      <trkpt lat="45.23496" lon="5.76329">
        <ele>1301</ele>
        <time>2011-08-10T16:12:45Z</time>
      </trkpt>
      <trkpt lat="45.23494" lon="5.76383">
        <ele>1258</ele>
        <time>2011-08-10T16:12:59Z</time>
      </trkpt>
      <trkpt lat="45.235" lon="5.76394">
        <ele>1265</ele>
        <time>2011-08-10T16:13:07Z</time>
      </trkpt>
      <trkpt lat="45.235" lon="5.76404">
        <ele>1303</ele>
        <time>2011-08-10T16:13:12Z</time>
      </trkpt>
      <trkpt lat="45.23504" lon="5.76411">
        <ele>1302</ele>
        <time>2011-08-10T16:13:20Z</time>
      </trkpt>
      <trkpt lat="45.2351" lon="5.76439">
        <ele>1302</ele>
        <time>2011-08-10T16:13:28Z</time>
      </trkpt>
      <trkpt lat="45.23516" lon="5.76454">
        <ele>1302</ele>
        <time>2011-08-10T16:13:31Z</time>
      </trkpt>
      <trkpt lat="45.23527" lon="5.76468">
        <ele>1302</ele>
        <time>2011-08-10T16:13:40Z</time>
      </trkpt>
      <trkpt lat="45.23526" lon="5.7647">
        <ele>1302</ele>
        <time>2011-08-10T16:13:55Z</time>
      </trkpt>
      <trkpt lat="45.2353" lon="5.76482">
        <ele>1302</ele>
        <time>2011-08-10T16:13:59Z</time>
      </trkpt>
      <trkpt lat="45.23533" lon="5.76495">
        <ele>1302</ele>
        <time>2011-08-10T16:14:01Z</time>
      </trkpt>
      <trkpt lat="45.23537" lon="5.76528">
        <ele>1303</ele>
        <time>2011-08-10T16:14:05Z</time>
      </trkpt>
      <trkpt lat="45.2355" lon="5.76541">
        <ele>1303</ele>
        <time>2011-08-10T16:14:12Z</time>
      </trkpt>
      <trkpt lat="45.23558" lon="5.76497">
        <ele>1302</ele>
        <time>2011-08-10T16:14:17Z</time>
      </trkpt>
      <trkpt lat="45.23563" lon="5.76408">
        <ele>1303</ele>
        <time>2011-08-10T16:14:26Z</time>
      </trkpt>
      <trkpt lat="45.23562" lon="5.76391">
        <ele>1303</ele>
        <time>2011-08-10T16:14:37Z</time>
      </trkpt>
      <trkpt lat="45.23563" lon="5.76381">
        <ele>1304</ele>
        <time>2011-08-10T16:14:51Z</time>
      </trkpt>
      <trkpt lat="45.23563" lon="5.76369">
        <ele>1304</ele>
        <time>2011-08-10T16:15:07Z</time>
      </trkpt>
      <trkpt lat="45.23566" lon="5.76358">
        <ele>1304</ele>
        <time>2011-08-10T16:15:21Z</time>
      </trkpt>
      <trkpt lat="45.23567" lon="5.76354">
        <ele>1304</ele>
        <time>2011-08-10T16:15:24Z</time>
      </trkpt>
      <trkpt lat="45.23573" lon="5.76344">
        <ele>1303</ele>
        <time>2011-08-10T16:15:38Z</time>
      </trkpt>
      <trkpt lat="45.23573" lon="5.76339">
        <ele>1303</ele>
        <time>2011-08-10T16:15:42Z</time>
      </trkpt>
      <trkpt lat="45.23575" lon="5.76329">
        <ele>1306</ele>
        <time>2011-08-10T16:15:52Z</time>
      </trkpt>
      <trkpt lat="45.23579" lon="5.76327">
        <ele>1305</ele>
        <time>2011-08-10T16:15:54Z</time>
      </trkpt>
      <trkpt lat="45.23586" lon="5.76301">
        <ele>1305</ele>
        <time>2011-08-10T16:16:03Z</time>
      </trkpt>
      <trkpt lat="45.23586" lon="5.76291">
        <ele>1306</ele>
        <time>2011-08-10T16:16:06Z</time>
      </trkpt>
      <trkpt lat="45.23595" lon="5.76263">
        <ele>1311</ele>
        <time>2011-08-10T16:16:18Z</time>
      </trkpt>
      <trkpt lat="45.23598" lon="5.76254">
        <ele>1312</ele>
        <time>2011-08-10T16:16:30Z</time>
      </trkpt>
      <trkpt lat="45.23608" lon="5.76239">
        <ele>1320</ele>
        <time>2011-08-10T16:16:51Z</time>
      </trkpt>
      <trkpt lat="45.23603" lon="5.76243">
        <ele>1319</ele>
        <time>2011-08-10T16:17:03Z</time>
      </trkpt>
      <trkpt lat="45.23603" lon="5.76247">
        <ele>1319</ele>
        <time>2011-08-10T16:17:06Z</time>
      </trkpt>
      <trkpt lat="45.23602" lon="5.76255">
        <ele>1310</ele>
        <time>2011-08-10T16:17:10Z</time>
      </trkpt>
      <trkpt lat="45.236" lon="5.76272">
        <ele>1308</ele>
        <time>2011-08-10T16:17:19Z</time>
      </trkpt>
      <trkpt lat="45.23594" lon="5.76287">
        <ele>1306</ele>
        <time>2011-08-10T16:17:33Z</time>
      </trkpt>
      <trkpt lat="45.23595" lon="5.76291">
        <ele>1306</ele>
        <time>2011-08-10T16:17:34Z</time>
      </trkpt>
      <trkpt lat="45.23593" lon="5.76307">
        <ele>1304</ele>
        <time>2011-08-10T16:17:38Z</time>
      </trkpt>
      <trkpt lat="45.23581" lon="5.76316">
        <ele>1308</ele>
        <time>2011-08-10T16:17:49Z</time>
      </trkpt>
      <trkpt lat="45.23571" lon="5.76313">
        <ele>1309</ele>
        <time>2011-08-10T16:18:05Z</time>
      </trkpt>
      <trkpt lat="45.23567" lon="5.76301">
        <ele>1310</ele>
        <time>2011-08-10T16:18:22Z</time>
      </trkpt>
      <trkpt lat="45.23567" lon="5.76292">
        <ele>1311</ele>
        <time>2011-08-10T16:18:34Z</time>
      </trkpt>
      <trkpt lat="45.23565" lon="5.7629">
        <ele>1312</ele>
        <time>2011-08-10T16:18:36Z</time>
      </trkpt>
      <trkpt lat="45.23563" lon="5.76276">
        <ele>1313</ele>
        <time>2011-08-10T16:18:48Z</time>
      </trkpt>
      <trkpt lat="45.23567" lon="5.76258">
        <ele>1315</ele>
        <time>2011-08-10T16:19:03Z</time>
      </trkpt>
      <trkpt lat="45.23573" lon="5.76248">
        <ele>1320</ele>
        <time>2011-08-10T16:19:18Z</time>
      </trkpt>
      <trkpt lat="45.23575" lon="5.76236">
        <ele>1321</ele>
        <time>2011-08-10T16:19:32Z</time>
      </trkpt>
      <trkpt lat="45.23573" lon="5.76228">
        <ele>1322</ele>
        <time>2011-08-10T16:19:46Z</time>
      </trkpt>
      <trkpt lat="45.23583" lon="5.7621">
        <ele>1325</ele>
        <time>2011-08-10T16:19:57Z</time>
      </trkpt>
      <trkpt lat="45.23583" lon="5.76195">
        <ele>1327</ele>
        <time>2011-08-10T16:20:10Z</time>
      </trkpt>
      <trkpt lat="45.23578" lon="5.76189">
        <ele>1329</ele>
        <time>2011-08-10T16:20:21Z</time>
      </trkpt>
      <trkpt lat="45.23574" lon="5.76182">
        <ele>1330</ele>
        <time>2011-08-10T16:20:34Z</time>
      </trkpt>
      <trkpt lat="45.23571" lon="5.76181">
        <ele>1329</ele>
        <time>2011-08-10T16:20:50Z</time>
      </trkpt>
      <trkpt lat="45.23565" lon="5.76179">
        <ele>1329</ele>
        <time>2011-08-10T16:21:03Z</time>
      </trkpt>
      <trkpt lat="45.23564" lon="5.76174">
        <ele>1329</ele>
        <time>2011-08-10T16:21:15Z</time>
      </trkpt>
      <trkpt lat="45.2356" lon="5.76167">
        <ele>1329</ele>
        <time>2011-08-10T16:21:33Z</time>
      </trkpt>
      <trkpt lat="45.23554" lon="5.76162">
        <ele>1325</ele>
        <time>2011-08-10T16:21:47Z</time>
      </trkpt>
      <trkpt lat="45.2355" lon="5.76151">
        <ele>1323</ele>
        <time>2011-08-10T16:22:04Z</time>
      </trkpt>
      <trkpt lat="45.2355" lon="5.76147">
        <ele>1323</ele>
        <time>2011-08-10T16:22:19Z</time>
      </trkpt>
      <trkpt lat="45.23551" lon="5.76145">
        <ele>1323</ele>
        <time>2011-08-10T16:22:41Z</time>
      </trkpt>
      <trkpt lat="45.23556" lon="5.76141">
        <ele>1324</ele>
        <time>2011-08-10T16:23:04Z</time>
      </trkpt>
      <trkpt lat="45.23555" lon="5.76142">
        <ele>1324</ele>
        <time>2011-08-10T16:23:05Z</time>
      </trkpt>
      <trkpt lat="45.23545" lon="5.76143">
        <ele>1322</ele>
        <time>2011-08-10T16:23:19Z</time>
      </trkpt>
      <trkpt lat="45.23538" lon="5.76145">
        <ele>1320</ele>
        <time>2011-08-10T16:23:35Z</time>
      </trkpt>
      <trkpt lat="45.23537" lon="5.76138">
        <ele>1320</ele>
        <time>2011-08-10T16:23:51Z</time>
      </trkpt>
      <trkpt lat="45.23535" lon="5.76141">
        <ele>1319</ele>
        <time>2011-08-10T16:27:50Z</time>
      </trkpt>
      <trkpt lat="45.23536" lon="5.76141">
        <ele>1320</ele>
        <time>2011-08-10T16:28:34Z</time>
      </trkpt>
      <trkpt lat="45.23562" lon="5.7612">
        <ele>1324</ele>
        <time>2011-08-10T16:28:46Z</time>
      </trkpt>
      <trkpt lat="45.23579" lon="5.76104">
        <ele>1329</ele>
        <time>2011-08-10T16:28:52Z</time>
      </trkpt>
      <trkpt lat="45.23573" lon="5.76101">
        <ele>1328</ele>
        <time>2011-08-10T16:28:57Z</time>
      </trkpt>
      <trkpt lat="45.23552" lon="5.7611">
        <ele>1321</ele>
        <time>2011-08-10T16:29:06Z</time>
      </trkpt>
      <trkpt lat="45.23553" lon="5.76101">
        <ele>1322</ele>
        <time>2011-08-10T16:29:13Z</time>
      </trkpt>
      <trkpt lat="45.2356" lon="5.76095">
        <ele>1324</ele>
        <time>2011-08-10T16:29:16Z</time>
      </trkpt>
      <trkpt lat="45.23567" lon="5.76084">
        <ele>1328</ele>
        <time>2011-08-10T16:29:20Z</time>
      </trkpt>
      <trkpt lat="45.23576" lon="5.76076">
        <ele>1319</ele>
        <time>2011-08-10T16:29:30Z</time>
      </trkpt>
      <trkpt lat="45.23578" lon="5.76074">
        <ele>1319</ele>
        <time>2011-08-10T16:29:42Z</time>
      </trkpt>
      <trkpt lat="45.23581" lon="5.7607">
        <ele>1315</ele>
        <time>2011-08-10T16:29:50Z</time>
      </trkpt>
      <trkpt lat="45.23584" lon="5.76065">
        <ele>1324</ele>
        <time>2011-08-10T16:29:53Z</time>
      </trkpt>
      <trkpt lat="45.23574" lon="5.76064">
        <ele>1305</ele>
        <time>2011-08-10T16:30:02Z</time>
      </trkpt>
      <trkpt lat="45.23572" lon="5.76065">
        <ele>1305</ele>
        <time>2011-08-10T16:30:03Z</time>
      </trkpt>
      <trkpt lat="45.2356" lon="5.76069">
        <ele>1300</ele>
        <time>2011-08-10T16:30:16Z</time>
      </trkpt>
      <trkpt lat="45.23551" lon="5.7607">
        <ele>1293</ele>
        <time>2011-08-10T16:30:23Z</time>
      </trkpt>
      <trkpt lat="45.23554" lon="5.76066">
        <ele>1294</ele>
        <time>2011-08-10T16:30:27Z</time>
      </trkpt>
      <trkpt lat="45.23563" lon="5.76051">
        <ele>1291</ele>
        <time>2011-08-10T16:30:33Z</time>
      </trkpt>
      <trkpt lat="45.23576" lon="5.76035">
        <ele>1286</ele>
        <time>2011-08-10T16:30:39Z</time>
      </trkpt>
      <trkpt lat="45.23582" lon="5.76022">
        <ele>1282</ele>
        <time>2011-08-10T16:30:43Z</time>
      </trkpt>
      <trkpt lat="45.23592" lon="5.76003">
        <ele>1287</ele>
        <time>2011-08-10T16:30:49Z</time>
      </trkpt>
      <trkpt lat="45.23605" lon="5.75983">
        <ele>1270</ele>
        <time>2011-08-10T16:30:56Z</time>
      </trkpt>
      <trkpt lat="45.23628" lon="5.75956">
        <ele>1266</ele>
        <time>2011-08-10T16:31:05Z</time>
      </trkpt>
      <trkpt lat="45.2361" lon="5.75952">
        <ele>1263</ele>
        <time>2011-08-10T16:31:15Z</time>
      </trkpt>
      <trkpt lat="45.23578" lon="5.75962">
        <ele>1242</ele>
        <time>2011-08-10T16:31:24Z</time>
      </trkpt>
      <trkpt lat="45.23569" lon="5.75962">
        <ele>1241</ele>
        <time>2011-08-10T16:31:26Z</time>
      </trkpt>
      <trkpt lat="45.23524" lon="5.75988">
        <ele>1229</ele>
        <time>2011-08-10T16:31:38Z</time>
      </trkpt>
      <trkpt lat="45.23497" lon="5.76002">
        <ele>1219</ele>
        <time>2011-08-10T16:31:46Z</time>
      </trkpt>
      <trkpt lat="45.23498" lon="5.75991">
        <ele>1207</ele>
        <time>2011-08-10T16:31:50Z</time>
      </trkpt>
      <trkpt lat="45.23522" lon="5.75947">
        <ele>1223</ele>
        <time>2011-08-10T16:32:01Z</time>
      </trkpt>
      <trkpt lat="45.23523" lon="5.7594">
        <ele>1221</ele>
        <time>2011-08-10T16:32:03Z</time>
      </trkpt>
      <trkpt lat="45.23534" lon="5.75909">
        <ele>1203</ele>
        <time>2011-08-10T16:32:09Z</time>
      </trkpt>
      <trkpt lat="45.23551" lon="5.75869">
        <ele>1202</ele>
        <time>2011-08-10T16:32:14Z</time>
      </trkpt>
      <trkpt lat="45.2357" lon="5.75836">
        <ele>1205</ele>
        <time>2011-08-10T16:32:18Z</time>
      </trkpt>
      <trkpt lat="45.23581" lon="5.7581">
        <ele>1184</ele>
        <time>2011-08-10T16:32:22Z</time>
      </trkpt>
      <trkpt lat="45.23595" lon="5.75789">
        <ele>1194</ele>
        <time>2011-08-10T16:32:28Z</time>
      </trkpt>
      <trkpt lat="45.23594" lon="5.75789">
        <ele>1194</ele>
        <time>2011-08-10T16:32:29Z</time>
      </trkpt>
      <trkpt lat="45.23582" lon="5.75792">
        <ele>1175</ele>
        <time>2011-08-10T16:32:33Z</time>
      </trkpt>
      <trkpt lat="45.23559" lon="5.75791">
        <ele>1171</ele>
        <time>2011-08-10T16:32:38Z</time>
      </trkpt>
      <trkpt lat="45.235" lon="5.75807">
        <ele>1162</ele>
        <time>2011-08-10T16:32:49Z</time>
      </trkpt>
      <trkpt lat="45.23488" lon="5.75816">
        <ele>1142</ele>
        <time>2011-08-10T16:32:52Z</time>
      </trkpt>
      <trkpt lat="45.23448" lon="5.75834">
        <ele>1146</ele>
        <time>2011-08-10T16:33:01Z</time>
      </trkpt>
      <trkpt lat="45.23398" lon="5.75862">
        <ele>1119</ele>
        <time>2011-08-10T16:33:12Z</time>
      </trkpt>
      <trkpt lat="45.2339" lon="5.75863">
        <ele>1118</ele>
        <time>2011-08-10T16:33:13Z</time>
      </trkpt>
      <trkpt lat="45.2337" lon="5.75887">
        <ele>1116</ele>
        <time>2011-08-10T16:33:19Z</time>
      </trkpt>
      <trkpt lat="45.23368" lon="5.75924">
        <ele>1133</ele>
        <time>2011-08-10T16:33:27Z</time>
      </trkpt>
      <trkpt lat="45.2337" lon="5.75926">
        <ele>1134</ele>
        <time>2011-08-10T16:33:46Z</time>
      </trkpt>
      <trkpt lat="45.2337" lon="5.75926">
        <ele>1134</ele>
        <time>2011-08-10T16:34:16Z</time>
      </trkpt>
      <trkpt lat="45.23367" lon="5.75927">
        <ele>1133</ele>
        <time>2011-08-10T16:34:38Z</time>
      </trkpt>
      <trkpt lat="45.23366" lon="5.75929">
        <ele>1133</ele>
        <time>2011-08-10T16:35:26Z</time>
      </trkpt>
      <trkpt lat="45.23366" lon="5.7593">
        <ele>1133</ele>
        <time>2011-08-10T16:38:19Z</time>
      </trkpt>
      <trkpt lat="45.23358" lon="5.75913">
        <ele>1115</ele>
        <time>2011-08-10T16:38:24Z</time>
      </trkpt>
      <trkpt lat="45.2334" lon="5.7588">
        <ele>1111</ele>
        <time>2011-08-10T16:38:34Z</time>
      </trkpt>
      <trkpt lat="45.23338" lon="5.7588">
        <ele>1110</ele>
        <time>2011-08-10T16:38:46Z</time>
      </trkpt>
      <trkpt lat="45.2334" lon="5.75866">
        <ele>1108</ele>
        <time>2011-08-10T16:38:50Z</time>
      </trkpt>
      <trkpt lat="45.23376" lon="5.75835">
        <ele>1113</ele>
        <time>2011-08-10T16:39:00Z</time>
      </trkpt>
      <trkpt lat="45.23388" lon="5.75819">
        <ele>1094</ele>
        <time>2011-08-10T16:39:03Z</time>
      </trkpt>
      <trkpt lat="45.23407" lon="5.75754">
        <ele>1086</ele>
        <time>2011-08-10T16:39:13Z</time>
      </trkpt>
      <trkpt lat="45.23422" lon="5.75722">
        <ele>1082</ele>
        <time>2011-08-10T16:39:23Z</time>
      </trkpt>
      <trkpt lat="45.23424" lon="5.75705">
        <ele>1076</ele>
        <time>2011-08-10T16:39:36Z</time>
      </trkpt>
      <trkpt lat="45.23426" lon="5.75703">
        <ele>1075</ele>
        <time>2011-08-10T16:39:40Z</time>
      </trkpt>
      <trkpt lat="45.23427" lon="5.75699">
        <ele>1073</ele>
        <time>2011-08-10T16:39:43Z</time>
      </trkpt>
      <trkpt lat="45.23428" lon="5.75694">
        <ele>1071</ele>
        <time>2011-08-10T16:39:47Z</time>
      </trkpt>
      <trkpt lat="45.23401" lon="5.75714">
        <ele>1046</ele>
        <time>2011-08-10T16:39:57Z</time>
      </trkpt>
      <trkpt lat="45.23388" lon="5.75721">
        <ele>1044</ele>
        <time>2011-08-10T16:40:02Z</time>
      </trkpt>
      <trkpt lat="45.23392" lon="5.75709">
        <ele>1041</ele>
        <time>2011-08-10T16:40:06Z</time>
      </trkpt>
      <trkpt lat="45.23414" lon="5.7567">
        <ele>1043</ele>
        <time>2011-08-10T16:40:18Z</time>
      </trkpt>
      <trkpt lat="45.23422" lon="5.7566">
        <ele>1042</ele>
        <time>2011-08-10T16:40:22Z</time>
      </trkpt>
      <trkpt lat="45.23429" lon="5.7566">
        <ele>1041</ele>
        <time>2011-08-10T16:40:24Z</time>
      </trkpt>
      <trkpt lat="45.23439" lon="5.75656">
        <ele>1040</ele>
        <time>2011-08-10T16:40:26Z</time>
      </trkpt>
      <trkpt lat="45.23457" lon="5.75642">
        <ele>1039</ele>
        <time>2011-08-10T16:40:30Z</time>
      </trkpt>
      <trkpt lat="45.2347" lon="5.75638">
        <ele>1039</ele>
        <time>2011-08-10T16:40:32Z</time>
      </trkpt>
      <trkpt lat="45.23474" lon="5.75628">
        <ele>1037</ele>
        <time>2011-08-10T16:40:38Z</time>
      </trkpt>
      <trkpt lat="45.23495" lon="5.75612">
        <ele>1033</ele>
        <time>2011-08-10T16:40:45Z</time>
      </trkpt>
      <trkpt lat="45.23501" lon="5.75612">
        <ele>1041</ele>
        <time>2011-08-10T16:40:47Z</time>
      </trkpt>
      <trkpt lat="45.23516" lon="5.75607">
        <ele>1040</ele>
        <time>2011-08-10T16:40:50Z</time>
      </trkpt>
      <trkpt lat="45.23526" lon="5.75607">
        <ele>1042</ele>
        <time>2011-08-10T16:40:53Z</time>
      </trkpt>
      <trkpt lat="45.23522" lon="5.75598">
        <ele>1039</ele>
        <time>2011-08-10T16:40:57Z</time>
      </trkpt>
      <trkpt lat="45.23515" lon="5.75597">
        <ele>1036</ele>
        <time>2011-08-10T16:40:59Z</time>
      </trkpt>
      <trkpt lat="45.23498" lon="5.75583">
        <ele>1019</ele>
        <time>2011-08-10T16:41:03Z</time>
      </trkpt>
      <trkpt lat="45.2348" lon="5.75581">
        <ele>1003</ele>
        <time>2011-08-10T16:41:07Z</time>
      </trkpt>
      <trkpt lat="45.23441" lon="5.75573">
        <ele>995</ele>
        <time>2011-08-10T16:41:13Z</time>
      </trkpt>
      <trkpt lat="45.23413" lon="5.75568">
        <ele>984</ele>
        <time>2011-08-10T16:41:17Z</time>
      </trkpt>
      <trkpt lat="45.23402" lon="5.75564">
        <ele>976</ele>
        <time>2011-08-10T16:41:19Z</time>
      </trkpt>
      <trkpt lat="45.23378" lon="5.75565">
        <ele>965</ele>
        <time>2011-08-10T16:41:22Z</time>
      </trkpt>
      <trkpt lat="45.23346" lon="5.75581">
        <ele>957</ele>
        <time>2011-08-10T16:41:27Z</time>
      </trkpt>
      <trkpt lat="45.23323" lon="5.75593">
        <ele>945</ele>
        <time>2011-08-10T16:41:34Z</time>
      </trkpt>
      <trkpt lat="45.23326" lon="5.75585">
        <ele>948</ele>
        <time>2011-08-10T16:41:38Z</time>
      </trkpt>
      <trkpt lat="45.23328" lon="5.75583">
        <ele>945</ele>
        <time>2011-08-10T16:41:53Z</time>
      </trkpt>
      <trkpt lat="45.23323" lon="5.75592">
        <ele>945</ele>
        <time>2011-08-10T16:42:08Z</time>
      </trkpt>
      <trkpt lat="45.23323" lon="5.75592">
        <ele>945</ele>
        <time>2011-08-10T16:42:32Z</time>
      </trkpt>
      <trkpt lat="45.23325" lon="5.75593">
        <ele>946</ele>
        <time>2011-08-10T16:42:55Z</time>
      </trkpt>
      <trkpt lat="45.23325" lon="5.75593">
        <ele>946</ele>
        <time>2011-08-10T16:43:18Z</time>
      </trkpt>
      <trkpt lat="45.23346" lon="5.75566">
        <ele>957</ele>
        <time>2011-08-10T16:43:27Z</time>
      </trkpt>
      <trkpt lat="45.23349" lon="5.75561">
        <ele>957</ele>
        <time>2011-08-10T16:43:28Z</time>
      </trkpt>
      <trkpt lat="45.23373" lon="5.75538">
        <ele>958</ele>
        <time>2011-08-10T16:43:33Z</time>
      </trkpt>
      <trkpt lat="45.23388" lon="5.75525">
        <ele>958</ele>
        <time>2011-08-10T16:43:37Z</time>
      </trkpt>
      <trkpt lat="45.23412" lon="5.75509">
        <ele>956</ele>
        <time>2011-08-10T16:43:45Z</time>
      </trkpt>
      <trkpt lat="45.23412" lon="5.75509">
        <ele>956</ele>
        <time>2011-08-10T16:43:51Z</time>
      </trkpt>
      <trkpt lat="45.23425" lon="5.75497">
        <ele>949</ele>
        <time>2011-08-10T16:43:56Z</time>
      </trkpt>
      <trkpt lat="45.23448" lon="5.75484">
        <ele>943</ele>
        <time>2011-08-10T16:44:02Z</time>
      </trkpt>
      <trkpt lat="45.23453" lon="5.7548">
        <ele>943</ele>
        <time>2011-08-10T16:44:03Z</time>
      </trkpt>
      <trkpt lat="45.23466" lon="5.75472">
        <ele>942</ele>
        <time>2011-08-10T16:44:07Z</time>
      </trkpt>
      <trkpt lat="45.23455" lon="5.75461">
        <ele>938</ele>
        <time>2011-08-10T16:44:12Z</time>
      </trkpt>
      <trkpt lat="45.23438" lon="5.7546">
        <ele>937</ele>
        <time>2011-08-10T16:44:16Z</time>
      </trkpt>
      <trkpt lat="45.23386" lon="5.75441">
        <ele>916</ele>
        <time>2011-08-10T16:44:26Z</time>
      </trkpt>
      <trkpt lat="45.23383" lon="5.75445">
        <ele>916</ele>
        <time>2011-08-10T16:45:44Z</time>
      </trkpt>
      <trkpt lat="45.23377" lon="5.75446">
        <ele>915</ele>
        <time>2011-08-10T16:45:50Z</time>
      </trkpt>
      <trkpt lat="45.23363" lon="5.75442">
        <ele>912</ele>
        <time>2011-08-10T16:46:00Z</time>
      </trkpt>
      <trkpt lat="45.2336" lon="5.75446">
        <ele>912</ele>
        <time>2011-08-10T16:46:42Z</time>
      </trkpt>
      <trkpt lat="45.2336" lon="5.75446">
        <ele>913</ele>
        <time>2011-08-10T16:48:01Z</time>
      </trkpt>
      <trkpt lat="45.2336" lon="5.75446">
        <ele>913</ele>
        <time>2011-08-10T16:50:51Z</time>
      </trkpt>
      <trkpt lat="45.23346" lon="5.75445">
        <ele>910</ele>
        <time>2011-08-10T16:53:37Z</time>
      </trkpt>
      <trkpt lat="45.23318" lon="5.75452">
        <ele>887</ele>
        <time>2011-08-10T16:53:51Z</time>
      </trkpt>
      <trkpt lat="45.23297" lon="5.75461">
        <ele>884</ele>
        <time>2011-08-10T16:53:59Z</time>
      </trkpt>
      <trkpt lat="45.23293" lon="5.75461">
        <ele>883</ele>
        <time>2011-08-10T16:54:01Z</time>
      </trkpt>
      <trkpt lat="45.23288" lon="5.75464">
        <ele>882</ele>
        <time>2011-08-10T16:54:04Z</time>
      </trkpt>
      <trkpt lat="45.23282" lon="5.75471">
        <ele>881</ele>
        <time>2011-08-10T16:54:09Z</time>
      </trkpt>
      <trkpt lat="45.23279" lon="5.75473">
        <ele>880</ele>
        <time>2011-08-10T16:54:11Z</time>
      </trkpt>
      <trkpt lat="45.23269" lon="5.75479">
        <ele>878</ele>
        <time>2011-08-10T16:54:16Z</time>
      </trkpt>
      <trkpt lat="45.23266" lon="5.7548">
        <ele>877</ele>
        <time>2011-08-10T16:54:20Z</time>
      </trkpt>
      <trkpt lat="45.23257" lon="5.75489">
        <ele>874</ele>
        <time>2011-08-10T16:54:33Z</time>
      </trkpt>
      <trkpt lat="45.23253" lon="5.75494">
        <ele>872</ele>
        <time>2011-08-10T16:54:50Z</time>
      </trkpt>
      <trkpt lat="45.23245" lon="5.75515">
        <ele>862</ele>
        <time>2011-08-10T16:55:05Z</time>
      </trkpt>
      <trkpt lat="45.23241" lon="5.75517">
        <ele>860</ele>
        <time>2011-08-10T16:55:11Z</time>
      </trkpt>
      <trkpt lat="45.23233" lon="5.75525">
        <ele>858</ele>
        <time>2011-08-10T16:55:26Z</time>
      </trkpt>
      <trkpt lat="45.23232" lon="5.75528">
        <ele>858</ele>
        <time>2011-08-10T16:55:29Z</time>
      </trkpt>
      <trkpt lat="45.23233" lon="5.75546">
        <ele>861</ele>
        <time>2011-08-10T16:55:43Z</time>
      </trkpt>
      <trkpt lat="45.23235" lon="5.75562">
        <ele>867</ele>
        <time>2011-08-10T16:55:54Z</time>
      </trkpt>
      <trkpt lat="45.23237" lon="5.75583">
        <ele>878</ele>
        <time>2011-08-10T16:56:06Z</time>
      </trkpt>
      <trkpt lat="45.23239" lon="5.75593">
        <ele>886</ele>
        <time>2011-08-10T16:56:19Z</time>
      </trkpt>
      <trkpt lat="45.2324" lon="5.756">
        <ele>884</ele>
        <time>2011-08-10T16:56:28Z</time>
      </trkpt>
      <trkpt lat="45.23243" lon="5.75608">
        <ele>883</ele>
        <time>2011-08-10T16:56:36Z</time>
      </trkpt>
      <trkpt lat="45.23241" lon="5.75622">
        <ele>883</ele>
        <time>2011-08-10T16:56:47Z</time>
      </trkpt>
      <trkpt lat="45.23239" lon="5.75626">
        <ele>883</ele>
        <time>2011-08-10T16:56:59Z</time>
      </trkpt>
      <trkpt lat="45.23235" lon="5.75633">
        <ele>883</ele>
        <time>2011-08-10T16:57:12Z</time>
      </trkpt>
      <trkpt lat="45.23235" lon="5.75642">
        <ele>886</ele>
        <time>2011-08-10T16:57:25Z</time>
      </trkpt>
      <trkpt lat="45.23234" lon="5.75642">
        <ele>886</ele>
        <time>2011-08-10T16:57:56Z</time>
      </trkpt>
      <trkpt lat="45.23236" lon="5.75648">
        <ele>889</ele>
        <time>2011-08-10T16:58:25Z</time>
      </trkpt>
      <trkpt lat="45.23231" lon="5.75647">
        <ele>886</ele>
        <time>2011-08-10T16:58:45Z</time>
      </trkpt>
      <trkpt lat="45.2323" lon="5.75645">
        <ele>885</ele>
        <time>2011-08-10T16:59:13Z</time>
      </trkpt>
      <trkpt lat="45.23231" lon="5.75645">
        <ele>885</ele>
        <time>2011-08-10T16:59:45Z</time>
      </trkpt>
      <trkpt lat="45.23232" lon="5.75644">
        <ele>885</ele>
        <time>2011-08-10T17:00:17Z</time>
      </trkpt>
      <trkpt lat="45.23231" lon="5.75646">
        <ele>886</ele>
        <time>2011-08-10T17:00:34Z</time>
      </trkpt>
      <trkpt lat="45.23232" lon="5.7565">
        <ele>888</ele>
        <time>2011-08-10T17:00:50Z</time>
      </trkpt>
      <trkpt lat="45.23228" lon="5.75656">
        <ele>887</ele>
        <time>2011-08-10T17:01:07Z</time>
      </trkpt>
      <trkpt lat="45.23224" lon="5.7566">
        <ele>885</ele>
        <time>2011-08-10T17:01:24Z</time>
      </trkpt>
      <trkpt lat="45.23224" lon="5.7566">
        <ele>885</ele>
        <time>2011-08-10T17:01:28Z</time>
      </trkpt>
      <trkpt lat="45.23222" lon="5.75659">
        <ele>884</ele>
        <time>2011-08-10T17:01:38Z</time>
      </trkpt>
      <trkpt lat="45.23218" lon="5.75661">
        <ele>881</ele>
        <time>2011-08-10T17:01:51Z</time>
      </trkpt>
      <trkpt lat="45.23213" lon="5.75663">
        <ele>879</ele>
        <time>2011-08-10T17:02:07Z</time>
      </trkpt>
      <trkpt lat="45.23212" lon="5.75671">
        <ele>893</ele>
        <time>2011-08-10T17:02:33Z</time>
      </trkpt>
      <trkpt lat="45.2321" lon="5.75679">
        <ele>893</ele>
        <time>2011-08-10T17:02:49Z</time>
      </trkpt>
      <trkpt lat="45.23206" lon="5.75681">
        <ele>891</ele>
        <time>2011-08-10T17:03:03Z</time>
      </trkpt>
      <trkpt lat="45.23206" lon="5.75683">
        <ele>891</ele>
        <time>2011-08-10T17:03:31Z</time>
      </trkpt>
      <trkpt lat="45.23203" lon="5.75685">
        <ele>890</ele>
        <time>2011-08-10T17:03:45Z</time>
      </trkpt>
      <trkpt lat="45.232" lon="5.75688">
        <ele>889</ele>
        <time>2011-08-10T17:04:03Z</time>
      </trkpt>
      <trkpt lat="45.23203" lon="5.7569">
        <ele>891</ele>
        <time>2011-08-10T17:04:19Z</time>
      </trkpt>
      <trkpt lat="45.23204" lon="5.75691">
        <ele>892</ele>
        <time>2011-08-10T17:04:40Z</time>
      </trkpt>
      <trkpt lat="45.23201" lon="5.75692">
        <ele>891</ele>
        <time>2011-08-10T17:04:55Z</time>
      </trkpt>
      <trkpt lat="45.23199" lon="5.75694">
        <ele>890</ele>
        <time>2011-08-10T17:05:11Z</time>
      </trkpt>
      <trkpt lat="45.23198" lon="5.75692">
        <ele>889</ele>
        <time>2011-08-10T17:05:25Z</time>
      </trkpt>
      <trkpt lat="45.23194" lon="5.75692">
        <ele>887</ele>
        <time>2011-08-10T17:05:40Z</time>
      </trkpt>
      <trkpt lat="45.2319" lon="5.75694">
        <ele>887</ele>
        <time>2011-08-10T17:05:58Z</time>
      </trkpt>
      <trkpt lat="45.23187" lon="5.757">
        <ele>887</ele>
        <time>2011-08-10T17:06:13Z</time>
      </trkpt>
      <trkpt lat="45.23184" lon="5.75702">
        <ele>887</ele>
        <time>2011-08-10T17:06:37Z</time>
      </trkpt>
      <trkpt lat="45.23182" lon="5.75704">
        <ele>887</ele>
        <time>2011-08-10T17:07:21Z</time>
      </trkpt>
      <trkpt lat="45.23173" lon="5.75707">
        <ele>886</ele>
        <time>2011-08-10T17:07:35Z</time>
      </trkpt>
      <trkpt lat="45.23169" lon="5.75713">
        <ele>887</ele>
        <time>2011-08-10T17:07:51Z</time>
      </trkpt>
      <trkpt lat="45.23162" lon="5.75721">
        <ele>857</ele>
        <time>2011-08-10T17:08:07Z</time>
      </trkpt>
      <trkpt lat="45.23159" lon="5.75723">
        <ele>857</ele>
        <time>2011-08-10T17:08:23Z</time>
      </trkpt>
      <trkpt lat="45.23159" lon="5.75723">
        <ele>857</ele>
        <time>2011-08-10T17:08:54Z</time>
      </trkpt>
      <trkpt lat="45.23159" lon="5.75727">
        <ele>859</ele>
        <time>2011-08-10T17:09:13Z</time>
      </trkpt>
      <trkpt lat="45.23162" lon="5.75729">
        <ele>861</ele>
        <time>2011-08-10T17:09:32Z</time>
      </trkpt>
      <trkpt lat="45.23159" lon="5.75734">
        <ele>864</ele>
        <time>2011-08-10T17:09:50Z</time>
      </trkpt>
      <trkpt lat="45.23154" lon="5.75742">
        <ele>866</ele>
        <time>2011-08-10T17:10:07Z</time>
      </trkpt>
      <trkpt lat="45.23152" lon="5.75747">
        <ele>866</ele>
        <time>2011-08-10T17:10:20Z</time>
      </trkpt>
      <trkpt lat="45.2315" lon="5.75754">
        <ele>876</ele>
        <time>2011-08-10T17:10:41Z</time>
      </trkpt>
      <trkpt lat="45.23149" lon="5.75762">
        <ele>875</ele>
        <time>2011-08-10T17:10:56Z</time>
      </trkpt>
      <trkpt lat="45.23148" lon="5.75762">
        <ele>875</ele>
        <time>2011-08-10T17:11:13Z</time>
      </trkpt>
      <trkpt lat="45.23147" lon="5.75761">
        <ele>874</ele>
        <time>2011-08-10T17:11:58Z</time>
      </trkpt>
      <trkpt lat="45.23147" lon="5.7576">
        <ele>875</ele>
        <time>2011-08-10T17:21:21Z</time>
      </trkpt>
      <trkpt lat="45.23151" lon="5.75763">
        <ele>876</ele>
        <time>2011-08-10T17:21:38Z</time>
      </trkpt>
      <trkpt lat="45.23152" lon="5.75765">
        <ele>876</ele>
        <time>2011-08-10T17:21:42Z</time>
      </trkpt>
      <trkpt lat="45.23152" lon="5.75766">
        <ele>876</ele>
        <time>2011-08-10T17:21:55Z</time>
      </trkpt>
      <trkpt lat="45.23154" lon="5.7577">
        <ele>876</ele>
        <time>2011-08-10T17:22:07Z</time>
      </trkpt>
      <trkpt lat="45.23155" lon="5.7577">
        <ele>876</ele>
        <time>2011-08-10T17:22:20Z</time>
      </trkpt>
      <trkpt lat="45.23158" lon="5.7577">
        <ele>877</ele>
        <time>2011-08-10T17:22:33Z</time>
      </trkpt>
      <trkpt lat="45.23159" lon="5.75772">
        <ele>877</ele>
        <time>2011-08-10T17:22:44Z</time>
      </trkpt>
      <trkpt lat="45.23162" lon="5.75771">
        <ele>877</ele>
        <time>2011-08-10T17:23:01Z</time>
      </trkpt>
      <trkpt lat="45.23162" lon="5.75772">
        <ele>877</ele>
        <time>2011-08-10T17:23:03Z</time>
      </trkpt>
      <trkpt lat="45.23165" lon="5.75779">
        <ele>877</ele>
        <time>2011-08-10T17:23:13Z</time>
      </trkpt>
      <trkpt lat="45.23165" lon="5.75782">
        <ele>877</ele>
        <time>2011-08-10T17:23:25Z</time>
      </trkpt>
      <trkpt lat="45.23164" lon="5.75782">
        <ele>877</ele>
        <time>2011-08-10T17:23:38Z</time>
      </trkpt>
      <trkpt lat="45.23163" lon="5.75783">
        <ele>877</ele>
        <time>2011-08-10T17:24:52Z</time>
      </trkpt>
      <trkpt lat="45.23163" lon="5.75783">
        <ele>877</ele>
        <time>2011-08-10T17:26:18Z</time>
      </trkpt>
      <trkpt lat="45.23161" lon="5.75785">
        <ele>877</ele>
        <time>2011-08-10T17:26:45Z</time>
      </trkpt>
      <trkpt lat="45.23161" lon="5.75788">
        <ele>877</ele>
        <time>2011-08-10T17:26:47Z</time>
      </trkpt>
      <trkpt lat="45.23156" lon="5.75794">
        <ele>877</ele>
        <time>2011-08-10T17:26:58Z</time>
      </trkpt>
      <trkpt lat="45.23152" lon="5.75802">
        <ele>878</ele>
        <time>2011-08-10T17:27:09Z</time>
      </trkpt>
      <trkpt lat="45.23147" lon="5.7581">
        <ele>879</ele>
        <time>2011-08-10T17:27:18Z</time>
      </trkpt>
      <trkpt lat="45.23141" lon="5.75817">
        <ele>878</ele>
        <time>2011-08-10T17:27:25Z</time>
      </trkpt>
      <trkpt lat="45.23141" lon="5.75821">
        <ele>879</ele>
        <time>2011-08-10T17:27:33Z</time>
      </trkpt>
      <trkpt lat="45.23131" lon="5.75824">
        <ele>875</ele>
        <time>2011-08-10T17:27:47Z</time>
      </trkpt>
      <trkpt lat="45.23127" lon="5.75827">
        <ele>874</ele>
        <time>2011-08-10T17:28:01Z</time>
      </trkpt>
      <trkpt lat="45.23124" lon="5.75829">
        <ele>873</ele>
        <time>2011-08-10T17:28:05Z</time>
      </trkpt>
      <trkpt lat="45.23117" lon="5.75827">
        <ele>871</ele>
        <time>2011-08-10T17:28:14Z</time>
      </trkpt>
      <trkpt lat="45.23105" lon="5.75829">
        <ele>867</ele>
        <time>2011-08-10T17:28:30Z</time>
      </trkpt>
      <trkpt lat="45.23103" lon="5.75831">
        <ele>867</ele>
        <time>2011-08-10T17:29:07Z</time>
      </trkpt>
      <trkpt lat="45.23103" lon="5.75831">
        <ele>866</ele>
        <time>2011-08-10T17:32:10Z</time>
      </trkpt>
      <trkpt lat="45.23098" lon="5.75827">
        <ele>865</ele>
        <time>2011-08-10T17:32:14Z</time>
      </trkpt>
      <trkpt lat="45.23094" lon="5.75821">
        <ele>864</ele>
        <time>2011-08-10T17:32:21Z</time>
      </trkpt>
      <trkpt lat="45.23088" lon="5.75822">
        <ele>863</ele>
        <time>2011-08-10T17:32:26Z</time>
      </trkpt>
      <trkpt lat="45.23088" lon="5.75832">
        <ele>862</ele>
        <time>2011-08-10T17:32:36Z</time>
      </trkpt>
      <trkpt lat="45.23085" lon="5.75837">
        <ele>862</ele>
        <time>2011-08-10T17:32:40Z</time>
      </trkpt>
      <trkpt lat="45.23075" lon="5.7585">
        <ele>847</ele>
        <time>2011-08-10T17:32:54Z</time>
      </trkpt>
      <trkpt lat="45.23073" lon="5.75853">
        <ele>845</ele>
        <time>2011-08-10T17:33:00Z</time>
      </trkpt>
      <trkpt lat="45.23069" lon="5.75861">
        <ele>842</ele>
        <time>2011-08-10T17:33:08Z</time>
      </trkpt>
      <trkpt lat="45.23062" lon="5.75866">
        <ele>840</ele>
        <time>2011-08-10T17:33:20Z</time>
      </trkpt>
      <trkpt lat="45.23062" lon="5.75868">
        <ele>840</ele>
        <time>2011-08-10T17:33:25Z</time>
      </trkpt>
      <trkpt lat="45.2306" lon="5.75872">
        <ele>839</ele>
        <time>2011-08-10T17:33:28Z</time>
      </trkpt>
      <trkpt lat="45.23058" lon="5.75872">
        <ele>839</ele>
        <time>2011-08-10T17:33:30Z</time>
      </trkpt>
      <trkpt lat="45.23053" lon="5.75875">
        <ele>838</ele>
        <time>2011-08-10T17:33:34Z</time>
      </trkpt>
      <trkpt lat="45.23049" lon="5.7588">
        <ele>836</ele>
        <time>2011-08-10T17:33:41Z</time>
      </trkpt>
      <trkpt lat="45.23041" lon="5.75881">
        <ele>835</ele>
        <time>2011-08-10T17:33:46Z</time>
      </trkpt>
      <trkpt lat="45.23021" lon="5.7589">
        <ele>829</ele>
        <time>2011-08-10T17:33:58Z</time>
      </trkpt>
      <trkpt lat="45.23015" lon="5.75896">
        <ele>827</ele>
        <time>2011-08-10T17:34:09Z</time>
      </trkpt>
      <trkpt lat="45.23012" lon="5.75899">
        <ele>827</ele>
        <time>2011-08-10T17:34:16Z</time>
      </trkpt>
      <trkpt lat="45.23003" lon="5.75904">
        <ele>824</ele>
        <time>2011-08-10T17:34:23Z</time>
      </trkpt>
      <trkpt lat="45.23002" lon="5.75909">
        <ele>821</ele>
        <time>2011-08-10T17:34:25Z</time>
      </trkpt>
      <trkpt lat="45.22999" lon="5.75918">
        <ele>815</ele>
        <time>2011-08-10T17:34:29Z</time>
      </trkpt>
      <trkpt lat="45.22995" lon="5.75924">
        <ele>810</ele>
        <time>2011-08-10T17:34:33Z</time>
      </trkpt>
      <trkpt lat="45.22976" lon="5.75937">
        <ele>799</ele>
        <time>2011-08-10T17:34:46Z</time>
      </trkpt>
      <trkpt lat="45.2297" lon="5.75936">
        <ele>798</ele>
        <time>2011-08-10T17:35:13Z</time>
      </trkpt>
      <trkpt lat="45.22964" lon="5.75934">
        <ele>796</ele>
        <time>2011-08-10T17:35:16Z</time>
      </trkpt>
      <trkpt lat="45.22958" lon="5.75937">
        <ele>795</ele>
        <time>2011-08-10T17:35:21Z</time>
      </trkpt>
      <trkpt lat="45.22944" lon="5.75934">
        <ele>791</ele>
        <time>2011-08-10T17:35:28Z</time>
      </trkpt>
      <trkpt lat="45.22943" lon="5.75933">
        <ele>791</ele>
        <time>2011-08-10T17:35:30Z</time>
      </trkpt>
      <trkpt lat="45.22941" lon="5.75934">
        <ele>790</ele>
        <time>2011-08-10T17:35:32Z</time>
      </trkpt>
      <trkpt lat="45.22931" lon="5.75936">
        <ele>788</ele>
        <time>2011-08-10T17:35:38Z</time>
      </trkpt>
      <trkpt lat="45.22917" lon="5.75939">
        <ele>787</ele>
        <time>2011-08-10T17:35:44Z</time>
      </trkpt>
      <trkpt lat="45.22914" lon="5.75942">
        <ele>770</ele>
        <time>2011-08-10T17:35:46Z</time>
      </trkpt>
      <trkpt lat="45.22906" lon="5.75949">
        <ele>768</ele>
        <time>2011-08-10T17:35:50Z</time>
      </trkpt>
      <trkpt lat="45.22889" lon="5.75951">
        <ele>765</ele>
        <time>2011-08-10T17:35:57Z</time>
      </trkpt>
      <trkpt lat="45.22878" lon="5.75958">
        <ele>763</ele>
        <time>2011-08-10T17:36:02Z</time>
      </trkpt>
      <trkpt lat="45.22875" lon="5.75962">
        <ele>763</ele>
        <time>2011-08-10T17:36:04Z</time>
      </trkpt>
      <trkpt lat="45.22867" lon="5.75964">
        <ele>762</ele>
        <time>2011-08-10T17:36:10Z</time>
      </trkpt>
      <trkpt lat="45.22864" lon="5.75967">
        <ele>761</ele>
        <time>2011-08-10T17:36:14Z</time>
      </trkpt>
      <trkpt lat="45.22866" lon="5.75983">
        <ele>762</ele>
        <time>2011-08-10T17:36:22Z</time>
      </trkpt>
      <trkpt lat="45.22861" lon="5.75984">
        <ele>762</ele>
        <time>2011-08-10T17:36:33Z</time>
      </trkpt>
      <trkpt lat="45.22854" lon="5.75977">
        <ele>760</ele>
        <time>2011-08-10T17:36:40Z</time>
      </trkpt>
      <trkpt lat="45.22848" lon="5.75993">
        <ele>760</ele>
        <time>2011-08-10T17:36:48Z</time>
      </trkpt>
      <trkpt lat="45.22848" lon="5.76">
        <ele>759</ele>
        <time>2011-08-10T17:36:50Z</time>
      </trkpt>
      <trkpt lat="45.22838" lon="5.76003">
        <ele>757</ele>
        <time>2011-08-10T17:36:58Z</time>
      </trkpt>
      <trkpt lat="45.22832" lon="5.7601">
        <ele>750</ele>
        <time>2011-08-10T17:37:01Z</time>
      </trkpt>
      <trkpt lat="45.22822" lon="5.76031">
        <ele>741</ele>
        <time>2011-08-10T17:37:12Z</time>
      </trkpt>
      <trkpt lat="45.22822" lon="5.7604">
        <ele>740</ele>
        <time>2011-08-10T17:37:22Z</time>
      </trkpt>
      <trkpt lat="45.22818" lon="5.76047">
        <ele>739</ele>
        <time>2011-08-10T17:37:25Z</time>
      </trkpt>
      <trkpt lat="45.22811" lon="5.76084">
        <ele>730</ele>
        <time>2011-08-10T17:37:37Z</time>
      </trkpt>
      <trkpt lat="45.22805" lon="5.76095">
        <ele>728</ele>
        <time>2011-08-10T17:37:41Z</time>
      </trkpt>
      <trkpt lat="45.22769" lon="5.76127">
        <ele>723</ele>
        <time>2011-08-10T17:37:50Z</time>
      </trkpt>
      <trkpt lat="45.22759" lon="5.7614">
        <ele>722</ele>
        <time>2011-08-10T17:37:53Z</time>
      </trkpt>
      <trkpt lat="45.22739" lon="5.76178">
        <ele>711</ele>
        <time>2011-08-10T17:38:01Z</time>
      </trkpt>
      <trkpt lat="45.22735" lon="5.76188">
        <ele>707</ele>
        <time>2011-08-10T17:38:03Z</time>
      </trkpt>
      <trkpt lat="45.2272" lon="5.76227">
        <ele>699</ele>
        <time>2011-08-10T17:38:10Z</time>
      </trkpt>
      <trkpt lat="45.22703" lon="5.76241">
        <ele>697</ele>
        <time>2011-08-10T17:38:14Z</time>
      </trkpt>
      <trkpt lat="45.22695" lon="5.76243">
        <ele>696</ele>
        <time>2011-08-10T17:38:16Z</time>
      </trkpt>
      <trkpt lat="45.22665" lon="5.76233">
        <ele>686</ele>
        <time>2011-08-10T17:38:24Z</time>
      </trkpt>
      <trkpt lat="45.22648" lon="5.76209">
        <ele>683</ele>
        <time>2011-08-10T17:38:37Z</time>
      </trkpt>
      <trkpt lat="45.22648" lon="5.76208">
        <ele>683</ele>
        <time>2011-08-10T17:39:01Z</time>
      </trkpt>
      <trkpt lat="45.22652" lon="5.76158">
        <ele>686</ele>
        <time>2011-08-10T17:39:15Z</time>
      </trkpt>
      <trkpt lat="45.22656" lon="5.76138">
        <ele>682</ele>
        <time>2011-08-10T17:39:23Z</time>
      </trkpt>
      <trkpt lat="45.22657" lon="5.76133">
        <ele>682</ele>
        <time>2011-08-10T17:39:26Z</time>
      </trkpt>
      <trkpt lat="45.22648" lon="5.76145">
        <ele>682</ele>
        <time>2011-08-10T17:39:32Z</time>
      </trkpt>
      <trkpt lat="45.22625" lon="5.76203">
        <ele>679</ele>
        <time>2011-08-10T17:39:43Z</time>
      </trkpt>
      <trkpt lat="45.22617" lon="5.76218">
        <ele>678</ele>
        <time>2011-08-10T17:39:47Z</time>
      </trkpt>
      <trkpt lat="45.22611" lon="5.7623">
        <ele>677</ele>
        <time>2011-08-10T17:39:53Z</time>
      </trkpt>
      <trkpt lat="45.22612" lon="5.7623">
        <ele>677</ele>
        <time>2011-08-10T17:40:02Z</time>
      </trkpt>
      <trkpt lat="45.2261" lon="5.76227">
        <ele>677</ele>
        <time>2011-08-10T17:40:13Z</time>
      </trkpt>
      <trkpt lat="45.22608" lon="5.7622">
        <ele>676</ele>
        <time>2011-08-10T17:40:30Z</time>
      </trkpt>
      <trkpt lat="45.22607" lon="5.76217">
        <ele>676</ele>
        <time>2011-08-10T17:40:33Z</time>
      </trkpt>
      <trkpt lat="45.22601" lon="5.7621">
        <ele>676</ele>
        <time>2011-08-10T17:40:39Z</time>
      </trkpt>
      <trkpt lat="45.22601" lon="5.76211">
        <ele>676</ele>
        <time>2011-08-10T17:40:42Z</time>
      </trkpt>
      <trkpt lat="45.22595" lon="5.76219">
        <ele>675</ele>
        <time>2011-08-10T17:40:54Z</time>
      </trkpt>
      <trkpt lat="45.22592" lon="5.76226">
        <ele>674</ele>
        <time>2011-08-10T17:40:57Z</time>
      </trkpt>
      <trkpt lat="45.2259" lon="5.76235">
        <ele>672</ele>
        <time>2011-08-10T17:41:11Z</time>
      </trkpt>
      <trkpt lat="45.22589" lon="5.76235">
        <ele>672</ele>
        <time>2011-08-10T17:41:15Z</time>
      </trkpt>
      <trkpt lat="45.22586" lon="5.76237">
        <ele>672</ele>
        <time>2011-08-10T17:41:17Z</time>
      </trkpt>
      <trkpt lat="45.22571" lon="5.76276">
        <ele>655</ele>
        <time>2011-08-10T17:41:28Z</time>
      </trkpt>
      <trkpt lat="45.22569" lon="5.76286">
        <ele>653</ele>
        <time>2011-08-10T17:41:31Z</time>
      </trkpt>
      <trkpt lat="45.22562" lon="5.76293">
        <ele>652</ele>
        <time>2011-08-10T17:41:36Z</time>
      </trkpt>
      <trkpt lat="45.22562" lon="5.76297">
        <ele>652</ele>
        <time>2011-08-10T17:41:38Z</time>
      </trkpt>
      <trkpt lat="45.22562" lon="5.763">
        <ele>652</ele>
        <time>2011-08-10T17:41:40Z</time>
      </trkpt>
      <trkpt lat="45.22564" lon="5.76307">
        <ele>652</ele>
        <time>2011-08-10T17:41:51Z</time>
      </trkpt>
      <trkpt lat="45.22562" lon="5.76307">
        <ele>652</ele>
        <time>2011-08-10T17:41:56Z</time>
      </trkpt>
      <trkpt lat="45.2256" lon="5.76312">
        <ele>652</ele>
        <time>2011-08-10T17:42:07Z</time>
      </trkpt>
      <trkpt lat="45.22567" lon="5.76322">
        <ele>654</ele>
        <time>2011-08-10T17:42:12Z</time>
      </trkpt>
      <trkpt lat="45.22573" lon="5.76325">
        <ele>656</ele>
        <time>2011-08-10T17:42:16Z</time>
      </trkpt>
      <trkpt lat="45.22598" lon="5.76334">
        <ele>657</ele>
        <time>2011-08-10T17:42:27Z</time>
      </trkpt>
      <trkpt lat="45.22619" lon="5.76342">
        <ele>655</ele>
        <time>2011-08-10T17:42:35Z</time>
      </trkpt>
      <trkpt lat="45.22624" lon="5.76346">
        <ele>654</ele>
        <time>2011-08-10T17:42:37Z</time>
      </trkpt>
      <trkpt lat="45.22637" lon="5.76348">
        <ele>655</ele>
        <time>2011-08-10T17:42:41Z</time>
      </trkpt>
      <trkpt lat="45.2268" lon="5.76354">
        <ele>654</ele>
        <time>2011-08-10T17:42:50Z</time>
      </trkpt>
      <trkpt lat="45.22683" lon="5.76358">
        <ele>653</ele>
        <time>2011-08-10T17:42:57Z</time>
      </trkpt>
      <trkpt lat="45.22686" lon="5.76362">
        <ele>652</ele>
        <time>2011-08-10T17:43:01Z</time>
      </trkpt>
      <trkpt lat="45.22697" lon="5.76367">
        <ele>650</ele>
        <time>2011-08-10T17:43:09Z</time>
      </trkpt>
      <trkpt lat="45.22698" lon="5.76372">
        <ele>649</ele>
        <time>2011-08-10T17:43:12Z</time>
      </trkpt>
      <trkpt lat="45.22705" lon="5.76371">
        <ele>648</ele>
        <time>2011-08-10T17:43:22Z</time>
      </trkpt>
      <trkpt lat="45.2271" lon="5.76364">
        <ele>649</ele>
        <time>2011-08-10T17:43:50Z</time>
      </trkpt>
      <trkpt lat="45.22713" lon="5.76362">
        <ele>649</ele>
        <time>2011-08-10T17:43:52Z</time>
      </trkpt>
      <trkpt lat="45.22718" lon="5.76367">
        <ele>648</ele>
        <time>2011-08-10T17:43:57Z</time>
      </trkpt>
      <trkpt lat="45.22722" lon="5.76365">
        <ele>648</ele>
        <time>2011-08-10T17:44:00Z</time>
      </trkpt>
      <trkpt lat="45.22727" lon="5.76365">
        <ele>648</ele>
        <time>2011-08-10T17:44:03Z</time>
      </trkpt>
      <trkpt lat="45.22758" lon="5.76377">
        <ele>644</ele>
        <time>2011-08-10T17:44:11Z</time>
      </trkpt>
      <trkpt lat="45.2277" lon="5.7638">
        <ele>644</ele>
        <time>2011-08-10T17:44:15Z</time>
      </trkpt>
      <trkpt lat="45.22782" lon="5.76378">
        <ele>645</ele>
        <time>2011-08-10T17:44:19Z</time>
      </trkpt>
      <trkpt lat="45.22812" lon="5.76378">
        <ele>646</ele>
        <time>2011-08-10T17:44:30Z</time>
      </trkpt>
      <trkpt lat="45.22829" lon="5.76397">
        <ele>644</ele>
        <time>2011-08-10T17:44:36Z</time>
      </trkpt>
      <trkpt lat="45.22831" lon="5.76403">
        <ele>643</ele>
        <time>2011-08-10T17:44:38Z</time>
      </trkpt>
      <trkpt lat="45.22828" lon="5.76411">
        <ele>641</ele>
        <time>2011-08-10T17:44:41Z</time>
      </trkpt>
      <trkpt lat="45.22828" lon="5.76433">
        <ele>633</ele>
        <time>2011-08-10T17:44:48Z</time>
      </trkpt>
      <trkpt lat="45.22839" lon="5.76453">
        <ele>643</ele>
        <time>2011-08-10T17:44:57Z</time>
      </trkpt>
      <trkpt lat="45.22854" lon="5.76479">
        <ele>641</ele>
        <time>2011-08-10T17:45:09Z</time>
      </trkpt>
      <trkpt lat="45.22859" lon="5.76492">
        <ele>641</ele>
        <time>2011-08-10T17:45:16Z</time>
      </trkpt>
      <trkpt lat="45.22857" lon="5.76513">
        <ele>633</ele>
        <time>2011-08-10T17:45:27Z</time>
      </trkpt>
      <trkpt lat="45.22861" lon="5.7653">
        <ele>634</ele>
        <time>2011-08-10T17:45:38Z</time>
      </trkpt>
      <trkpt lat="45.22862" lon="5.76536">
        <ele>634</ele>
        <time>2011-08-10T17:45:45Z</time>
      </trkpt>
      <trkpt lat="45.22861" lon="5.76541">
        <ele>634</ele>
        <time>2011-08-10T17:45:47Z</time>
      </trkpt>
      <trkpt lat="45.22869" lon="5.76568">
        <ele>634</ele>
        <time>2011-08-10T17:45:58Z</time>
      </trkpt>
      <trkpt lat="45.2287" lon="5.76586">
        <ele>629</ele>
        <time>2011-08-10T17:46:04Z</time>
      </trkpt>
      <trkpt lat="45.22876" lon="5.766">
        <ele>630</ele>
        <time>2011-08-10T17:46:09Z</time>
      </trkpt>
      <trkpt lat="45.2288" lon="5.76611">
        <ele>630</ele>
        <time>2011-08-10T17:46:13Z</time>
      </trkpt>
      <trkpt lat="45.22886" lon="5.7662">
        <ele>631</ele>
        <time>2011-08-10T17:46:18Z</time>
      </trkpt>
      <trkpt lat="45.22887" lon="5.76624">
        <ele>630</ele>
        <time>2011-08-10T17:46:20Z</time>
      </trkpt>
      <trkpt lat="45.22889" lon="5.76666">
        <ele>630</ele>
        <time>2011-08-10T17:46:31Z</time>
      </trkpt>
      <trkpt lat="45.22901" lon="5.767">
        <ele>620</ele>
        <time>2011-08-10T17:46:44Z</time>
      </trkpt>
      <trkpt lat="45.229" lon="5.76713">
        <ele>618</ele>
        <time>2011-08-10T17:46:57Z</time>
      </trkpt>
      <trkpt lat="45.22899" lon="5.76714">
        <ele>618</ele>
        <time>2011-08-10T17:46:59Z</time>
      </trkpt>
      <trkpt lat="45.22896" lon="5.76714">
        <ele>617</ele>
        <time>2011-08-10T17:47:02Z</time>
      </trkpt>
      <trkpt lat="45.2289" lon="5.76719">
        <ele>616</ele>
        <time>2011-08-10T17:47:15Z</time>
      </trkpt>
      <trkpt lat="45.22891" lon="5.76719">
        <ele>616</ele>
        <time>2011-08-10T17:47:16Z</time>
      </trkpt>
      <trkpt lat="45.22894" lon="5.76727">
        <ele>616</ele>
        <time>2011-08-10T17:47:29Z</time>
      </trkpt>
      <trkpt lat="45.22895" lon="5.7673">
        <ele>616</ele>
        <time>2011-08-10T17:47:42Z</time>
      </trkpt>
      <trkpt lat="45.22895" lon="5.7673">
        <ele>616</ele>
        <time>2011-08-10T17:48:25Z</time>
      </trkpt>
      <trkpt lat="45.22896" lon="5.7673">
        <ele>616</ele>
        <time>2011-08-10T17:49:00Z</time>
      </trkpt>
      <trkpt lat="45.22897" lon="5.76731">
        <ele>616</ele>
        <time>2011-08-10T17:52:22Z</time>
      </trkpt>
      <trkpt lat="45.22899" lon="5.76732">
        <ele>616</ele>
        <time>2011-08-10T18:01:53Z</time>
      </trkpt>
      <trkpt lat="45.22899" lon="5.76732">
        <ele>616</ele>
        <time>2011-08-10T18:03:05Z</time>
      </trkpt>
      <trkpt lat="45.22899" lon="5.76734">
        <ele>616</ele>
        <time>2011-08-10T18:03:17Z</time>
      </trkpt>
      <trkpt lat="45.22894" lon="5.76743">
        <ele>615</ele>
        <time>2011-08-10T18:03:21Z</time>
      </trkpt>
      <trkpt lat="45.22891" lon="5.76755">
        <ele>605</ele>
        <time>2011-08-10T18:03:23Z</time>
      </trkpt>
      <trkpt lat="45.22885" lon="5.76763">
        <ele>603</ele>
        <time>2011-08-10T18:03:27Z</time>
      </trkpt>
      <trkpt lat="45.22878" lon="5.76796">
        <ele>599</ele>
        <time>2011-08-10T18:03:36Z</time>
      </trkpt>
      <trkpt lat="45.22887" lon="5.76816">
        <ele>598</ele>
        <time>2011-08-10T18:03:41Z</time>
      </trkpt>
      <trkpt lat="45.22892" lon="5.76832">
        <ele>599</ele>
        <time>2011-08-10T18:03:45Z</time>
      </trkpt>
      <trkpt lat="45.2289" lon="5.76843">
        <ele>590</ele>
        <time>2011-08-10T18:03:49Z</time>
      </trkpt>
      <trkpt lat="45.22887" lon="5.76864">
        <ele>588</ele>
        <time>2011-08-10T18:03:57Z</time>
      </trkpt>
      <trkpt lat="45.22889" lon="5.76871">
        <ele>587</ele>
        <time>2011-08-10T18:04:00Z</time>
      </trkpt>
      <trkpt lat="45.22893" lon="5.76877">
        <ele>587</ele>
        <time>2011-08-10T18:04:02Z</time>
      </trkpt>
      <trkpt lat="45.22895" lon="5.76896">
        <ele>586</ele>
        <time>2011-08-10T18:04:11Z</time>
      </trkpt>
      <trkpt lat="45.22899" lon="5.76903">
        <ele>587</ele>
        <time>2011-08-10T18:04:14Z</time>
      </trkpt>
      <trkpt lat="45.22898" lon="5.76912">
        <ele>587</ele>
        <time>2011-08-10T18:04:23Z</time>
      </trkpt>
      <trkpt lat="45.22887" lon="5.76901">
        <ele>585</ele>
        <time>2011-08-10T18:04:28Z</time>
      </trkpt>
      <trkpt lat="45.22886" lon="5.76922">
        <ele>578</ele>
        <time>2011-08-10T18:04:36Z</time>
      </trkpt>
      <trkpt lat="45.22907" lon="5.76948">
        <ele>578</ele>
        <time>2011-08-10T18:04:46Z</time>
      </trkpt>
      <trkpt lat="45.2292" lon="5.76964">
        <ele>589</ele>
        <time>2011-08-10T18:04:56Z</time>
      </trkpt>
      <trkpt lat="45.2292" lon="5.76967">
        <ele>589</ele>
        <time>2011-08-10T18:05:13Z</time>
      </trkpt>
      <trkpt lat="45.22919" lon="5.76977">
        <ele>586</ele>
        <time>2011-08-10T18:05:18Z</time>
      </trkpt>
      <trkpt lat="45.22913" lon="5.76989">
        <ele>575</ele>
        <time>2011-08-10T18:05:23Z</time>
      </trkpt>
      <trkpt lat="45.22905" lon="5.77007">
        <ele>569</ele>
        <time>2011-08-10T18:05:29Z</time>
      </trkpt>
      <trkpt lat="45.22909" lon="5.77028">
        <ele>565</ele>
        <time>2011-08-10T18:05:37Z</time>
      </trkpt>
      <trkpt lat="45.22911" lon="5.77031">
        <ele>565</ele>
        <time>2011-08-10T18:05:39Z</time>
      </trkpt>
      <trkpt lat="45.22916" lon="5.77038">
        <ele>564</ele>
        <time>2011-08-10T18:05:43Z</time>
      </trkpt>
      <trkpt lat="45.22918" lon="5.7705">
        <ele>576</ele>
        <time>2011-08-10T18:05:47Z</time>
      </trkpt>
      <trkpt lat="45.2292" lon="5.7706">
        <ele>574</ele>
        <time>2011-08-10T18:05:50Z</time>
      </trkpt>
      <trkpt lat="45.22916" lon="5.77099">
        <ele>559</ele>
        <time>2011-08-10T18:06:01Z</time>
      </trkpt>
      <trkpt lat="45.22912" lon="5.77107">
        <ele>556</ele>
        <time>2011-08-10T18:06:04Z</time>
      </trkpt>
      <trkpt lat="45.2291" lon="5.77134">
        <ele>553</ele>
        <time>2011-08-10T18:06:13Z</time>
      </trkpt>
      <trkpt lat="45.22911" lon="5.77153">
        <ele>554</ele>
        <time>2011-08-10T18:06:18Z</time>
      </trkpt>
      <trkpt lat="45.22914" lon="5.77174">
        <ele>552</ele>
        <time>2011-08-10T18:06:26Z</time>
      </trkpt>
      <trkpt lat="45.22917" lon="5.77182">
        <ele>559</ele>
        <time>2011-08-10T18:06:33Z</time>
      </trkpt>
      <trkpt lat="45.22917" lon="5.77185">
        <ele>560</ele>
        <time>2011-08-10T18:06:34Z</time>
      </trkpt>
      <trkpt lat="45.22918" lon="5.77189">
        <ele>560</ele>
        <time>2011-08-10T18:06:36Z</time>
      </trkpt>
      <trkpt lat="45.2292" lon="5.77206">
        <ele>560</ele>
        <time>2011-08-10T18:06:46Z</time>
      </trkpt>
      <trkpt lat="45.22917" lon="5.77218">
        <ele>559</ele>
        <time>2011-08-10T18:06:52Z</time>
      </trkpt>
      <trkpt lat="45.22915" lon="5.77227">
        <ele>544</ele>
        <time>2011-08-10T18:06:56Z</time>
      </trkpt>
      <trkpt lat="45.22908" lon="5.77231">
        <ele>544</ele>
        <time>2011-08-10T18:06:59Z</time>
      </trkpt>
      <trkpt lat="45.22904" lon="5.77238">
        <ele>543</ele>
        <time>2011-08-10T18:07:04Z</time>
      </trkpt>
      <trkpt lat="45.22899" lon="5.77249">
        <ele>543</ele>
        <time>2011-08-10T18:07:10Z</time>
      </trkpt>
      <trkpt lat="45.22895" lon="5.77253">
        <ele>538</ele>
        <time>2011-08-10T18:07:27Z</time>
      </trkpt>
      <trkpt lat="45.22895" lon="5.77253">
        <ele>538</ele>
        <time>2011-08-10T18:07:38Z</time>
      </trkpt>
      <trkpt lat="45.22878" lon="5.7726">
        <ele>534</ele>
        <time>2011-08-10T18:07:47Z</time>
      </trkpt>
      <trkpt lat="45.22868" lon="5.77271">
        <ele>532</ele>
        <time>2011-08-10T18:07:51Z</time>
      </trkpt>
      <trkpt lat="45.22861" lon="5.77276">
        <ele>531</ele>
        <time>2011-08-10T18:07:59Z</time>
      </trkpt>
      <trkpt lat="45.22853" lon="5.77272">
        <ele>530</ele>
        <time>2011-08-10T18:08:03Z</time>
      </trkpt>
      <trkpt lat="45.22842" lon="5.77283">
        <ele>529</ele>
        <time>2011-08-10T18:08:08Z</time>
      </trkpt>
      <trkpt lat="45.22829" lon="5.77298">
        <ele>514</ele>
        <time>2011-08-10T18:08:16Z</time>
      </trkpt>
      <trkpt lat="45.22822" lon="5.77303">
        <ele>514</ele>
        <time>2011-08-10T18:08:20Z</time>
      </trkpt>
      <trkpt lat="45.22816" lon="5.77316">
        <ele>514</ele>
        <time>2011-08-10T18:08:26Z</time>
      </trkpt>
      <trkpt lat="45.22824" lon="5.77337">
        <ele>513</ele>
        <time>2011-08-10T18:08:34Z</time>
      </trkpt>
      <trkpt lat="45.22827" lon="5.77342">
        <ele>513</ele>
        <time>2011-08-10T18:08:44Z</time>
      </trkpt>
      <trkpt lat="45.22814" lon="5.77364">
        <ele>507</ele>
        <time>2011-08-10T18:08:50Z</time>
      </trkpt>
      <trkpt lat="45.22802" lon="5.77381">
        <ele>505</ele>
        <time>2011-08-10T18:08:53Z</time>
      </trkpt>
      <trkpt lat="45.2279" lon="5.77395">
        <ele>502</ele>
        <time>2011-08-10T18:08:59Z</time>
      </trkpt>
      <trkpt lat="45.22784" lon="5.77388">
        <ele>501</ele>
        <time>2011-08-10T18:09:05Z</time>
      </trkpt>
      <trkpt lat="45.22777" lon="5.7741">
        <ele>498</ele>
        <time>2011-08-10T18:09:12Z</time>
      </trkpt>
      <trkpt lat="45.22772" lon="5.77416">
        <ele>497</ele>
        <time>2011-08-10T18:09:14Z</time>
      </trkpt>
      <trkpt lat="45.2276" lon="5.77432">
        <ele>491</ele>
        <time>2011-08-10T18:09:20Z</time>
      </trkpt>
      <trkpt lat="45.22746" lon="5.77439">
        <ele>479</ele>
        <time>2011-08-10T18:09:24Z</time>
      </trkpt>
      <trkpt lat="45.22735" lon="5.77451">
        <ele>476</ele>
        <time>2011-08-10T18:09:28Z</time>
      </trkpt>
      <trkpt lat="45.2273" lon="5.77471">
        <ele>474</ele>
        <time>2011-08-10T18:09:32Z</time>
      </trkpt>
      <trkpt lat="45.22703" lon="5.77482">
        <ele>470</ele>
        <time>2011-08-10T18:09:41Z</time>
      </trkpt>
      <trkpt lat="45.22691" lon="5.77457">
        <ele>470</ele>
        <time>2011-08-10T18:09:54Z</time>
      </trkpt>
      <trkpt lat="45.22681" lon="5.77407">
        <ele>474</ele>
        <time>2011-08-10T18:10:16Z</time>
      </trkpt>
      <trkpt lat="45.22672" lon="5.7736">
        <ele>479</ele>
        <time>2011-08-10T18:10:35Z</time>
      </trkpt>
      <trkpt lat="45.22661" lon="5.77312">
        <ele>482</ele>
        <time>2011-08-10T18:10:55Z</time>
      </trkpt>
      <trkpt lat="45.22643" lon="5.77276">
        <ele>486</ele>
        <time>2011-08-10T18:11:11Z</time>
      </trkpt>
      <trkpt lat="45.22613" lon="5.77244">
        <ele>496</ele>
        <time>2011-08-10T18:11:31Z</time>
      </trkpt>
      <trkpt lat="45.22586" lon="5.77237">
        <ele>494</ele>
        <time>2011-08-10T18:11:45Z</time>
      </trkpt>
      <trkpt lat="45.2255" lon="5.77231">
        <ele>492</ele>
        <time>2011-08-10T18:12:00Z</time>
      </trkpt>
      <trkpt lat="45.22514" lon="5.77236">
        <ele>489</ele>
        <time>2011-08-10T18:12:13Z</time>
      </trkpt>
      <trkpt lat="45.225" lon="5.7723">
        <ele>489</ele>
        <time>2011-08-10T18:12:18Z</time>
      </trkpt>
      <trkpt lat="45.22487" lon="5.77178">
        <ele>482</ele>
        <time>2011-08-10T18:12:31Z</time>
      </trkpt>
      <trkpt lat="45.22504" lon="5.77135">
        <ele>496</ele>
        <time>2011-08-10T18:12:45Z</time>
      </trkpt>
      <trkpt lat="45.22528" lon="5.77091">
        <ele>498</ele>
        <time>2011-08-10T18:13:01Z</time>
      </trkpt>
      <trkpt lat="45.22542" lon="5.77038">
        <ele>506</ele>
        <time>2011-08-10T18:13:14Z</time>
      </trkpt>
      <trkpt lat="45.22534" lon="5.76983">
        <ele>512</ele>
        <time>2011-08-10T18:13:28Z</time>
      </trkpt>
      <trkpt lat="45.22502" lon="5.76956">
        <ele>511</ele>
        <time>2011-08-10T18:13:39Z</time>
      </trkpt>
      <trkpt lat="45.22474" lon="5.76925">
        <ele>502</ele>
        <time>2011-08-10T18:13:45Z</time>
      </trkpt>
      <trkpt lat="45.22444" lon="5.76859">
        <ele>513</ele>
        <time>2011-08-10T18:13:57Z</time>
      </trkpt>
      <trkpt lat="45.22407" lon="5.76823">
        <ele>516</ele>
        <time>2011-08-10T18:14:12Z</time>
      </trkpt>
      <trkpt lat="45.22359" lon="5.768">
        <ele>516</ele>
        <time>2011-08-10T18:14:31Z</time>
      </trkpt>
      <trkpt lat="45.2235" lon="5.7679">
        <ele>516</ele>
        <time>2011-08-10T18:14:42Z</time>
      </trkpt>
      <trkpt lat="45.22349" lon="5.76791">
        <ele>516</ele>
        <time>2011-08-10T18:14:50Z</time>
      </trkpt>
      <trkpt lat="45.22354" lon="5.76798">
        <ele>516</ele>
        <time>2011-08-10T18:14:54Z</time>
      </trkpt>
      <trkpt lat="45.22402" lon="5.76825">
        <ele>516</ele>
        <time>2011-08-10T18:15:05Z</time>
      </trkpt>
      <trkpt lat="45.22423" lon="5.76837">
        <ele>514</ele>
        <time>2011-08-10T18:15:09Z</time>
      </trkpt>
      <trkpt lat="45.22438" lon="5.76855">
        <ele>513</ele>
        <time>2011-08-10T18:15:13Z</time>
      </trkpt>
      <trkpt lat="45.22467" lon="5.76919">
        <ele>501</ele>
        <time>2011-08-10T18:15:25Z</time>
      </trkpt>
      <trkpt lat="45.22474" lon="5.7693">
        <ele>501</ele>
        <time>2011-08-10T18:15:35Z</time>
      </trkpt>
      <trkpt lat="45.22475" lon="5.76934">
        <ele>501</ele>
        <time>2011-08-10T18:15:56Z</time>
      </trkpt>
      <trkpt lat="45.22475" lon="5.76933">
        <ele>501</ele>
        <time>2011-08-10T18:17:53Z</time>
      </trkpt>
      <trkpt lat="45.22464" lon="5.76911">
        <ele>510</ele>
        <time>2011-08-10T18:18:03Z</time>
      </trkpt>
      <trkpt lat="45.22437" lon="5.76851">
        <ele>514</ele>
        <time>2011-08-10T18:18:20Z</time>
      </trkpt>
      <trkpt lat="45.22413" lon="5.76826">
        <ele>516</ele>
        <time>2011-08-10T18:18:31Z</time>
      </trkpt>
      <trkpt lat="45.22363" lon="5.76801">
        <ele>516</ele>
        <time>2011-08-10T18:18:50Z</time>
      </trkpt>
      <trkpt lat="45.22355" lon="5.76796">
        <ele>516</ele>
        <time>2011-08-10T18:18:54Z</time>
      </trkpt>
      <trkpt lat="45.22354" lon="5.76792">
        <ele>516</ele>
        <time>2011-08-10T18:19:00Z</time>
      </trkpt>
      <trkpt lat="45.22343" lon="5.76788">
        <ele>516</ele>
        <time>2011-08-10T18:19:05Z</time>
      </trkpt>
      <trkpt lat="45.22326" lon="5.76789">
        <ele>510</ele>
        <time>2011-08-10T18:19:09Z</time>
      </trkpt>
      <trkpt lat="45.22308" lon="5.76784">
        <ele>509</ele>
        <time>2011-08-10T18:19:12Z</time>
      </trkpt>
      <trkpt lat="45.22274" lon="5.76741">
        <ele>510</ele>
        <time>2011-08-10T18:19:18Z</time>
      </trkpt>
      <trkpt lat="45.22206" lon="5.76596">
        <ele>499</ele>
        <time>2011-08-10T18:19:30Z</time>
      </trkpt>
      <trkpt lat="45.22152" lon="5.76551">
        <ele>488</ele>
        <time>2011-08-10T18:19:37Z</time>
      </trkpt>
      <trkpt lat="45.22127" lon="5.76512">
        <ele>487</ele>
        <time>2011-08-10T18:19:42Z</time>
      </trkpt>
      <trkpt lat="45.22112" lon="5.76466">
        <ele>488</ele>
        <time>2011-08-10T18:19:46Z</time>
      </trkpt>
      <trkpt lat="45.22031" lon="5.76335">
        <ele>476</ele>
        <time>2011-08-10T18:19:58Z</time>
      </trkpt>
      <trkpt lat="45.22015" lon="5.76308">
        <ele>478</ele>
        <time>2011-08-10T18:20:01Z</time>
      </trkpt>
      <trkpt lat="45.21992" lon="5.76315">
        <ele>472</ele>
        <time>2011-08-10T18:20:07Z</time>
      </trkpt>
      <trkpt lat="45.21993" lon="5.7632">
        <ele>472</ele>
        <time>2011-08-10T18:20:08Z</time>
      </trkpt>
      <trkpt lat="45.21997" lon="5.76362">
        <ele>468</ele>
        <time>2011-08-10T18:20:19Z</time>
      </trkpt>
      <trkpt lat="45.2203" lon="5.76438">
        <ele>471</ele>
        <time>2011-08-10T18:20:29Z</time>
      </trkpt>
      <trkpt lat="45.22036" lon="5.76448">
        <ele>471</ele>
        <time>2011-08-10T18:20:30Z</time>
      </trkpt>
      <trkpt lat="45.2205" lon="5.76499">
        <ele>472</ele>
        <time>2011-08-10T18:20:34Z</time>
      </trkpt>
      <trkpt lat="45.2205" lon="5.76526">
        <ele>469</ele>
        <time>2011-08-10T18:20:36Z</time>
      </trkpt>
      <trkpt lat="45.22023" lon="5.76566">
        <ele>463</ele>
        <time>2011-08-10T18:20:41Z</time>
      </trkpt>
      <trkpt lat="45.22003" lon="5.76598">
        <ele>458</ele>
        <time>2011-08-10T18:20:46Z</time>
      </trkpt>
      <trkpt lat="45.22001" lon="5.7661">
        <ele>459</ele>
        <time>2011-08-10T18:20:50Z</time>
      </trkpt>
      <trkpt lat="45.21997" lon="5.76604">
        <ele>445</ele>
        <time>2011-08-10T18:20:56Z</time>
      </trkpt>
      <trkpt lat="45.21997" lon="5.76597">
        <ele>447</ele>
        <time>2011-08-10T18:20:58Z</time>
      </trkpt>
      <trkpt lat="45.21982" lon="5.76574">
        <ele>450</ele>
        <time>2011-08-10T18:21:08Z</time>
      </trkpt>
      <trkpt lat="45.21971" lon="5.76564">
        <ele>448</ele>
        <time>2011-08-10T18:21:12Z</time>
      </trkpt>
      <trkpt lat="45.21961" lon="5.76554">
        <ele>447</ele>
        <time>2011-08-10T18:21:15Z</time>
      </trkpt>
      <trkpt lat="45.21935" lon="5.76554">
        <ele>443</ele>
        <time>2011-08-10T18:21:21Z</time>
      </trkpt>
      <trkpt lat="45.21923" lon="5.76559">
        <ele>440</ele>
        <time>2011-08-10T18:21:23Z</time>
      </trkpt>
      <trkpt lat="45.21892" lon="5.76556">
        <ele>427</ele>
        <time>2011-08-10T18:21:27Z</time>
      </trkpt>
      <trkpt lat="45.2187" lon="5.76541">
        <ele>425</ele>
        <time>2011-08-10T18:21:30Z</time>
      </trkpt>
      <trkpt lat="45.21838" lon="5.76538">
        <ele>422</ele>
        <time>2011-08-10T18:21:38Z</time>
      </trkpt>
      <trkpt lat="45.21836" lon="5.76542">
        <ele>422</ele>
        <time>2011-08-10T18:21:42Z</time>
      </trkpt>
      <trkpt lat="45.21829" lon="5.76544">
        <ele>407</ele>
        <time>2011-08-10T18:21:46Z</time>
      </trkpt>
      <trkpt lat="45.21822" lon="5.76538">
        <ele>407</ele>
        <time>2011-08-10T18:21:49Z</time>
      </trkpt>
      <trkpt lat="45.21801" lon="5.76502">
        <ele>409</ele>
        <time>2011-08-10T18:21:56Z</time>
      </trkpt>
      <trkpt lat="45.21754" lon="5.76433">
        <ele>416</ele>
        <time>2011-08-10T18:22:14Z</time>
      </trkpt>
      <trkpt lat="45.21745" lon="5.76403">
        <ele>406</ele>
        <time>2011-08-10T18:22:21Z</time>
      </trkpt>
      <trkpt lat="45.21744" lon="5.76372">
        <ele>403</ele>
        <time>2011-08-10T18:22:26Z</time>
      </trkpt>
      <trkpt lat="45.2177" lon="5.76244">
        <ele>415</ele>
        <time>2011-08-10T18:22:39Z</time>
      </trkpt>
      <trkpt lat="45.21744" lon="5.76174">
        <ele>407</ele>
        <time>2011-08-10T18:22:46Z</time>
      </trkpt>
      <trkpt lat="45.21736" lon="5.76167">
        <ele>410</ele>
        <time>2011-08-10T18:22:47Z</time>
      </trkpt>
      <trkpt lat="45.21691" lon="5.76142">
        <ele>405</ele>
        <time>2011-08-10T18:22:54Z</time>
      </trkpt>
      <trkpt lat="45.21621" lon="5.76106">
        <ele>390</ele>
        <time>2011-08-10T18:23:07Z</time>
      </trkpt>
      <trkpt lat="45.21614" lon="5.76103">
        <ele>389</ele>
        <time>2011-08-10T18:23:08Z</time>
      </trkpt>
      <trkpt lat="45.21592" lon="5.76084">
        <ele>386</ele>
        <time>2011-08-10T18:23:13Z</time>
      </trkpt>
      <trkpt lat="45.21585" lon="5.76079">
        <ele>386</ele>
        <time>2011-08-10T18:23:18Z</time>
      </trkpt>
      <trkpt lat="45.21583" lon="5.7609">
        <ele>379</ele>
        <time>2011-08-10T18:23:21Z</time>
      </trkpt>
      <trkpt lat="45.21602" lon="5.76137">
        <ele>386</ele>
        <time>2011-08-10T18:23:29Z</time>
      </trkpt>
      <trkpt lat="45.21615" lon="5.76165">
        <ele>385</ele>
        <time>2011-08-10T18:23:33Z</time>
      </trkpt>
      <trkpt lat="45.21641" lon="5.76194">
        <ele>378</ele>
        <time>2011-08-10T18:23:37Z</time>
      </trkpt>
      <trkpt lat="45.2166" lon="5.76222">
        <ele>378</ele>
        <time>2011-08-10T18:23:41Z</time>
      </trkpt>
      <trkpt lat="45.2167" lon="5.76254">
        <ele>385</ele>
        <time>2011-08-10T18:23:48Z</time>
      </trkpt>
      <trkpt lat="45.21672" lon="5.76258">
        <ele>387</ele>
        <time>2011-08-10T18:23:50Z</time>
      </trkpt>
      <trkpt lat="45.21672" lon="5.76274">
        <ele>390</ele>
        <time>2011-08-10T18:23:54Z</time>
      </trkpt>
      <trkpt lat="45.21667" lon="5.76315">
        <ele>390</ele>
        <time>2011-08-10T18:24:04Z</time>
      </trkpt>
      <trkpt lat="45.21669" lon="5.7632">
        <ele>389</ele>
        <time>2011-08-10T18:24:12Z</time>
      </trkpt>
      <trkpt lat="45.21662" lon="5.76331">
        <ele>379</ele>
        <time>2011-08-10T18:24:18Z</time>
      </trkpt>
      <trkpt lat="45.21662" lon="5.76347">
        <ele>372</ele>
        <time>2011-08-10T18:24:30Z</time>
      </trkpt>
      <trkpt lat="45.21661" lon="5.7636">
        <ele>367</ele>
        <time>2011-08-10T18:24:39Z</time>
      </trkpt>
      <trkpt lat="45.21661" lon="5.76362">
        <ele>367</ele>
        <time>2011-08-10T18:24:41Z</time>
      </trkpt>
      <trkpt lat="45.21663" lon="5.76386">
        <ele>366</ele>
        <time>2011-08-10T18:24:52Z</time>
      </trkpt>
      <trkpt lat="45.21661" lon="5.76426">
        <ele>370</ele>
        <time>2011-08-10T18:24:59Z</time>
      </trkpt>
      <trkpt lat="45.21647" lon="5.76476">
        <ele>357</ele>
        <time>2011-08-10T18:25:07Z</time>
      </trkpt>
      <trkpt lat="45.21646" lon="5.7649">
        <ele>358</ele>
        <time>2011-08-10T18:25:09Z</time>
      </trkpt>
      <trkpt lat="45.21648" lon="5.76519">
        <ele>352</ele>
        <time>2011-08-10T18:25:12Z</time>
      </trkpt>
      <trkpt lat="45.21664" lon="5.76577">
        <ele>353</ele>
        <time>2011-08-10T18:25:21Z</time>
      </trkpt>
      <trkpt lat="45.21689" lon="5.76603">
        <ele>357</ele>
        <time>2011-08-10T18:25:28Z</time>
      </trkpt>
      <trkpt lat="45.2169" lon="5.76603">
        <ele>357</ele>
        <time>2011-08-10T18:25:29Z</time>
      </trkpt>
      <trkpt lat="45.21695" lon="5.7661">
        <ele>357</ele>
        <time>2011-08-10T18:25:34Z</time>
      </trkpt>
      <trkpt lat="45.21667" lon="5.76611">
        <ele>355</ele>
        <time>2011-08-10T18:25:46Z</time>
      </trkpt>
      <trkpt lat="45.21675" lon="5.76626">
        <ele>354</ele>
        <time>2011-08-10T18:25:54Z</time>
      </trkpt>
      <trkpt lat="45.21657" lon="5.76617">
        <ele>336</ele>
        <time>2011-08-10T18:26:02Z</time>
      </trkpt>
      <trkpt lat="45.2167" lon="5.76642">
        <ele>350</ele>
        <time>2011-08-10T18:26:10Z</time>
      </trkpt>
      <trkpt lat="45.21646" lon="5.76639">
        <ele>331</ele>
        <time>2011-08-10T18:26:18Z</time>
      </trkpt>
      <trkpt lat="45.21645" lon="5.76639">
        <ele>331</ele>
        <time>2011-08-10T18:26:19Z</time>
      </trkpt>
      <trkpt lat="45.21647" lon="5.76641">
        <ele>331</ele>
        <time>2011-08-10T18:26:24Z</time>
      </trkpt>
      <trkpt lat="45.21636" lon="5.7665">
        <ele>328</ele>
        <time>2011-08-10T18:26:36Z</time>
      </trkpt>
      <trkpt lat="45.21632" lon="5.76651">
        <ele>327</ele>
        <time>2011-08-10T18:26:39Z</time>
      </trkpt>
      <trkpt lat="45.21636" lon="5.76659">
        <ele>328</ele>
        <time>2011-08-10T18:26:45Z</time>
      </trkpt>
      <trkpt lat="45.21617" lon="5.76664">
        <ele>321</ele>
        <time>2011-08-10T18:26:55Z</time>
      </trkpt>
      <trkpt lat="45.2161" lon="5.76651">
        <ele>320</ele>
        <time>2011-08-10T18:27:00Z</time>
      </trkpt>
      <trkpt lat="45.21592" lon="5.76636">
        <ele>319</ele>
        <time>2011-08-10T18:27:04Z</time>
      </trkpt>
      <trkpt lat="45.21575" lon="5.76624">
        <ele>291</ele>
        <time>2011-08-10T18:27:08Z</time>
      </trkpt>
      <trkpt lat="45.21562" lon="5.76611">
        <ele>290</ele>
        <time>2011-08-10T18:27:19Z</time>
      </trkpt>
      <trkpt lat="45.21561" lon="5.76606">
        <ele>291</ele>
        <time>2011-08-10T18:27:35Z</time>
      </trkpt>
      <trkpt lat="45.21561" lon="5.766">
        <ele>292</ele>
        <time>2011-08-10T18:27:41Z</time>
      </trkpt>
      <trkpt lat="45.21559" lon="5.76589">
        <ele>293</ele>
        <time>2011-08-10T18:27:45Z</time>
      </trkpt>
      <trkpt lat="45.21564" lon="5.76563">
        <ele>299</ele>
        <time>2011-08-10T18:27:54Z</time>
      </trkpt>
      <trkpt lat="45.21547" lon="5.76533">
        <ele>293</ele>
        <time>2011-08-10T18:28:02Z</time>
      </trkpt>
      <trkpt lat="45.21529" lon="5.765">
        <ele>286</ele>
        <time>2011-08-10T18:28:13Z</time>
      </trkpt>
      <trkpt lat="45.21525" lon="5.76486">
        <ele>289</ele>
        <time>2011-08-10T18:28:18Z</time>
      </trkpt>
      <trkpt lat="45.21518" lon="5.76475">
        <ele>288</ele>
        <time>2011-08-10T18:28:22Z</time>
      </trkpt>
      <trkpt lat="45.21513" lon="5.76472">
        <ele>287</ele>
        <time>2011-08-10T18:28:25Z</time>
      </trkpt>
      <trkpt lat="45.21505" lon="5.76457">
        <ele>288</ele>
        <time>2011-08-10T18:28:39Z</time>
      </trkpt>
      <trkpt lat="45.21496" lon="5.76454">
        <ele>261</ele>
        <time>2011-08-10T18:28:52Z</time>
      </trkpt>
      <trkpt lat="45.21468" lon="5.76454">
        <ele>258</ele>
        <time>2011-08-10T18:29:02Z</time>
      </trkpt>
      <trkpt lat="45.21457" lon="5.76454">
        <ele>256</ele>
        <time>2011-08-10T18:29:11Z</time>
      </trkpt>
      <trkpt lat="45.21454" lon="5.76454">
        <ele>255</ele>
        <time>2011-08-10T18:29:29Z</time>
      </trkpt>
      <trkpt lat="45.21452" lon="5.76454">
        <ele>255</ele>
        <time>2011-08-10T18:29:35Z</time>
      </trkpt>
      <trkpt lat="45.21422" lon="5.76475">
        <ele>249</ele>
        <time>2011-08-10T18:29:43Z</time>
      </trkpt>
      <trkpt lat="45.21403" lon="5.76485">
        <ele>238</ele>
        <time>2011-08-10T18:29:50Z</time>
      </trkpt>
      <trkpt lat="45.21401" lon="5.76488">
        <ele>238</ele>
        <time>2011-08-10T18:30:03Z</time>
      </trkpt>
      <trkpt lat="45.21384" lon="5.76449">
        <ele>236</ele>
        <time>2011-08-10T18:30:14Z</time>
      </trkpt>
      <trkpt lat="45.21339" lon="5.76341">
        <ele>237</ele>
        <time>2011-08-10T18:30:31Z</time>
      </trkpt>
      <trkpt lat="45.21306" lon="5.76204">
        <ele>234</ele>
        <time>2011-08-10T18:30:48Z</time>
      </trkpt>
      <trkpt lat="45.21279" lon="5.76058">
        <ele>236</ele>
        <time>2011-08-10T18:31:08Z</time>
      </trkpt>
      <trkpt lat="45.21257" lon="5.75927">
        <ele>235</ele>
        <time>2011-08-10T18:31:25Z</time>
      </trkpt>
      <trkpt lat="45.2123" lon="5.75811">
        <ele>235</ele>
        <time>2011-08-10T18:31:42Z</time>
      </trkpt>
      <trkpt lat="45.21196" lon="5.75669">
        <ele>238</ele>
        <time>2011-08-10T18:32:04Z</time>
      </trkpt>
      <trkpt lat="45.21156" lon="5.75559">
        <ele>239</ele>
        <time>2011-08-10T18:32:25Z</time>
      </trkpt>
      <trkpt lat="45.21096" lon="5.75431">
        <ele>245</ele>
        <time>2011-08-10T18:32:52Z</time>
      </trkpt>
      <trkpt lat="45.21061" lon="5.75358">
        <ele>248</ele>
        <time>2011-08-10T18:33:09Z</time>
      </trkpt>
      <trkpt lat="45.21017" lon="5.75264">
        <ele>251</ele>
        <time>2011-08-10T18:33:30Z</time>
      </trkpt>
      <trkpt lat="45.20968" lon="5.75159">
        <ele>257</ele>
        <time>2011-08-10T18:33:54Z</time>
      </trkpt>
      <trkpt lat="45.20929" lon="5.75066">
        <ele>261</ele>
        <time>2011-08-10T18:34:13Z</time>
      </trkpt>
      <trkpt lat="45.20892" lon="5.74957">
        <ele>262</ele>
        <time>2011-08-10T18:34:34Z</time>
      </trkpt>
      <trkpt lat="45.20869" lon="5.74896">
        <ele>263</ele>
        <time>2011-08-10T18:34:45Z</time>
      </trkpt>
      <trkpt lat="45.20802" lon="5.74802">
        <ele>260</ele>
        <time>2011-08-10T18:35:01Z</time>
      </trkpt>
      <trkpt lat="45.20778" lon="5.7477">
        <ele>259</ele>
        <time>2011-08-10T18:35:06Z</time>
      </trkpt>
      <trkpt lat="45.20734" lon="5.74657">
        <ele>251</ele>
        <time>2011-08-10T18:35:19Z</time>
      </trkpt>
      <trkpt lat="45.20703" lon="5.74561">
        <ele>250</ele>
        <time>2011-08-10T18:35:29Z</time>
      </trkpt>
      <trkpt lat="45.2071" lon="5.74454">
        <ele>249</ele>
        <time>2011-08-10T18:35:39Z</time>
      </trkpt>
      <trkpt lat="45.20705" lon="5.74411">
        <ele>248</ele>
        <time>2011-08-10T18:35:43Z</time>
      </trkpt>
      <trkpt lat="45.20654" lon="5.74267">
        <ele>245</ele>
        <time>2011-08-10T18:35:58Z</time>
      </trkpt>
      <trkpt lat="45.20604" lon="5.74096">
        <ele>241</ele>
        <time>2011-08-10T18:36:15Z</time>
      </trkpt>
      <trkpt lat="45.2056" lon="5.73944">
        <ele>236</ele>
        <time>2011-08-10T18:36:31Z</time>
      </trkpt>
      <trkpt lat="45.20546" lon="5.73893">
        <ele>237</ele>
        <time>2011-08-10T18:36:37Z</time>
      </trkpt>
      <trkpt lat="45.20523" lon="5.73855">
        <ele>236</ele>
        <time>2011-08-10T18:36:46Z</time>
      </trkpt>
      <trkpt lat="45.20508" lon="5.73837">
        <ele>234</ele>
        <time>2011-08-10T18:36:52Z</time>
      </trkpt>
      <trkpt lat="45.20437" lon="5.73753">
        <ele>225</ele>
        <time>2011-08-10T18:37:05Z</time>
      </trkpt>
      <trkpt lat="45.20359" lon="5.73649">
        <ele>225</ele>
        <time>2011-08-10T18:37:20Z</time>
      </trkpt>
      <trkpt lat="45.20284" lon="5.73548">
        <ele>220</ele>
        <time>2011-08-10T18:37:36Z</time>
      </trkpt>
      <trkpt lat="45.20209" lon="5.73436">
        <ele>217</ele>
        <time>2011-08-10T18:37:50Z</time>
      </trkpt>
      <trkpt lat="45.20194" lon="5.73419">
        <ele>216</ele>
        <time>2011-08-10T18:37:53Z</time>
      </trkpt>
      <trkpt lat="45.20117" lon="5.73381">
        <ele>218</ele>
        <time>2011-08-10T18:38:05Z</time>
      </trkpt>
      <trkpt lat="45.20029" lon="5.73342">
        <ele>217</ele>
        <time>2011-08-10T18:38:20Z</time>
      </trkpt>
      <trkpt lat="45.19933" lon="5.73299">
        <ele>225</ele>
        <time>2011-08-10T18:38:39Z</time>
      </trkpt>
      <trkpt lat="45.19833" lon="5.73271">
        <ele>214</ele>
        <time>2011-08-10T18:38:57Z</time>
      </trkpt>
      <trkpt lat="45.19769" lon="5.73245">
        <ele>216</ele>
        <time>2011-08-10T18:39:11Z</time>
      </trkpt>
      <trkpt lat="45.19765" lon="5.73243">
        <ele>216</ele>
        <time>2011-08-10T18:39:12Z</time>
      </trkpt>
      <trkpt lat="45.19726" lon="5.73222">
        <ele>214</ele>
        <time>2011-08-10T18:39:20Z</time>
      </trkpt>
      <trkpt lat="45.19643" lon="5.73144">
        <ele>218</ele>
        <time>2011-08-10T18:39:37Z</time>
      </trkpt>
      <trkpt lat="45.1959" lon="5.73063">
        <ele>220</ele>
        <time>2011-08-10T18:39:53Z</time>
      </trkpt>
      <trkpt lat="45.19565" lon="5.73023">
        <ele>215</ele>
        <time>2011-08-10T18:40:02Z</time>
      </trkpt>
      <trkpt lat="45.19557" lon="5.73011">
        <ele>215</ele>
        <time>2011-08-10T18:40:05Z</time>
      </trkpt>
      <trkpt lat="45.19539" lon="5.72984">
        <ele>216</ele>
        <time>2011-08-10T18:40:11Z</time>
      </trkpt>
      <trkpt lat="45.19517" lon="5.72954">
        <ele>216</ele>
        <time>2011-08-10T18:40:17Z</time>
      </trkpt>
      <trkpt lat="45.19471" lon="5.72885">
        <ele>215</ele>
        <time>2011-08-10T18:40:30Z</time>
      </trkpt>
      <trkpt lat="45.1946" lon="5.72888">
        <ele>214</ele>
        <time>2011-08-10T18:40:34Z</time>
      </trkpt>
      <trkpt lat="45.19437" lon="5.72915">
        <ele>213</ele>
        <time>2011-08-10T18:40:44Z</time>
      </trkpt>
      <trkpt lat="45.19407" lon="5.72943">
        <ele>217</ele>
        <time>2011-08-10T18:40:58Z</time>
      </trkpt>
      <trkpt lat="45.19406" lon="5.72944">
        <ele>217</ele>
        <time>2011-08-10T18:41:00Z</time>
      </trkpt>
      <trkpt lat="45.19403" lon="5.72944">
        <ele>217</ele>
        <time>2011-08-10T18:41:18Z</time>
      </trkpt>
      <trkpt lat="45.19403" lon="5.72944">
        <ele>217</ele>
        <time>2011-08-10T18:41:20Z</time>
      </trkpt>
      <trkpt lat="45.194" lon="5.72948">
        <ele>218</ele>
        <time>2011-08-10T18:41:23Z</time>
      </trkpt>
      <trkpt lat="45.19397" lon="5.72947">
        <ele>218</ele>
        <time>2011-08-10T18:41:27Z</time>
      </trkpt>
      <trkpt lat="45.19374" lon="5.72907">
        <ele>215</ele>
        <time>2011-08-10T18:41:40Z</time>
      </trkpt>
      <trkpt lat="45.19322" lon="5.7291">
        <ele>220</ele>
        <time>2011-08-10T18:41:53Z</time>
      </trkpt>
      <trkpt lat="45.19316" lon="5.72908">
        <ele>220</ele>
        <time>2011-08-10T18:41:55Z</time>
      </trkpt>
      <trkpt lat="45.19313" lon="5.7289">
        <ele>220</ele>
        <time>2011-08-10T18:41:59Z</time>
      </trkpt>
      <trkpt lat="45.19306" lon="5.7285">
        <ele>220</ele>
        <time>2011-08-10T18:42:07Z</time>
      </trkpt>
      <trkpt lat="45.19297" lon="5.72834">
        <ele>220</ele>
        <time>2011-08-10T18:42:12Z</time>
      </trkpt>
      <trkpt lat="45.19286" lon="5.72832">
        <ele>220</ele>
        <time>2011-08-10T18:42:17Z</time>
      </trkpt>
      <trkpt lat="45.19263" lon="5.72821">
        <ele>221</ele>
        <time>2011-08-10T18:42:25Z</time>
      </trkpt>
      <trkpt lat="45.19262" lon="5.72803">
        <ele>221</ele>
        <time>2011-08-10T18:42:29Z</time>
      </trkpt>
      <trkpt lat="45.19262" lon="5.72796">
        <ele>220</ele>
        <time>2011-08-10T18:42:31Z</time>
      </trkpt>
      <trkpt lat="45.19248" lon="5.72776">
        <ele>221</ele>
        <time>2011-08-10T18:42:36Z</time>
      </trkpt>
      <trkpt lat="45.19231" lon="5.72763">
        <ele>220</ele>
        <time>2011-08-10T18:42:42Z</time>
      </trkpt>
      <trkpt lat="45.19218" lon="5.72781">
        <ele>220</ele>
        <time>2011-08-10T18:42:48Z</time>
      </trkpt>
      <trkpt lat="45.19204" lon="5.72834">
        <ele>222</ele>
        <time>2011-08-10T18:43:00Z</time>
      </trkpt>
      <trkpt lat="45.192" lon="5.7286">
        <ele>222</ele>
        <time>2011-08-10T18:43:06Z</time>
      </trkpt>
      <trkpt lat="45.19164" lon="5.72836">
        <ele>221</ele>
        <time>2011-08-10T18:43:17Z</time>
      </trkpt>
      <trkpt lat="45.19131" lon="5.72801">
        <ele>220</ele>
        <time>2011-08-10T18:43:30Z</time>
      </trkpt>
      <trkpt lat="45.1911" lon="5.7278">
        <ele>221</ele>
        <time>2011-08-10T18:43:38Z</time>
      </trkpt>
      <trkpt lat="45.19103" lon="5.72796">
        <ele>221</ele>
        <time>2011-08-10T18:43:43Z</time>
      </trkpt>
      <trkpt lat="45.19091" lon="5.72807">
        <ele>221</ele>
        <time>2011-08-10T18:43:48Z</time>
      </trkpt>
      <trkpt lat="45.19072" lon="5.7281">
        <ele>222</ele>
        <time>2011-08-10T18:43:53Z</time>
      </trkpt>
      <trkpt lat="45.19031" lon="5.72783">
        <ele>223</ele>
        <time>2011-08-10T18:44:05Z</time>
      </trkpt>
      <trkpt lat="45.19022" lon="5.72789">
        <ele>223</ele>
        <time>2011-08-10T18:44:08Z</time>
      </trkpt>
      <trkpt lat="45.19015" lon="5.72815">
        <ele>223</ele>
        <time>2011-08-10T18:44:13Z</time>
      </trkpt>
      <trkpt lat="45.19015" lon="5.72834">
        <ele>222</ele>
        <time>2011-08-10T18:44:16Z</time>
      </trkpt>
      <trkpt lat="45.1901" lon="5.72922">
        <ele>219</ele>
        <time>2011-08-10T18:44:30Z</time>
      </trkpt>
      <trkpt lat="45.19007" lon="5.73046">
        <ele>216</ele>
        <time>2011-08-10T18:44:48Z</time>
      </trkpt>
      <trkpt lat="45.19007" lon="5.73053">
        <ele>216</ele>
        <time>2011-08-10T18:44:49Z</time>
      </trkpt>
      <trkpt lat="45.19001" lon="5.7308">
        <ele>216</ele>
        <time>2011-08-10T18:44:53Z</time>
      </trkpt>
      <trkpt lat="45.19" lon="5.73101">
        <ele>217</ele>
        <time>2011-08-10T18:44:56Z</time>
      </trkpt>
      <trkpt lat="45.18986" lon="5.73123">
        <ele>216</ele>
        <time>2011-08-10T18:45:00Z</time>
      </trkpt>
      <trkpt lat="45.18941" lon="5.73158">
        <ele>216</ele>
        <time>2011-08-10T18:45:11Z</time>
      </trkpt>
      <trkpt lat="45.18907" lon="5.7314">
        <ele>216</ele>
        <time>2011-08-10T18:45:20Z</time>
      </trkpt>
      <trkpt lat="45.18902" lon="5.73129">
        <ele>216</ele>
        <time>2011-08-10T18:45:22Z</time>
      </trkpt>
      <trkpt lat="45.18868" lon="5.73111">
        <ele>217</ele>
        <time>2011-08-10T18:45:31Z</time>
      </trkpt>
      <trkpt lat="45.18799" lon="5.73166">
        <ele>217</ele>
        <time>2011-08-10T18:45:47Z</time>
      </trkpt>
      <trkpt lat="45.18712" lon="5.73238">
        <ele>216</ele>
        <time>2011-08-10T18:46:06Z</time>
      </trkpt>
      <trkpt lat="45.18664" lon="5.73276">
        <ele>218</ele>
        <time>2011-08-10T18:46:17Z</time>
      </trkpt>
      <trkpt lat="45.18631" lon="5.73267">
        <ele>218</ele>
        <time>2011-08-10T18:46:25Z</time>
      </trkpt>
      <trkpt lat="45.18621" lon="5.73246">
        <ele>216</ele>
        <time>2011-08-10T18:46:29Z</time>
      </trkpt>
      <trkpt lat="45.18565" lon="5.73199">
        <ele>217</ele>
        <time>2011-08-10T18:46:43Z</time>
      </trkpt>
      <trkpt lat="45.18511" lon="5.73171">
        <ele>218</ele>
        <time>2011-08-10T18:46:56Z</time>
      </trkpt>
      <trkpt lat="45.18504" lon="5.73165">
        <ele>218</ele>
        <time>2011-08-10T18:46:58Z</time>
      </trkpt>
      <trkpt lat="45.18445" lon="5.73151">
        <ele>221</ele>
        <time>2011-08-10T18:47:12Z</time>
      </trkpt>
      <trkpt lat="45.18423" lon="5.73147">
        <ele>222</ele>
        <time>2011-08-10T18:47:17Z</time>
      </trkpt>
      <trkpt lat="45.18399" lon="5.73134">
        <ele>221</ele>
        <time>2011-08-10T18:47:23Z</time>
      </trkpt>
      <trkpt lat="45.18384" lon="5.73118">
        <ele>220</ele>
        <time>2011-08-10T18:47:28Z</time>
      </trkpt>
      <trkpt lat="45.18371" lon="5.73121">
        <ele>220</ele>
        <time>2011-08-10T18:47:32Z</time>
      </trkpt>
      <trkpt lat="45.18351" lon="5.73139">
        <ele>219</ele>
        <time>2011-08-10T18:47:37Z</time>
      </trkpt>
      <trkpt lat="45.18295" lon="5.73146">
        <ele>217</ele>
        <time>2011-08-10T18:47:48Z</time>
      </trkpt>
      <trkpt lat="45.18272" lon="5.73147">
        <ele>217</ele>
        <time>2011-08-10T18:47:52Z</time>
      </trkpt>
      <trkpt lat="45.18226" lon="5.73147">
        <ele>217</ele>
        <time>2011-08-10T18:48:01Z</time>
      </trkpt>
      <trkpt lat="45.18188" lon="5.73152">
        <ele>216</ele>
        <time>2011-08-10T18:48:08Z</time>
      </trkpt>
      <trkpt lat="45.18168" lon="5.73158">
        <ele>216</ele>
        <time>2011-08-10T18:48:12Z</time>
      </trkpt>
      <trkpt lat="45.18117" lon="5.7316">
        <ele>215</ele>
        <time>2011-08-10T18:48:24Z</time>
      </trkpt>
      <trkpt lat="45.18058" lon="5.73164">
        <ele>214</ele>
        <time>2011-08-10T18:48:38Z</time>
      </trkpt>
      <trkpt lat="45.17985" lon="5.73164">
        <ele>215</ele>
        <time>2011-08-10T18:48:54Z</time>
      </trkpt>
      <trkpt lat="45.17876" lon="5.73168">
        <ele>216</ele>
        <time>2011-08-10T18:49:17Z</time>
      </trkpt>
      <trkpt lat="45.17863" lon="5.7317">
        <ele>217</ele>
        <time>2011-08-10T18:49:20Z</time>
      </trkpt>
      <trkpt lat="45.17835" lon="5.73169">
        <ele>218</ele>
        <time>2011-08-10T18:49:27Z</time>
      </trkpt>
      <trkpt lat="45.1775" lon="5.73177">
        <ele>217</ele>
        <time>2011-08-10T18:49:45Z</time>
      </trkpt>
      <trkpt lat="45.17689" lon="5.73178">
        <ele>217</ele>
        <time>2011-08-10T18:49:58Z</time>
      </trkpt>
      <trkpt lat="45.17643" lon="5.73164">
        <ele>217</ele>
        <time>2011-08-10T18:50:09Z</time>
      </trkpt>
      <trkpt lat="45.1758" lon="5.73174">
        <ele>216</ele>
        <time>2011-08-10T18:50:22Z</time>
      </trkpt>
      <trkpt lat="45.17501" lon="5.73179">
        <ele>216</ele>
        <time>2011-08-10T18:50:38Z</time>
      </trkpt>
      <trkpt lat="45.17424" lon="5.73181">
        <ele>216</ele>
        <time>2011-08-10T18:50:54Z</time>
      </trkpt>
      <trkpt lat="45.17378" lon="5.73179">
        <ele>217</ele>
        <time>2011-08-10T18:51:04Z</time>
      </trkpt>
      <trkpt lat="45.1736" lon="5.73175">
        <ele>217</ele>
        <time>2011-08-10T18:51:08Z</time>
      </trkpt>
      <trkpt lat="45.17302" lon="5.73184">
        <ele>217</ele>
        <time>2011-08-10T18:51:21Z</time>
      </trkpt>
      <trkpt lat="45.17284" lon="5.73188">
        <ele>217</ele>
        <time>2011-08-10T18:51:26Z</time>
      </trkpt>
      <trkpt lat="45.17271" lon="5.7319">
        <ele>217</ele>
        <time>2011-08-10T18:51:29Z</time>
      </trkpt>
      <trkpt lat="45.17193" lon="5.73192">
        <ele>217</ele>
        <time>2011-08-10T18:51:46Z</time>
      </trkpt>
      <trkpt lat="45.17164" lon="5.73194">
        <ele>217</ele>
        <time>2011-08-10T18:51:52Z</time>
      </trkpt>
      <trkpt lat="45.17116" lon="5.7319">
        <ele>218</ele>
        <time>2011-08-10T18:52:02Z</time>
      </trkpt>
      <trkpt lat="45.17101" lon="5.73192">
        <ele>218</ele>
        <time>2011-08-10T18:52:05Z</time>
      </trkpt>
      <trkpt lat="45.1708" lon="5.73198">
        <ele>219</ele>
        <time>2011-08-10T18:52:09Z</time>
      </trkpt>
      <trkpt lat="45.16972" lon="5.73208">
        <ele>220</ele>
        <time>2011-08-10T18:52:30Z</time>
      </trkpt>
      <trkpt lat="45.16966" lon="5.73208">
        <ele>220</ele>
        <time>2011-08-10T18:52:31Z</time>
      </trkpt>
      <trkpt lat="45.16937" lon="5.73211">
        <ele>220</ele>
        <time>2011-08-10T18:52:37Z</time>
      </trkpt>
      <trkpt lat="45.16894" lon="5.73208">
        <ele>220</ele>
        <time>2011-08-10T18:52:48Z</time>
      </trkpt>
      <trkpt lat="45.16878" lon="5.73244">
        <ele>220</ele>
        <time>2011-08-10T18:52:56Z</time>
      </trkpt>
      <trkpt lat="45.16879" lon="5.73258">
        <ele>222</ele>
        <time>2011-08-10T18:52:58Z</time>
      </trkpt>
      <trkpt lat="45.16881" lon="5.73273">
        <ele>222</ele>
        <time>2011-08-10T18:53:00Z</time>
      </trkpt>
      <trkpt lat="45.16889" lon="5.73299">
        <ele>221</ele>
        <time>2011-08-10T18:53:04Z</time>
      </trkpt>
      <trkpt lat="45.16896" lon="5.73325">
        <ele>221</ele>
        <time>2011-08-10T18:53:08Z</time>
      </trkpt>
      <trkpt lat="45.16889" lon="5.73342">
        <ele>222</ele>
        <time>2011-08-10T18:53:12Z</time>
      </trkpt>
      <trkpt lat="45.1687" lon="5.73382">
        <ele>223</ele>
        <time>2011-08-10T18:53:19Z</time>
      </trkpt>
      <trkpt lat="45.16827" lon="5.73509">
        <ele>221</ele>
        <time>2011-08-10T18:53:39Z</time>
      </trkpt>
      <trkpt lat="45.16785" lon="5.73622">
        <ele>218</ele>
        <time>2011-08-10T18:53:58Z</time>
      </trkpt>
      <trkpt lat="45.16769" lon="5.7363">
        <ele>218</ele>
        <time>2011-08-10T18:54:02Z</time>
      </trkpt>
      <trkpt lat="45.16679" lon="5.73603">
        <ele>220</ele>
        <time>2011-08-10T18:54:22Z</time>
      </trkpt>
      <trkpt lat="45.16673" lon="5.73604">
        <ele>220</ele>
        <time>2011-08-10T18:54:29Z</time>
      </trkpt>
      <trkpt lat="45.16667" lon="5.7363">
        <ele>220</ele>
        <time>2011-08-10T18:54:35Z</time>
      </trkpt>
      <trkpt lat="45.16667" lon="5.7365">
        <ele>220</ele>
        <time>2011-08-10T18:54:38Z</time>
      </trkpt>
      <trkpt lat="45.16663" lon="5.73679">
        <ele>220</ele>
        <time>2011-08-10T18:54:42Z</time>
      </trkpt>
      <trkpt lat="45.1662" lon="5.7385">
        <ele>219</ele>
        <time>2011-08-10T18:55:07Z</time>
      </trkpt>
      <trkpt lat="45.16587" lon="5.73983">
        <ele>220</ele>
        <time>2011-08-10T18:55:26Z</time>
      </trkpt>
      <trkpt lat="45.16569" lon="5.74051">
        <ele>219</ele>
        <time>2011-08-10T18:55:36Z</time>
      </trkpt>
      <trkpt lat="45.16564" lon="5.74076">
        <ele>219</ele>
        <time>2011-08-10T18:55:40Z</time>
      </trkpt>
      <trkpt lat="45.16555" lon="5.74123">
        <ele>218</ele>
        <time>2011-08-10T18:55:47Z</time>
      </trkpt>
      <trkpt lat="45.16545" lon="5.7415">
        <ele>218</ele>
        <time>2011-08-10T18:55:52Z</time>
      </trkpt>
      <trkpt lat="45.1653" lon="5.74208">
        <ele>218</ele>
        <time>2011-08-10T18:56:02Z</time>
      </trkpt>
      <trkpt lat="45.16526" lon="5.74248">
        <ele>218</ele>
        <time>2011-08-10T18:56:09Z</time>
      </trkpt>
      <trkpt lat="45.16509" lon="5.74262">
        <ele>218</ele>
        <time>2011-08-10T18:56:14Z</time>
      </trkpt>
      <trkpt lat="45.16492" lon="5.74274">
        <ele>219</ele>
        <time>2011-08-10T18:56:18Z</time>
      </trkpt>
      <trkpt lat="45.16478" lon="5.74316">
        <ele>220</ele>
        <time>2011-08-10T18:56:25Z</time>
      </trkpt>
      <trkpt lat="45.16482" lon="5.74332">
        <ele>220</ele>
        <time>2011-08-10T18:56:27Z</time>
      </trkpt>
      <trkpt lat="45.16477" lon="5.74358">
        <ele>220</ele>
        <time>2011-08-10T18:56:31Z</time>
      </trkpt>
      <trkpt lat="45.16414" lon="5.74432">
        <ele>218</ele>
        <time>2011-08-10T18:56:46Z</time>
      </trkpt>
      <trkpt lat="45.16338" lon="5.74511">
        <ele>217</ele>
        <time>2011-08-10T18:57:04Z</time>
      </trkpt>
      <trkpt lat="45.16268" lon="5.74606">
        <ele>217</ele>
        <time>2011-08-10T18:57:24Z</time>
      </trkpt>
      <trkpt lat="45.1626" lon="5.74621">
        <ele>217</ele>
        <time>2011-08-10T18:57:29Z</time>
      </trkpt>
      <trkpt lat="45.16262" lon="5.74639">
        <ele>217</ele>
        <time>2011-08-10T18:57:32Z</time>
      </trkpt>
      <trkpt lat="45.16239" lon="5.74707">
        <ele>218</ele>
        <time>2011-08-10T18:57:42Z</time>
      </trkpt>
      <trkpt lat="45.1619" lon="5.74813">
        <ele>221</ele>
        <time>2011-08-10T18:58:00Z</time>
      </trkpt>
      <trkpt lat="45.1618" lon="5.74829">
        <ele>221</ele>
        <time>2011-08-10T18:58:03Z</time>
      </trkpt>
      <trkpt lat="45.16176" lon="5.74854">
        <ele>221</ele>
        <time>2011-08-10T18:58:07Z</time>
      </trkpt>
      <trkpt lat="45.16181" lon="5.7488">
        <ele>221</ele>
        <time>2011-08-10T18:58:11Z</time>
      </trkpt>
      <trkpt lat="45.16159" lon="5.74909">
        <ele>222</ele>
        <time>2011-08-10T18:58:17Z</time>
      </trkpt>
      <trkpt lat="45.16103" lon="5.75">
        <ele>222</ele>
        <time>2011-08-10T18:58:34Z</time>
      </trkpt>
      <trkpt lat="45.16051" lon="5.75086">
        <ele>221</ele>
        <time>2011-08-10T18:58:50Z</time>
      </trkpt>
      <trkpt lat="45.1603" lon="5.75088">
        <ele>221</ele>
        <time>2011-08-10T18:58:55Z</time>
      </trkpt>
      <trkpt lat="45.15997" lon="5.75049">
        <ele>220</ele>
        <time>2011-08-10T18:59:04Z</time>
      </trkpt>
      <trkpt lat="45.15998" lon="5.75017">
        <ele>220</ele>
        <time>2011-08-10T18:59:11Z</time>
      </trkpt>
      <trkpt lat="45.1601" lon="5.75025">
        <ele>221</ele>
        <time>2011-08-10T18:59:14Z</time>
      </trkpt>
      <trkpt lat="45.16018" lon="5.75034">
        <ele>221</ele>
        <time>2011-08-10T18:59:16Z</time>
      </trkpt>
      <trkpt lat="45.16026" lon="5.75041">
        <ele>222</ele>
        <time>2011-08-10T18:59:18Z</time>
      </trkpt>
      <trkpt lat="45.1603" lon="5.75059">
        <ele>222</ele>
        <time>2011-08-10T18:59:22Z</time>
      </trkpt>
      <trkpt lat="45.15994" lon="5.7512">
        <ele>220</ele>
        <time>2011-08-10T18:59:35Z</time>
      </trkpt>
      <trkpt lat="45.15983" lon="5.75139">
        <ele>219</ele>
        <time>2011-08-10T18:59:39Z</time>
      </trkpt>
      <trkpt lat="45.15961" lon="5.75131">
        <ele>219</ele>
        <time>2011-08-10T18:59:45Z</time>
      </trkpt>
      <trkpt lat="45.15937" lon="5.75141">
        <ele>219</ele>
        <time>2011-08-10T18:59:50Z</time>
      </trkpt>
      <trkpt lat="45.15855" lon="5.75236">
        <ele>218</ele>
        <time>2011-08-10T19:00:07Z</time>
      </trkpt>
      <trkpt lat="45.15823" lon="5.75274">
        <ele>219</ele>
        <time>2011-08-10T19:00:14Z</time>
      </trkpt>
      <trkpt lat="45.15773" lon="5.75312">
        <ele>219</ele>
        <time>2011-08-10T19:00:24Z</time>
      </trkpt>
      <trkpt lat="45.15727" lon="5.75358">
        <ele>220</ele>
        <time>2011-08-10T19:00:35Z</time>
      </trkpt>
      <trkpt lat="45.15731" lon="5.75404">
        <ele>220</ele>
        <time>2011-08-10T19:00:43Z</time>
      </trkpt>
      <trkpt lat="45.15732" lon="5.75425">
        <ele>220</ele>
        <time>2011-08-10T19:00:48Z</time>
      </trkpt>
      <trkpt lat="45.15716" lon="5.75441">
        <ele>221</ele>
        <time>2011-08-10T19:00:53Z</time>
      </trkpt>
      <trkpt lat="45.15684" lon="5.75468">
        <ele>221</ele>
        <time>2011-08-10T19:01:02Z</time>
      </trkpt>
      <trkpt lat="45.15656" lon="5.755">
        <ele>220</ele>
        <time>2011-08-10T19:01:10Z</time>
      </trkpt>
      <trkpt lat="45.15657" lon="5.7554">
        <ele>220</ele>
        <time>2011-08-10T19:01:17Z</time>
      </trkpt>
      <trkpt lat="45.1566" lon="5.75545">
        <ele>220</ele>
        <time>2011-08-10T19:01:18Z</time>
      </trkpt>
      <trkpt lat="45.15672" lon="5.7558">
        <ele>220</ele>
        <time>2011-08-10T19:01:24Z</time>
      </trkpt>
      <trkpt lat="45.15664" lon="5.75611">
        <ele>220</ele>
        <time>2011-08-10T19:01:29Z</time>
      </trkpt>
      <trkpt lat="45.15658" lon="5.75623">
        <ele>220</ele>
        <time>2011-08-10T19:01:31Z</time>
      </trkpt>
      <trkpt lat="45.15579" lon="5.75721">
        <ele>221</ele>
        <time>2011-08-10T19:01:52Z</time>
      </trkpt>
      <trkpt lat="45.15565" lon="5.75737">
        <ele>221</ele>
        <time>2011-08-10T19:01:56Z</time>
      </trkpt>
      <trkpt lat="45.15516" lon="5.75733">
        <ele>222</ele>
        <time>2011-08-10T19:02:07Z</time>
      </trkpt>
      <trkpt lat="45.15493" lon="5.75718">
        <ele>223</ele>
        <time>2011-08-10T19:02:17Z</time>
      </trkpt>
      <trkpt lat="45.15494" lon="5.75708">
        <ele>222</ele>
        <time>2011-08-10T19:02:32Z</time>
      </trkpt>
      <trkpt lat="45.15493" lon="5.75704">
        <ele>222</ele>
        <time>2011-08-10T19:02:37Z</time>
      </trkpt>
      <trkpt lat="45.15493" lon="5.75696">
        <ele>222</ele>
        <time>2011-08-10T19:02:46Z</time>
      </trkpt>
      <trkpt lat="45.15496" lon="5.75692">
        <ele>222</ele>
        <time>2011-08-10T19:02:50Z</time>
      </trkpt>
      <trkpt lat="45.15501" lon="5.75693">
        <ele>222</ele>
        <time>2011-08-10T19:03:06Z</time>
      </trkpt>
    </trkseg>
  </trk>
</gpx>